<?xml version="1.0"?>
<gpx xmlns="http://www.topografix.com/GPX/1/1" xmlns:xsi="http://www.w3.org/2001/XMLSchema-instance" version="1.1" creator="GPX RubyGem 1.0.0 -- http://dougfales.github.io/gpx/" xsi:schemaLocation="http://www.topografix.com/GPX/1/1 http://www.topografix.com/GPX/1/1/gpx.xsd">
  <metadata>
    <name/>
    <time>2026-05-08T18:07:27+00:00</time>
    <bound minlat="90.0" minlon="180.0" maxlat="-90.0" maxlon="-180.0"/>
  </metadata>
  <trk>
    <name/>
    <trkseg>
      <trkpt lat="44.12388" lon="7.2691">
        <time>1970-01-01T00:00:00+00:00</time>
        <ele>1613.0</ele>
      </trkpt>
      <trkpt lat="44.12388" lon="7.2691">
        <time>1970-01-01T00:00:00+00:00</time>
        <ele>1613.0</ele>
      </trkpt>
      <trkpt lat="44.123958682660586" lon="7.26887468147196">
        <time>1970-01-01T00:00:00+00:00</time>
        <ele>1613.0</ele>
      </trkpt>
      <trkpt lat="44.12403736532117" lon="7.26864936294392">
        <time>1970-01-01T00:00:00+00:00</time>
        <ele>1615.0</ele>
      </trkpt>
      <trkpt lat="44.12411604798176" lon="7.26842404441588">
        <time>1970-01-01T00:00:00+00:00</time>
        <ele>1618.0</ele>
      </trkpt>
      <trkpt lat="44.12419473064234" lon="7.26819872588784">
        <time>1970-01-01T00:00:00+00:00</time>
        <ele>1620.0</ele>
      </trkpt>
      <trkpt lat="44.12427341330292" lon="7.267973407359801">
        <time>1970-01-01T00:00:00+00:00</time>
        <ele>1622.0</ele>
      </trkpt>
      <trkpt lat="44.12432" lon="7.26784">
        <time>1970-01-01T00:00:00+00:00</time>
        <ele>1623.0</ele>
      </trkpt>
      <trkpt lat="44.12432" lon="7.26784">
        <time>1970-01-01T00:00:00+00:00</time>
        <ele>1623.0</ele>
      </trkpt>
      <trkpt lat="44.124409963973605" lon="7.26762302806365">
        <time>1970-01-01T00:00:00+00:00</time>
        <ele>1624.0</ele>
      </trkpt>
      <trkpt lat="44.12449992794721" lon="7.2674060561272995">
        <time>1970-01-01T00:00:00+00:00</time>
        <ele>1625.0</ele>
      </trkpt>
      <trkpt lat="44.12458989192082" lon="7.267189084190949">
        <time>1970-01-01T00:00:00+00:00</time>
        <ele>1625.0</ele>
      </trkpt>
      <trkpt lat="44.12466" lon="7.26702">
        <time>1970-01-01T00:00:00+00:00</time>
        <ele>1626.0</ele>
      </trkpt>
      <trkpt lat="44.12466" lon="7.26702">
        <time>1970-01-01T00:00:00+00:00</time>
        <ele>1626.0</ele>
      </trkpt>
      <trkpt lat="44.12477281970499" lon="7.2668248524021894">
        <time>1970-01-01T00:00:00+00:00</time>
        <ele>1627.0</ele>
      </trkpt>
      <trkpt lat="44.12488563940997" lon="7.266629704804378">
        <time>1970-01-01T00:00:00+00:00</time>
        <ele>1629.0</ele>
      </trkpt>
      <trkpt lat="44.124998459114956" lon="7.266434557206569">
        <time>1970-01-01T00:00:00+00:00</time>
        <ele>1631.0</ele>
      </trkpt>
      <trkpt lat="44.12503" lon="7.26638">
        <time>1970-01-01T00:00:00+00:00</time>
        <ele>1632.0</ele>
      </trkpt>
      <trkpt lat="44.12503" lon="7.26638">
        <time>1970-01-01T00:00:00+00:00</time>
        <ele>1632.0</ele>
      </trkpt>
      <trkpt lat="44.12510447538783" lon="7.266151919124783">
        <time>1970-01-01T00:00:00+00:00</time>
        <ele>1631.0</ele>
      </trkpt>
      <trkpt lat="44.12517895077565" lon="7.265923838249568">
        <time>1970-01-01T00:00:00+00:00</time>
        <ele>1629.0</ele>
      </trkpt>
      <trkpt lat="44.125253426163475" lon="7.265695757374353">
        <time>1970-01-01T00:00:00+00:00</time>
        <ele>1628.0</ele>
      </trkpt>
      <trkpt lat="44.125327901551294" lon="7.265467676499137">
        <time>1970-01-01T00:00:00+00:00</time>
        <ele>1628.0</ele>
      </trkpt>
      <trkpt lat="44.12535" lon="7.2654">
        <time>1970-01-01T00:00:00+00:00</time>
        <ele>1627.0</ele>
      </trkpt>
      <trkpt lat="44.12535" lon="7.2654">
        <time>1970-01-01T00:00:00+00:00</time>
        <ele>1627.0</ele>
      </trkpt>
      <trkpt lat="44.125387693395155" lon="7.265154992931494">
        <time>1970-01-01T00:00:00+00:00</time>
        <ele>1626.0</ele>
      </trkpt>
      <trkpt lat="44.12542538679031" lon="7.264909985862989">
        <time>1970-01-01T00:00:00+00:00</time>
        <ele>1625.0</ele>
      </trkpt>
      <trkpt lat="44.12546308018546" lon="7.264664978794483">
        <time>1970-01-01T00:00:00+00:00</time>
        <ele>1626.0</ele>
      </trkpt>
      <trkpt lat="44.12549" lon="7.26449">
        <time>1970-01-01T00:00:00+00:00</time>
        <ele>1627.0</ele>
      </trkpt>
      <trkpt lat="44.12549" lon="7.26449">
        <time>1970-01-01T00:00:00+00:00</time>
        <ele>1627.0</ele>
      </trkpt>
      <trkpt lat="44.12551053062784" lon="7.264241066137389">
        <time>1970-01-01T00:00:00+00:00</time>
        <ele>1628.0</ele>
      </trkpt>
      <trkpt lat="44.125531061255685" lon="7.263992132274778">
        <time>1970-01-01T00:00:00+00:00</time>
        <ele>1630.0</ele>
      </trkpt>
      <trkpt lat="44.125551591883536" lon="7.2637431984121665">
        <time>1970-01-01T00:00:00+00:00</time>
        <ele>1632.0</ele>
      </trkpt>
      <trkpt lat="44.12557" lon="7.26352">
        <time>1970-01-01T00:00:00+00:00</time>
        <ele>1634.0</ele>
      </trkpt>
      <trkpt lat="44.12557" lon="7.26352">
        <time>1970-01-01T00:00:00+00:00</time>
        <ele>1634.0</ele>
      </trkpt>
      <trkpt lat="44.12558597323935" lon="7.263270418135142">
        <time>1970-01-01T00:00:00+00:00</time>
        <ele>1637.0</ele>
      </trkpt>
      <trkpt lat="44.12560194647871" lon="7.263020836270286">
        <time>1970-01-01T00:00:00+00:00</time>
        <ele>1640.0</ele>
      </trkpt>
      <trkpt lat="44.12561791971805" lon="7.262771254405427">
        <time>1970-01-01T00:00:00+00:00</time>
        <ele>1644.0</ele>
      </trkpt>
      <trkpt lat="44.1256338929574" lon="7.26252167254057">
        <time>1970-01-01T00:00:00+00:00</time>
        <ele>1649.0</ele>
      </trkpt>
      <trkpt lat="44.12564986619675" lon="7.2622720906757126">
        <time>1970-01-01T00:00:00+00:00</time>
        <ele>1651.0</ele>
      </trkpt>
      <trkpt lat="44.12565" lon="7.26227">
        <time>1970-01-01T00:00:00+00:00</time>
        <ele>1651.0</ele>
      </trkpt>
      <trkpt lat="44.12565" lon="7.26227">
        <time>1970-01-01T00:00:00+00:00</time>
        <ele>1651.0</ele>
      </trkpt>
      <trkpt lat="44.12564582492455" lon="7.262019495472684">
        <time>1970-01-01T00:00:00+00:00</time>
        <ele>1654.0</ele>
      </trkpt>
      <trkpt lat="44.125641649849086" lon="7.261768990945367">
        <time>1970-01-01T00:00:00+00:00</time>
        <ele>1657.0</ele>
      </trkpt>
      <trkpt lat="44.12563747477363" lon="7.261518486418051">
        <time>1970-01-01T00:00:00+00:00</time>
        <ele>1660.0</ele>
      </trkpt>
      <trkpt lat="44.12563329969818" lon="7.261267981890734">
        <time>1970-01-01T00:00:00+00:00</time>
        <ele>1662.0</ele>
      </trkpt>
      <trkpt lat="44.12563" lon="7.26107">
        <time>1970-01-01T00:00:00+00:00</time>
        <ele>1664.0</ele>
      </trkpt>
      <trkpt lat="44.12563" lon="7.26107">
        <time>1970-01-01T00:00:00+00:00</time>
        <ele>1664.0</ele>
      </trkpt>
      <trkpt lat="44.125659657094864" lon="7.260822857542809">
        <time>1970-01-01T00:00:00+00:00</time>
        <ele>1665.0</ele>
      </trkpt>
      <trkpt lat="44.12568931418973" lon="7.260575715085619">
        <time>1970-01-01T00:00:00+00:00</time>
        <ele>1668.0</ele>
      </trkpt>
      <trkpt lat="44.12569" lon="7.26057">
        <time>1970-01-01T00:00:00+00:00</time>
        <ele>1668.0</ele>
      </trkpt>
      <trkpt lat="44.12569" lon="7.26057">
        <time>1970-01-01T00:00:00+00:00</time>
        <ele>1668.0</ele>
      </trkpt>
      <trkpt lat="44.12572510754328" lon="7.260324247197013">
        <time>1970-01-01T00:00:00+00:00</time>
        <ele>1671.0</ele>
      </trkpt>
      <trkpt lat="44.12576" lon="7.26008">
        <time>1970-01-01T00:00:00+00:00</time>
        <ele>1674.0</ele>
      </trkpt>
      <trkpt lat="44.12576" lon="7.26008">
        <time>1970-01-01T00:00:00+00:00</time>
        <ele>1674.0</ele>
      </trkpt>
      <trkpt lat="44.1258191579561" lon="7.2598433681756">
        <time>1970-01-01T00:00:00+00:00</time>
        <ele>1676.0</ele>
      </trkpt>
      <trkpt lat="44.12587" lon="7.25964">
        <time>1970-01-01T00:00:00+00:00</time>
        <ele>1679.0</ele>
      </trkpt>
      <trkpt lat="44.12587" lon="7.25964">
        <time>1970-01-01T00:00:00+00:00</time>
        <ele>1679.0</ele>
      </trkpt>
      <trkpt lat="44.12584034281723" lon="7.2593928568102015">
        <time>1970-01-01T00:00:00+00:00</time>
        <ele>1684.0</ele>
      </trkpt>
      <trkpt lat="44.12581068563445" lon="7.259145713620404">
        <time>1970-01-01T00:00:00+00:00</time>
        <ele>1688.0</ele>
      </trkpt>
      <trkpt lat="44.12581" lon="7.25914">
        <time>1970-01-01T00:00:00+00:00</time>
        <ele>1688.0</ele>
      </trkpt>
      <trkpt lat="44.12581" lon="7.25914">
        <time>1970-01-01T00:00:00+00:00</time>
        <ele>1688.0</ele>
      </trkpt>
      <trkpt lat="44.12585068000652" lon="7.25889591996091">
        <time>1970-01-01T00:00:00+00:00</time>
        <ele>1689.0</ele>
      </trkpt>
      <trkpt lat="44.12589136001303" lon="7.258651839921818">
        <time>1970-01-01T00:00:00+00:00</time>
        <ele>1690.0</ele>
      </trkpt>
      <trkpt lat="44.1259" lon="7.2586">
        <time>1970-01-01T00:00:00+00:00</time>
        <ele>1691.0</ele>
      </trkpt>
      <trkpt lat="44.1259" lon="7.2586">
        <time>1970-01-01T00:00:00+00:00</time>
        <ele>1691.0</ele>
      </trkpt>
      <trkpt lat="44.125942757751154" lon="7.2583566097242205">
        <time>1970-01-01T00:00:00+00:00</time>
        <ele>1691.0</ele>
      </trkpt>
      <trkpt lat="44.1259855155023" lon="7.258113219448441">
        <time>1970-01-01T00:00:00+00:00</time>
        <ele>1693.0</ele>
      </trkpt>
      <trkpt lat="44.126028273253446" lon="7.257869829172661">
        <time>1970-01-01T00:00:00+00:00</time>
        <ele>1699.0</ele>
      </trkpt>
      <trkpt lat="44.12603" lon="7.25786">
        <time>1970-01-01T00:00:00+00:00</time>
        <ele>1699.0</ele>
      </trkpt>
      <trkpt lat="44.12603" lon="7.25786">
        <time>1970-01-01T00:00:00+00:00</time>
        <ele>1699.0</ele>
      </trkpt>
      <trkpt lat="44.12612220481368" lon="7.25764485543475">
        <time>1970-01-01T00:00:00+00:00</time>
        <ele>1702.0</ele>
      </trkpt>
      <trkpt lat="44.12621440962736" lon="7.2574297108695">
        <time>1970-01-01T00:00:00+00:00</time>
        <ele>1703.0</ele>
      </trkpt>
      <trkpt lat="44.12624" lon="7.25737">
        <time>1970-01-01T00:00:00+00:00</time>
        <ele>1704.0</ele>
      </trkpt>
      <trkpt lat="44.12624" lon="7.25737">
        <time>1970-01-01T00:00:00+00:00</time>
        <ele>1704.0</ele>
      </trkpt>
      <trkpt lat="44.126335899183104" lon="7.257158012332077">
        <time>1970-01-01T00:00:00+00:00</time>
        <ele>1705.0</ele>
      </trkpt>
      <trkpt lat="44.12643" lon="7.25695">
        <time>1970-01-01T00:00:00+00:00</time>
        <ele>1708.0</ele>
      </trkpt>
      <trkpt lat="44.12643" lon="7.25695">
        <time>1970-01-01T00:00:00+00:00</time>
        <ele>1708.0</ele>
      </trkpt>
      <trkpt lat="44.12650882975683" lon="7.256724772123338">
        <time>1970-01-01T00:00:00+00:00</time>
        <ele>1709.0</ele>
      </trkpt>
      <trkpt lat="44.12657" lon="7.25655">
        <time>1970-01-01T00:00:00+00:00</time>
        <ele>1712.0</ele>
      </trkpt>
      <trkpt lat="44.12657" lon="7.25655">
        <time>1970-01-01T00:00:00+00:00</time>
        <ele>1712.0</ele>
      </trkpt>
      <trkpt lat="44.12663191155927" lon="7.256314736074751">
        <time>1970-01-01T00:00:00+00:00</time>
        <ele>1716.0</ele>
      </trkpt>
      <trkpt lat="44.12667" lon="7.25617">
        <time>1970-01-01T00:00:00+00:00</time>
        <ele>1718.0</ele>
      </trkpt>
      <trkpt lat="44.12667" lon="7.25617">
        <time>1970-01-01T00:00:00+00:00</time>
        <ele>1718.0</ele>
      </trkpt>
      <trkpt lat="44.1267087625519" lon="7.255925311391126">
        <time>1970-01-01T00:00:00+00:00</time>
        <ele>1721.0</ele>
      </trkpt>
      <trkpt lat="44.126747525103795" lon="7.255680622782252">
        <time>1970-01-01T00:00:00+00:00</time>
        <ele>1724.0</ele>
      </trkpt>
      <trkpt lat="44.126786287655705" lon="7.255435934173379">
        <time>1970-01-01T00:00:00+00:00</time>
        <ele>1727.0</ele>
      </trkpt>
      <trkpt lat="44.1268250502076" lon="7.255191245564505">
        <time>1970-01-01T00:00:00+00:00</time>
        <ele>1731.0</ele>
      </trkpt>
      <trkpt lat="44.12683" lon="7.25516">
        <time>1970-01-01T00:00:00+00:00</time>
        <ele>1731.0</ele>
      </trkpt>
      <trkpt lat="44.12683" lon="7.25516">
        <time>1970-01-01T00:00:00+00:00</time>
        <ele>1731.0</ele>
      </trkpt>
      <trkpt lat="44.12693280576585" lon="7.254954388468304">
        <time>1970-01-01T00:00:00+00:00</time>
        <ele>1735.0</ele>
      </trkpt>
      <trkpt lat="44.127035611531696" lon="7.254748776936608">
        <time>1970-01-01T00:00:00+00:00</time>
        <ele>1740.0</ele>
      </trkpt>
      <trkpt lat="44.12704" lon="7.25474">
        <time>1970-01-01T00:00:00+00:00</time>
        <ele>1740.0</ele>
      </trkpt>
      <trkpt lat="44.12704" lon="7.25474">
        <time>1970-01-01T00:00:00+00:00</time>
        <ele>1740.0</ele>
      </trkpt>
      <trkpt lat="44.127126142684276" lon="7.254520028502661">
        <time>1970-01-01T00:00:00+00:00</time>
        <ele>1744.0</ele>
      </trkpt>
      <trkpt lat="44.12721228536854" lon="7.254300057005321">
        <time>1970-01-01T00:00:00+00:00</time>
        <ele>1748.0</ele>
      </trkpt>
      <trkpt lat="44.12729842805282" lon="7.25408008550798">
        <time>1970-01-01T00:00:00+00:00</time>
        <ele>1751.0</ele>
      </trkpt>
      <trkpt lat="44.12738457073709" lon="7.253860114010641">
        <time>1970-01-01T00:00:00+00:00</time>
        <ele>1754.0</ele>
      </trkpt>
      <trkpt lat="44.12747071342137" lon="7.2536401425133015">
        <time>1970-01-01T00:00:00+00:00</time>
        <ele>1757.0</ele>
      </trkpt>
      <trkpt lat="44.12755685610564" lon="7.253420171015962">
        <time>1970-01-01T00:00:00+00:00</time>
        <ele>1759.0</ele>
      </trkpt>
      <trkpt lat="44.1276" lon="7.25331">
        <time>1970-01-01T00:00:00+00:00</time>
        <ele>1761.0</ele>
      </trkpt>
      <trkpt lat="44.1276" lon="7.25331">
        <time>1970-01-01T00:00:00+00:00</time>
        <ele>1761.0</ele>
      </trkpt>
      <trkpt lat="44.12771085806696" lon="7.253112672640814">
        <time>1970-01-01T00:00:00+00:00</time>
        <ele>1763.0</ele>
      </trkpt>
      <trkpt lat="44.12782171613392" lon="7.252915345281627">
        <time>1970-01-01T00:00:00+00:00</time>
        <ele>1766.0</ele>
      </trkpt>
      <trkpt lat="44.12793257420088" lon="7.252718017922441">
        <time>1970-01-01T00:00:00+00:00</time>
        <ele>1769.0</ele>
      </trkpt>
      <trkpt lat="44.128043432267845" lon="7.252520690563254">
        <time>1970-01-01T00:00:00+00:00</time>
        <ele>1772.0</ele>
      </trkpt>
      <trkpt lat="44.1281" lon="7.25242">
        <time>1970-01-01T00:00:00+00:00</time>
        <ele>1773.0</ele>
      </trkpt>
      <trkpt lat="44.1281" lon="7.25242">
        <time>1970-01-01T00:00:00+00:00</time>
        <ele>1773.0</ele>
      </trkpt>
      <trkpt lat="44.128160191259965" lon="7.25218386505707">
        <time>1970-01-01T00:00:00+00:00</time>
        <ele>1777.0</ele>
      </trkpt>
      <trkpt lat="44.12822038251993" lon="7.25194773011414">
        <time>1970-01-01T00:00:00+00:00</time>
        <ele>1781.0</ele>
      </trkpt>
      <trkpt lat="44.12823" lon="7.25191">
        <time>1970-01-01T00:00:00+00:00</time>
        <ele>1782.0</ele>
      </trkpt>
      <trkpt lat="44.12823" lon="7.25191">
        <time>1970-01-01T00:00:00+00:00</time>
        <ele>1782.0</ele>
      </trkpt>
      <trkpt lat="44.128314320495974" lon="7.251688658698059">
        <time>1970-01-01T00:00:00+00:00</time>
        <ele>1787.0</ele>
      </trkpt>
      <trkpt lat="44.12839" lon="7.25149">
        <time>1970-01-01T00:00:00+00:00</time>
        <ele>1791.0</ele>
      </trkpt>
      <trkpt lat="44.12839" lon="7.25149">
        <time>1970-01-01T00:00:00+00:00</time>
        <ele>1791.0</ele>
      </trkpt>
      <trkpt lat="44.128449160314105" lon="7.251253358743572">
        <time>1970-01-01T00:00:00+00:00</time>
        <ele>1794.0</ele>
      </trkpt>
      <trkpt lat="44.128508320628214" lon="7.251016717487143">
        <time>1970-01-01T00:00:00+00:00</time>
        <ele>1798.0</ele>
      </trkpt>
      <trkpt lat="44.12852" lon="7.25097">
        <time>1970-01-01T00:00:00+00:00</time>
        <ele>1799.0</ele>
      </trkpt>
      <trkpt lat="44.12852" lon="7.25097">
        <time>1970-01-01T00:00:00+00:00</time>
        <ele>1799.0</ele>
      </trkpt>
      <trkpt lat="44.12862676363397" lon="7.250768335358066">
        <time>1970-01-01T00:00:00+00:00</time>
        <ele>1802.0</ele>
      </trkpt>
      <trkpt lat="44.12873352726793" lon="7.250566670716131">
        <time>1970-01-01T00:00:00+00:00</time>
        <ele>1804.0</ele>
      </trkpt>
      <trkpt lat="44.12879" lon="7.25046">
        <time>1970-01-01T00:00:00+00:00</time>
        <ele>1806.0</ele>
      </trkpt>
      <trkpt lat="44.12879" lon="7.25046">
        <time>1970-01-01T00:00:00+00:00</time>
        <ele>1806.0</ele>
      </trkpt>
      <trkpt lat="44.12893440789156" lon="7.250310612525974">
        <time>1970-01-01T00:00:00+00:00</time>
        <ele>1808.0</ele>
      </trkpt>
      <trkpt lat="44.12907881578312" lon="7.250161225051948">
        <time>1970-01-01T00:00:00+00:00</time>
        <ele>1810.0</ele>
      </trkpt>
      <trkpt lat="44.12908" lon="7.25016">
        <time>1970-01-01T00:00:00+00:00</time>
        <ele>1810.0</ele>
      </trkpt>
      <trkpt lat="44.12908" lon="7.25016">
        <time>1970-01-01T00:00:00+00:00</time>
        <ele>1810.0</ele>
      </trkpt>
      <trkpt lat="44.12921789939482" lon="7.24999911737272">
        <time>1970-01-01T00:00:00+00:00</time>
        <ele>1814.0</ele>
      </trkpt>
      <trkpt lat="44.12932" lon="7.24988">
        <time>1970-01-01T00:00:00+00:00</time>
        <ele>1816.0</ele>
      </trkpt>
      <trkpt lat="44.12932" lon="7.24988">
        <time>1970-01-01T00:00:00+00:00</time>
        <ele>1816.0</ele>
      </trkpt>
      <trkpt lat="44.12944920743311" lon="7.249705672510886">
        <time>1970-01-01T00:00:00+00:00</time>
        <ele>1819.0</ele>
      </trkpt>
      <trkpt lat="44.12957841486622" lon="7.249531345021772">
        <time>1970-01-01T00:00:00+00:00</time>
        <ele>1824.0</ele>
      </trkpt>
      <trkpt lat="44.12970762229932" lon="7.249357017532658">
        <time>1970-01-01T00:00:00+00:00</time>
        <ele>1827.0</ele>
      </trkpt>
      <trkpt lat="44.12983682973243" lon="7.249182690043543">
        <time>1970-01-01T00:00:00+00:00</time>
        <ele>1831.0</ele>
      </trkpt>
      <trkpt lat="44.12995" lon="7.24903">
        <time>1970-01-01T00:00:00+00:00</time>
        <ele>1834.0</ele>
      </trkpt>
      <trkpt lat="44.12995" lon="7.24903">
        <time>1970-01-01T00:00:00+00:00</time>
        <ele>1834.0</ele>
      </trkpt>
      <trkpt lat="44.13010789918748" lon="7.248909996617515">
        <time>1970-01-01T00:00:00+00:00</time>
        <ele>1837.0</ele>
      </trkpt>
      <trkpt lat="44.1302" lon="7.24884">
        <time>1970-01-01T00:00:00+00:00</time>
        <ele>1838.0</ele>
      </trkpt>
      <trkpt lat="44.1302" lon="7.24884">
        <time>1970-01-01T00:00:00+00:00</time>
        <ele>1838.0</ele>
      </trkpt>
      <trkpt lat="44.13032328636753" lon="7.248657536176065">
        <time>1970-01-01T00:00:00+00:00</time>
        <ele>1841.0</ele>
      </trkpt>
      <trkpt lat="44.130446572735046" lon="7.248475072352129">
        <time>1970-01-01T00:00:00+00:00</time>
        <ele>1844.0</ele>
      </trkpt>
      <trkpt lat="44.13056985910257" lon="7.2482926085281925">
        <time>1970-01-01T00:00:00+00:00</time>
        <ele>1847.0</ele>
      </trkpt>
      <trkpt lat="44.1306931454701" lon="7.248110144704256">
        <time>1970-01-01T00:00:00+00:00</time>
        <ele>1850.0</ele>
      </trkpt>
      <trkpt lat="44.130816431837616" lon="7.24792768088032">
        <time>1970-01-01T00:00:00+00:00</time>
        <ele>1853.0</ele>
      </trkpt>
      <trkpt lat="44.13093971820514" lon="7.2477452170563845">
        <time>1970-01-01T00:00:00+00:00</time>
        <ele>1855.0</ele>
      </trkpt>
      <trkpt lat="44.13095" lon="7.24773">
        <time>1970-01-01T00:00:00+00:00</time>
        <ele>1855.0</ele>
      </trkpt>
      <trkpt lat="44.13095" lon="7.24773">
        <time>1970-01-01T00:00:00+00:00</time>
        <ele>1855.0</ele>
      </trkpt>
      <trkpt lat="44.13110837529554" lon="7.2476112185283394">
        <time>1970-01-01T00:00:00+00:00</time>
        <ele>1857.0</ele>
      </trkpt>
      <trkpt lat="44.131266750591095" lon="7.24749243705668">
        <time>1970-01-01T00:00:00+00:00</time>
        <ele>1859.0</ele>
      </trkpt>
      <trkpt lat="44.13135" lon="7.24743">
        <time>1970-01-01T00:00:00+00:00</time>
        <ele>1860.0</ele>
      </trkpt>
      <trkpt lat="44.13135" lon="7.24743">
        <time>1970-01-01T00:00:00+00:00</time>
        <ele>1860.0</ele>
      </trkpt>
      <trkpt lat="44.131497116084844" lon="7.247285826236846">
        <time>1970-01-01T00:00:00+00:00</time>
        <ele>1863.0</ele>
      </trkpt>
      <trkpt lat="44.131644232169705" lon="7.247141652473691">
        <time>1970-01-01T00:00:00+00:00</time>
        <ele>1865.0</ele>
      </trkpt>
      <trkpt lat="44.13179134825455" lon="7.2469974787105365">
        <time>1970-01-01T00:00:00+00:00</time>
        <ele>1867.0</ele>
      </trkpt>
      <trkpt lat="44.13185" lon="7.24694">
        <time>1970-01-01T00:00:00+00:00</time>
        <ele>1869.0</ele>
      </trkpt>
      <trkpt lat="44.13185" lon="7.24694">
        <time>1970-01-01T00:00:00+00:00</time>
        <ele>1869.0</ele>
      </trkpt>
      <trkpt lat="44.131982690268174" lon="7.246770819908079">
        <time>1970-01-01T00:00:00+00:00</time>
        <ele>1872.0</ele>
      </trkpt>
      <trkpt lat="44.13211538053635" lon="7.2466016398161575">
        <time>1970-01-01T00:00:00+00:00</time>
        <ele>1875.0</ele>
      </trkpt>
      <trkpt lat="44.132248070804515" lon="7.246432459724236">
        <time>1970-01-01T00:00:00+00:00</time>
        <ele>1878.0</ele>
      </trkpt>
      <trkpt lat="44.13225" lon="7.24643">
        <time>1970-01-01T00:00:00+00:00</time>
        <ele>1878.0</ele>
      </trkpt>
      <trkpt lat="44.13225" lon="7.24643">
        <time>1970-01-01T00:00:00+00:00</time>
        <ele>1878.0</ele>
      </trkpt>
      <trkpt lat="44.13232986331839" lon="7.246205456756984">
        <time>1970-01-01T00:00:00+00:00</time>
        <ele>1879.0</ele>
      </trkpt>
      <trkpt lat="44.13240972663678" lon="7.245980913513968">
        <time>1970-01-01T00:00:00+00:00</time>
        <ele>1881.0</ele>
      </trkpt>
      <trkpt lat="44.13248958995517" lon="7.245756370270952">
        <time>1970-01-01T00:00:00+00:00</time>
        <ele>1882.0</ele>
      </trkpt>
      <trkpt lat="44.13256945327356" lon="7.245531827027936">
        <time>1970-01-01T00:00:00+00:00</time>
        <ele>1884.0</ele>
      </trkpt>
      <trkpt lat="44.132649316591966" lon="7.2453072837849195">
        <time>1970-01-01T00:00:00+00:00</time>
        <ele>1887.0</ele>
      </trkpt>
      <trkpt lat="44.13272917991035" lon="7.245082740541903">
        <time>1970-01-01T00:00:00+00:00</time>
        <ele>1890.0</ele>
      </trkpt>
      <trkpt lat="44.13280904322875" lon="7.244858197298887">
        <time>1970-01-01T00:00:00+00:00</time>
        <ele>1893.0</ele>
      </trkpt>
      <trkpt lat="44.13288890654714" lon="7.244633654055871">
        <time>1970-01-01T00:00:00+00:00</time>
        <ele>1895.0</ele>
      </trkpt>
      <trkpt lat="44.13294" lon="7.24449">
        <time>1970-01-01T00:00:00+00:00</time>
        <ele>1896.0</ele>
      </trkpt>
      <trkpt lat="44.13294" lon="7.24449">
        <time>1970-01-01T00:00:00+00:00</time>
        <ele>1896.0</ele>
      </trkpt>
      <trkpt lat="44.13295972997262" lon="7.244240909095675">
        <time>1970-01-01T00:00:00+00:00</time>
        <ele>1897.0</ele>
      </trkpt>
      <trkpt lat="44.13297945994524" lon="7.24399181819135">
        <time>1970-01-01T00:00:00+00:00</time>
        <ele>1898.0</ele>
      </trkpt>
      <trkpt lat="44.13299918991786" lon="7.2437427272870245">
        <time>1970-01-01T00:00:00+00:00</time>
        <ele>1899.0</ele>
      </trkpt>
      <trkpt lat="44.13301891989048" lon="7.243493636382699">
        <time>1970-01-01T00:00:00+00:00</time>
        <ele>1900.0</ele>
      </trkpt>
      <trkpt lat="44.13302" lon="7.24348">
        <time>1970-01-01T00:00:00+00:00</time>
        <ele>1900.0</ele>
      </trkpt>
      <trkpt lat="44.13302" lon="7.24348">
        <time>1970-01-01T00:00:00+00:00</time>
        <ele>1900.0</ele>
      </trkpt>
      <trkpt lat="44.13316680445788" lon="7.243335206562095">
        <time>1970-01-01T00:00:00+00:00</time>
        <ele>1900.0</ele>
      </trkpt>
      <trkpt lat="44.133313608915756" lon="7.243190413124189">
        <time>1970-01-01T00:00:00+00:00</time>
        <ele>1902.0</ele>
      </trkpt>
      <trkpt lat="44.133460413373626" lon="7.243045619686285">
        <time>1970-01-01T00:00:00+00:00</time>
        <ele>1905.0</ele>
      </trkpt>
      <trkpt lat="44.1336072178315" lon="7.242900826248379">
        <time>1970-01-01T00:00:00+00:00</time>
        <ele>1908.0</ele>
      </trkpt>
      <trkpt lat="44.13375" lon="7.24276">
        <time>1970-01-01T00:00:00+00:00</time>
        <ele>1912.0</ele>
      </trkpt>
      <trkpt lat="44.13375" lon="7.24276">
        <time>1970-01-01T00:00:00+00:00</time>
        <ele>1912.0</ele>
      </trkpt>
      <trkpt lat="44.133892517966615" lon="7.242607117090354">
        <time>1970-01-01T00:00:00+00:00</time>
        <ele>1915.0</ele>
      </trkpt>
      <trkpt lat="44.13403503593324" lon="7.242454234180709">
        <time>1970-01-01T00:00:00+00:00</time>
        <ele>1917.0</ele>
      </trkpt>
      <trkpt lat="44.13417755389986" lon="7.242301351271062">
        <time>1970-01-01T00:00:00+00:00</time>
        <ele>1919.0</ele>
      </trkpt>
      <trkpt lat="44.1343" lon="7.24217">
        <time>1970-01-01T00:00:00+00:00</time>
        <ele>1920.0</ele>
      </trkpt>
      <trkpt lat="44.1343" lon="7.24217">
        <time>1970-01-01T00:00:00+00:00</time>
        <ele>1920.0</ele>
      </trkpt>
      <trkpt lat="44.13441645604905" lon="7.241979012079552">
        <time>1970-01-01T00:00:00+00:00</time>
        <ele>1921.0</ele>
      </trkpt>
      <trkpt lat="44.1345329120981" lon="7.241788024159106">
        <time>1970-01-01T00:00:00+00:00</time>
        <ele>1922.0</ele>
      </trkpt>
      <trkpt lat="44.13455" lon="7.24176">
        <time>1970-01-01T00:00:00+00:00</time>
        <ele>1923.0</ele>
      </trkpt>
      <trkpt lat="44.13455" lon="7.24176">
        <time>1970-01-01T00:00:00+00:00</time>
        <ele>1923.0</ele>
      </trkpt>
      <trkpt lat="44.13460583497345" lon="7.241521770779958">
        <time>1970-01-01T00:00:00+00:00</time>
        <ele>1924.0</ele>
      </trkpt>
      <trkpt lat="44.1346616699469" lon="7.241283541559915">
        <time>1970-01-01T00:00:00+00:00</time>
        <ele>1926.0</ele>
      </trkpt>
      <trkpt lat="44.1347" lon="7.24112">
        <time>1970-01-01T00:00:00+00:00</time>
        <ele>1927.0</ele>
      </trkpt>
      <trkpt lat="44.1347" lon="7.24112">
        <time>1970-01-01T00:00:00+00:00</time>
        <ele>1927.0</ele>
      </trkpt>
      <trkpt lat="44.13468497835918" lon="7.24087026522138">
        <time>1970-01-01T00:00:00+00:00</time>
        <ele>1931.0</ele>
      </trkpt>
      <trkpt lat="44.13466995671836" lon="7.240620530442759">
        <time>1970-01-01T00:00:00+00:00</time>
        <ele>1934.0</ele>
      </trkpt>
      <trkpt lat="44.13465493507754" lon="7.2403707956641385">
        <time>1970-01-01T00:00:00+00:00</time>
        <ele>1936.0</ele>
      </trkpt>
      <trkpt lat="44.13463991343672" lon="7.240121060885517">
        <time>1970-01-01T00:00:00+00:00</time>
        <ele>1938.0</ele>
      </trkpt>
      <trkpt lat="44.1346248917959" lon="7.239871326106898">
        <time>1970-01-01T00:00:00+00:00</time>
        <ele>1940.0</ele>
      </trkpt>
      <trkpt lat="44.13462" lon="7.23979">
        <time>1970-01-01T00:00:00+00:00</time>
        <ele>1941.0</ele>
      </trkpt>
      <trkpt lat="44.13462" lon="7.23979">
        <time>1970-01-01T00:00:00+00:00</time>
        <ele>1941.0</ele>
      </trkpt>
      <trkpt lat="44.134752500203646" lon="7.23962052299533">
        <time>1970-01-01T00:00:00+00:00</time>
        <ele>1941.0</ele>
      </trkpt>
      <trkpt lat="44.1348850004073" lon="7.239451045990661">
        <time>1970-01-01T00:00:00+00:00</time>
        <ele>1942.0</ele>
      </trkpt>
      <trkpt lat="44.13501750061095" lon="7.239281568985993">
        <time>1970-01-01T00:00:00+00:00</time>
        <ele>1944.0</ele>
      </trkpt>
      <trkpt lat="44.13505" lon="7.23924">
        <time>1970-01-01T00:00:00+00:00</time>
        <ele>1945.0</ele>
      </trkpt>
      <trkpt lat="44.13505" lon="7.23924">
        <time>1970-01-01T00:00:00+00:00</time>
        <ele>1945.0</ele>
      </trkpt>
      <trkpt lat="44.13513756356144" lon="7.239021091096387">
        <time>1970-01-01T00:00:00+00:00</time>
        <ele>1947.0</ele>
      </trkpt>
      <trkpt lat="44.13522512712289" lon="7.2388021821927735">
        <time>1970-01-01T00:00:00+00:00</time>
        <ele>1949.0</ele>
      </trkpt>
      <trkpt lat="44.13523" lon="7.23879">
        <time>1970-01-01T00:00:00+00:00</time>
        <ele>1950.0</ele>
      </trkpt>
      <trkpt lat="44.13523" lon="7.23879">
        <time>1970-01-01T00:00:00+00:00</time>
        <ele>1950.0</ele>
      </trkpt>
      <trkpt lat="44.13527828293049" lon="7.238548585347537">
        <time>1970-01-01T00:00:00+00:00</time>
        <ele>1952.0</ele>
      </trkpt>
      <trkpt lat="44.135326565860986" lon="7.238307170695073">
        <time>1970-01-01T00:00:00+00:00</time>
        <ele>1955.0</ele>
      </trkpt>
      <trkpt lat="44.13537484879148" lon="7.238065756042609">
        <time>1970-01-01T00:00:00+00:00</time>
        <ele>1957.0</ele>
      </trkpt>
      <trkpt lat="44.13541" lon="7.23789">
        <time>1970-01-01T00:00:00+00:00</time>
        <ele>1958.0</ele>
      </trkpt>
      <trkpt lat="44.13541" lon="7.23789">
        <time>1970-01-01T00:00:00+00:00</time>
        <ele>1958.0</ele>
      </trkpt>
      <trkpt lat="44.13548383167874" lon="7.237661473375345">
        <time>1970-01-01T00:00:00+00:00</time>
        <ele>1959.0</ele>
      </trkpt>
      <trkpt lat="44.135557663357474" lon="7.23743294675069">
        <time>1970-01-01T00:00:00+00:00</time>
        <ele>1962.0</ele>
      </trkpt>
      <trkpt lat="44.13562" lon="7.23724">
        <time>1970-01-01T00:00:00+00:00</time>
        <ele>1964.0</ele>
      </trkpt>
      <trkpt lat="44.13562" lon="7.23724">
        <time>1970-01-01T00:00:00+00:00</time>
        <ele>1964.0</ele>
      </trkpt>
      <trkpt lat="44.13568911212373" lon="7.23700862462925">
        <time>1970-01-01T00:00:00+00:00</time>
        <ele>1966.0</ele>
      </trkpt>
      <trkpt lat="44.13575822424746" lon="7.2367772492585">
        <time>1970-01-01T00:00:00+00:00</time>
        <ele>1969.0</ele>
      </trkpt>
      <trkpt lat="44.135827336371186" lon="7.236545873887751">
        <time>1970-01-01T00:00:00+00:00</time>
        <ele>1971.0</ele>
      </trkpt>
      <trkpt lat="44.13585" lon="7.23647">
        <time>1970-01-01T00:00:00+00:00</time>
        <ele>1971.0</ele>
      </trkpt>
      <trkpt lat="44.13585" lon="7.23647">
        <time>1970-01-01T00:00:00+00:00</time>
        <ele>1971.0</ele>
      </trkpt>
      <trkpt lat="44.13593292537715" lon="7.2362476092158055">
        <time>1970-01-01T00:00:00+00:00</time>
        <ele>1972.0</ele>
      </trkpt>
      <trkpt lat="44.13601585075431" lon="7.236025218431613">
        <time>1970-01-01T00:00:00+00:00</time>
        <ele>1973.0</ele>
      </trkpt>
      <trkpt lat="44.13607" lon="7.23588">
        <time>1970-01-01T00:00:00+00:00</time>
        <ele>1974.0</ele>
      </trkpt>
      <trkpt lat="44.13607" lon="7.23588">
        <time>1970-01-01T00:00:00+00:00</time>
        <ele>1974.0</ele>
      </trkpt>
      <trkpt lat="44.136154329318835" lon="7.235658635538044">
        <time>1970-01-01T00:00:00+00:00</time>
        <ele>1976.0</ele>
      </trkpt>
      <trkpt lat="44.13623865863768" lon="7.235437271076091">
        <time>1970-01-01T00:00:00+00:00</time>
        <ele>1977.0</ele>
      </trkpt>
      <trkpt lat="44.13632298795652" lon="7.235215906614135">
        <time>1970-01-01T00:00:00+00:00</time>
        <ele>1980.0</ele>
      </trkpt>
      <trkpt lat="44.13639" lon="7.23504">
        <time>1970-01-01T00:00:00+00:00</time>
        <ele>1982.0</ele>
      </trkpt>
      <trkpt lat="44.13639" lon="7.23504">
        <time>1970-01-01T00:00:00+00:00</time>
        <ele>1982.0</ele>
      </trkpt>
      <trkpt lat="44.13642636195455" lon="7.234794556806778">
        <time>1970-01-01T00:00:00+00:00</time>
        <ele>1985.0</ele>
      </trkpt>
      <trkpt lat="44.136462723909105" lon="7.234549113613559">
        <time>1970-01-01T00:00:00+00:00</time>
        <ele>1988.0</ele>
      </trkpt>
      <trkpt lat="44.136499085863655" lon="7.2343036704203385">
        <time>1970-01-01T00:00:00+00:00</time>
        <ele>1992.0</ele>
      </trkpt>
      <trkpt lat="44.136535447818204" lon="7.234058227227118">
        <time>1970-01-01T00:00:00+00:00</time>
        <ele>1997.0</ele>
      </trkpt>
      <trkpt lat="44.13655" lon="7.23396">
        <time>1970-01-01T00:00:00+00:00</time>
        <ele>1999.0</ele>
      </trkpt>
      <trkpt lat="44.13655" lon="7.23396">
        <time>1970-01-01T00:00:00+00:00</time>
        <ele>1999.0</ele>
      </trkpt>
      <trkpt lat="44.13672005676344" lon="7.23387837275355">
        <time>1970-01-01T00:00:00+00:00</time>
        <ele>1998.0</ele>
      </trkpt>
      <trkpt lat="44.13689011352688" lon="7.233796745507099">
        <time>1970-01-01T00:00:00+00:00</time>
        <ele>1999.0</ele>
      </trkpt>
      <trkpt lat="44.13705" lon="7.23372">
        <time>1970-01-01T00:00:00+00:00</time>
        <ele>2001.0</ele>
      </trkpt>
      <trkpt lat="44.13705" lon="7.23372">
        <time>1970-01-01T00:00:00+00:00</time>
        <ele>2001.0</ele>
      </trkpt>
      <trkpt lat="44.13719208083071" lon="7.233873679265866">
        <time>1970-01-01T00:00:00+00:00</time>
        <ele>2002.0</ele>
      </trkpt>
      <trkpt lat="44.137334161661414" lon="7.2340273585317325">
        <time>1970-01-01T00:00:00+00:00</time>
        <ele>2009.0</ele>
      </trkpt>
      <trkpt lat="44.13747624249213" lon="7.234181037797599">
        <time>1970-01-01T00:00:00+00:00</time>
        <ele>2017.0</ele>
      </trkpt>
      <trkpt lat="44.13754" lon="7.23425">
        <time>1970-01-01T00:00:00+00:00</time>
        <ele>2021.0</ele>
      </trkpt>
      <trkpt lat="44.13754" lon="7.23425">
        <time>1970-01-01T00:00:00+00:00</time>
        <ele>2021.0</ele>
      </trkpt>
      <trkpt lat="44.13756201228426" lon="7.234498738812196">
        <time>1970-01-01T00:00:00+00:00</time>
        <ele>2020.0</ele>
      </trkpt>
      <trkpt lat="44.13758402456853" lon="7.23474747762439">
        <time>1970-01-01T00:00:00+00:00</time>
        <ele>2021.0</ele>
      </trkpt>
      <trkpt lat="44.137606036852794" lon="7.234996216436585">
        <time>1970-01-01T00:00:00+00:00</time>
        <ele>2022.0</ele>
      </trkpt>
      <trkpt lat="44.13762804913706" lon="7.235244955248779">
        <time>1970-01-01T00:00:00+00:00</time>
        <ele>2023.0</ele>
      </trkpt>
      <trkpt lat="44.13764" lon="7.23538">
        <time>1970-01-01T00:00:00+00:00</time>
        <ele>2024.0</ele>
      </trkpt>
      <trkpt lat="44.13764" lon="7.23538">
        <time>1970-01-01T00:00:00+00:00</time>
        <ele>2024.0</ele>
      </trkpt>
      <trkpt lat="44.137795671702406" lon="7.235505541695489">
        <time>1970-01-01T00:00:00+00:00</time>
        <ele>2026.0</ele>
      </trkpt>
      <trkpt lat="44.13795" lon="7.23563">
        <time>1970-01-01T00:00:00+00:00</time>
        <ele>2027.0</ele>
      </trkpt>
      <trkpt lat="44.13795" lon="7.23563">
        <time>1970-01-01T00:00:00+00:00</time>
        <ele>2027.0</ele>
      </trkpt>
      <trkpt lat="44.13810985143138" lon="7.23551510678369">
        <time>1970-01-01T00:00:00+00:00</time>
        <ele>2025.0</ele>
      </trkpt>
      <trkpt lat="44.13826970286278" lon="7.235400213567381">
        <time>1970-01-01T00:00:00+00:00</time>
        <ele>2023.0</ele>
      </trkpt>
      <trkpt lat="44.13842955429416" lon="7.235285320351069">
        <time>1970-01-01T00:00:00+00:00</time>
        <ele>2022.0</ele>
      </trkpt>
      <trkpt lat="44.138589405725554" lon="7.23517042713476">
        <time>1970-01-01T00:00:00+00:00</time>
        <ele>2022.0</ele>
      </trkpt>
      <trkpt lat="44.138749257156945" lon="7.23505553391845">
        <time>1970-01-01T00:00:00+00:00</time>
        <ele>2022.0</ele>
      </trkpt>
      <trkpt lat="44.13890910858833" lon="7.23494064070214">
        <time>1970-01-01T00:00:00+00:00</time>
        <ele>2022.0</ele>
      </trkpt>
      <trkpt lat="44.13891" lon="7.23494">
        <time>1970-01-01T00:00:00+00:00</time>
        <ele>2022.0</ele>
      </trkpt>
      <trkpt lat="44.13891" lon="7.23494">
        <time>1970-01-01T00:00:00+00:00</time>
        <ele>2022.0</ele>
      </trkpt>
      <trkpt lat="44.13907618385681" lon="7.234844124697997">
        <time>1970-01-01T00:00:00+00:00</time>
        <ele>2022.0</ele>
      </trkpt>
      <trkpt lat="44.139242367713614" lon="7.2347482493959925">
        <time>1970-01-01T00:00:00+00:00</time>
        <ele>2021.0</ele>
      </trkpt>
      <trkpt lat="44.13940855157042" lon="7.23465237409399">
        <time>1970-01-01T00:00:00+00:00</time>
        <ele>2021.0</ele>
      </trkpt>
      <trkpt lat="44.139574735427225" lon="7.234556498791987">
        <time>1970-01-01T00:00:00+00:00</time>
        <ele>2024.0</ele>
      </trkpt>
      <trkpt lat="44.13969" lon="7.23449">
        <time>1970-01-01T00:00:00+00:00</time>
        <ele>2028.0</ele>
      </trkpt>
      <trkpt lat="44.13969" lon="7.23449">
        <time>1970-01-01T00:00:00+00:00</time>
        <ele>2028.0</ele>
      </trkpt>
      <trkpt lat="44.1397046937664" lon="7.234240205971327">
        <time>1970-01-01T00:00:00+00:00</time>
        <ele>2020.0</ele>
      </trkpt>
      <trkpt lat="44.139719387532786" lon="7.233990411942653">
        <time>1970-01-01T00:00:00+00:00</time>
        <ele>2013.0</ele>
      </trkpt>
      <trkpt lat="44.13973408129918" lon="7.233740617913979">
        <time>1970-01-01T00:00:00+00:00</time>
        <ele>2007.0</ele>
      </trkpt>
      <trkpt lat="44.13974" lon="7.23364">
        <time>1970-01-01T00:00:00+00:00</time>
        <ele>2005.0</ele>
      </trkpt>
      <trkpt lat="44.13974" lon="7.23364">
        <time>1970-01-01T00:00:00+00:00</time>
        <ele>2005.0</ele>
      </trkpt>
      <trkpt lat="44.1398779888732" lon="7.233800763735767">
        <time>1970-01-01T00:00:00+00:00</time>
        <ele>2016.0</ele>
      </trkpt>
      <trkpt lat="44.1400159777464" lon="7.233961527471531">
        <time>1970-01-01T00:00:00+00:00</time>
        <ele>2028.0</ele>
      </trkpt>
      <trkpt lat="44.1401539666196" lon="7.2341222912072976">
        <time>1970-01-01T00:00:00+00:00</time>
        <ele>2040.0</ele>
      </trkpt>
      <trkpt lat="44.1402919554928" lon="7.234283054943063">
        <time>1970-01-01T00:00:00+00:00</time>
        <ele>2047.0</ele>
      </trkpt>
      <trkpt lat="44.140429944366" lon="7.2344438186788285">
        <time>1970-01-01T00:00:00+00:00</time>
        <ele>2051.0</ele>
      </trkpt>
      <trkpt lat="44.1405679332392" lon="7.234604582414594">
        <time>1970-01-01T00:00:00+00:00</time>
        <ele>2052.0</ele>
      </trkpt>
      <trkpt lat="44.140705922112396" lon="7.23476534615036">
        <time>1970-01-01T00:00:00+00:00</time>
        <ele>2051.0</ele>
      </trkpt>
      <trkpt lat="44.14077" lon="7.23484">
        <time>1970-01-01T00:00:00+00:00</time>
        <ele>2050.0</ele>
      </trkpt>
      <trkpt lat="44.14077" lon="7.23484">
        <time>1970-01-01T00:00:00+00:00</time>
        <ele>2050.0</ele>
      </trkpt>
      <trkpt lat="44.14094931066858" lon="7.2348596504842275">
        <time>1970-01-01T00:00:00+00:00</time>
        <ele>2044.0</ele>
      </trkpt>
      <trkpt lat="44.14112862133716" lon="7.234879300968456">
        <time>1970-01-01T00:00:00+00:00</time>
        <ele>2041.0</ele>
      </trkpt>
      <trkpt lat="44.141307932005745" lon="7.234898951452684">
        <time>1970-01-01T00:00:00+00:00</time>
        <ele>2041.0</ele>
      </trkpt>
      <trkpt lat="44.14148724267432" lon="7.234918601936911">
        <time>1970-01-01T00:00:00+00:00</time>
        <ele>2043.0</ele>
      </trkpt>
      <trkpt lat="44.1415" lon="7.23492">
        <time>1970-01-01T00:00:00+00:00</time>
        <ele>2043.0</ele>
      </trkpt>
      <trkpt lat="44.1415" lon="7.23492">
        <time>1970-01-01T00:00:00+00:00</time>
        <ele>2043.0</ele>
      </trkpt>
      <trkpt lat="44.141676844487435" lon="7.234965735643301">
        <time>1970-01-01T00:00:00+00:00</time>
        <ele>2045.0</ele>
      </trkpt>
      <trkpt lat="44.14185368897486" lon="7.235011471286603">
        <time>1970-01-01T00:00:00+00:00</time>
        <ele>2046.0</ele>
      </trkpt>
      <trkpt lat="44.14203053346229" lon="7.235057206929905">
        <time>1970-01-01T00:00:00+00:00</time>
        <ele>2047.0</ele>
      </trkpt>
      <trkpt lat="44.14208" lon="7.23507">
        <time>1970-01-01T00:00:00+00:00</time>
        <ele>2047.0</ele>
      </trkpt>
      <trkpt lat="44.14208" lon="7.23507">
        <time>1970-01-01T00:00:00+00:00</time>
        <ele>2047.0</ele>
      </trkpt>
      <trkpt lat="44.142258039986274" lon="7.235105607997255">
        <time>1970-01-01T00:00:00+00:00</time>
        <ele>2046.0</ele>
      </trkpt>
      <trkpt lat="44.142436079972555" lon="7.235141215994512">
        <time>1970-01-01T00:00:00+00:00</time>
        <ele>2045.0</ele>
      </trkpt>
      <trkpt lat="44.142614119958836" lon="7.235176823991766">
        <time>1970-01-01T00:00:00+00:00</time>
        <ele>2046.0</ele>
      </trkpt>
      <trkpt lat="44.14279215994512" lon="7.235212431989022">
        <time>1970-01-01T00:00:00+00:00</time>
        <ele>2048.0</ele>
      </trkpt>
      <trkpt lat="44.14297019993138" lon="7.235248039986277">
        <time>1970-01-01T00:00:00+00:00</time>
        <ele>2049.0</ele>
      </trkpt>
      <trkpt lat="44.14298" lon="7.23525">
        <time>1970-01-01T00:00:00+00:00</time>
        <ele>2049.0</ele>
      </trkpt>
      <trkpt lat="44.14298" lon="7.23525">
        <time>1970-01-01T00:00:00+00:00</time>
        <ele>2049.0</ele>
      </trkpt>
      <trkpt lat="44.143142649436584" lon="7.235142993791722">
        <time>1970-01-01T00:00:00+00:00</time>
        <ele>2047.0</ele>
      </trkpt>
      <trkpt lat="44.143305298873166" lon="7.235035987583445">
        <time>1970-01-01T00:00:00+00:00</time>
        <ele>2047.0</ele>
      </trkpt>
      <trkpt lat="44.14346794830975" lon="7.234928981375168">
        <time>1970-01-01T00:00:00+00:00</time>
        <ele>2048.0</ele>
      </trkpt>
      <trkpt lat="44.14363059774633" lon="7.234821975166891">
        <time>1970-01-01T00:00:00+00:00</time>
        <ele>2049.0</ele>
      </trkpt>
      <trkpt lat="44.14374" lon="7.23475">
        <time>1970-01-01T00:00:00+00:00</time>
        <ele>2049.0</ele>
      </trkpt>
      <trkpt lat="44.14374" lon="7.23475">
        <time>1970-01-01T00:00:00+00:00</time>
        <ele>2049.0</ele>
      </trkpt>
      <trkpt lat="44.14384981439663" lon="7.234948510640063">
        <time>1970-01-01T00:00:00+00:00</time>
        <ele>2055.0</ele>
      </trkpt>
      <trkpt lat="44.143959628793255" lon="7.235147021280125">
        <time>1970-01-01T00:00:00+00:00</time>
        <ele>2060.0</ele>
      </trkpt>
      <trkpt lat="44.144" lon="7.23522">
        <time>1970-01-01T00:00:00+00:00</time>
        <ele>2062.0</ele>
      </trkpt>
      <trkpt lat="44.144" lon="7.23522">
        <time>1970-01-01T00:00:00+00:00</time>
        <ele>2062.0</ele>
      </trkpt>
      <trkpt lat="44.144104283380685" lon="7.235424221620501">
        <time>1970-01-01T00:00:00+00:00</time>
        <ele>2067.0</ele>
      </trkpt>
      <trkpt lat="44.144208566761364" lon="7.235628443241001">
        <time>1970-01-01T00:00:00+00:00</time>
        <ele>2073.0</ele>
      </trkpt>
      <trkpt lat="44.14424" lon="7.23569">
        <time>1970-01-01T00:00:00+00:00</time>
        <ele>2075.0</ele>
      </trkpt>
      <trkpt lat="44.14424" lon="7.23569">
        <time>1970-01-01T00:00:00+00:00</time>
        <ele>2075.0</ele>
      </trkpt>
      <trkpt lat="44.144359876364234" lon="7.235876866097195">
        <time>1970-01-01T00:00:00+00:00</time>
        <ele>2079.0</ele>
      </trkpt>
      <trkpt lat="44.14447975272848" lon="7.236063732194392">
        <time>1970-01-01T00:00:00+00:00</time>
        <ele>2083.0</ele>
      </trkpt>
      <trkpt lat="44.14458" lon="7.23622">
        <time>1970-01-01T00:00:00+00:00</time>
        <ele>2088.0</ele>
      </trkpt>
      <trkpt lat="44.14458" lon="7.23622">
        <time>1970-01-01T00:00:00+00:00</time>
        <ele>2088.0</ele>
      </trkpt>
      <trkpt lat="44.1446968157342" lon="7.2364105940926375">
        <time>1970-01-01T00:00:00+00:00</time>
        <ele>2094.0</ele>
      </trkpt>
      <trkpt lat="44.14477" lon="7.23653">
        <time>1970-01-01T00:00:00+00:00</time>
        <ele>2098.0</ele>
      </trkpt>
      <trkpt lat="44.14477" lon="7.23653">
        <time>1970-01-01T00:00:00+00:00</time>
        <ele>2098.0</ele>
      </trkpt>
      <trkpt lat="44.144936988980845" lon="7.236623128470086">
        <time>1970-01-01T00:00:00+00:00</time>
        <ele>2104.0</ele>
      </trkpt>
      <trkpt lat="44.14510397796169" lon="7.236716256940172">
        <time>1970-01-01T00:00:00+00:00</time>
        <ele>2111.0</ele>
      </trkpt>
      <trkpt lat="44.14527096694253" lon="7.2368093854102575">
        <time>1970-01-01T00:00:00+00:00</time>
        <ele>2118.0</ele>
      </trkpt>
      <trkpt lat="44.14529" lon="7.23682">
        <time>1970-01-01T00:00:00+00:00</time>
        <ele>2119.0</ele>
      </trkpt>
      <trkpt lat="44.14529" lon="7.23682">
        <time>1970-01-01T00:00:00+00:00</time>
        <ele>2119.0</ele>
      </trkpt>
      <trkpt lat="44.14544360133784" lon="7.236950416230238">
        <time>1970-01-01T00:00:00+00:00</time>
        <ele>2126.0</ele>
      </trkpt>
      <trkpt lat="44.145597202675674" lon="7.2370808324604745">
        <time>1970-01-01T00:00:00+00:00</time>
        <ele>2131.0</ele>
      </trkpt>
      <trkpt lat="44.1457508040135" lon="7.237211248690711">
        <time>1970-01-01T00:00:00+00:00</time>
        <ele>2136.0</ele>
      </trkpt>
      <trkpt lat="44.14582" lon="7.23727">
        <time>1970-01-01T00:00:00+00:00</time>
        <ele>2137.0</ele>
      </trkpt>
      <trkpt lat="44.14582" lon="7.23727">
        <time>1970-01-01T00:00:00+00:00</time>
        <ele>2137.0</ele>
      </trkpt>
      <trkpt lat="44.145831909886425" lon="7.237520107614997">
        <time>1970-01-01T00:00:00+00:00</time>
        <ele>2138.0</ele>
      </trkpt>
      <trkpt lat="44.14584" lon="7.23769">
        <time>1970-01-01T00:00:00+00:00</time>
        <ele>2139.0</ele>
      </trkpt>
      <trkpt lat="44.14584" lon="7.23769">
        <time>1970-01-01T00:00:00+00:00</time>
        <ele>2139.0</ele>
      </trkpt>
      <trkpt lat="44.14585427810489" lon="7.237939866835546">
        <time>1970-01-01T00:00:00+00:00</time>
        <ele>2141.0</ele>
      </trkpt>
      <trkpt lat="44.14586855620978" lon="7.238189733671094">
        <time>1970-01-01T00:00:00+00:00</time>
        <ele>2144.0</ele>
      </trkpt>
      <trkpt lat="44.14588" lon="7.23839">
        <time>1970-01-01T00:00:00+00:00</time>
        <ele>2148.0</ele>
      </trkpt>
      <trkpt lat="44.14588" lon="7.23839">
        <time>1970-01-01T00:00:00+00:00</time>
        <ele>2148.0</ele>
      </trkpt>
      <trkpt lat="44.14596704408829" lon="7.2386093511024905">
        <time>1970-01-01T00:00:00+00:00</time>
        <ele>2154.0</ele>
      </trkpt>
      <trkpt lat="44.14605408817658" lon="7.238828702204982">
        <time>1970-01-01T00:00:00+00:00</time>
        <ele>2159.0</ele>
      </trkpt>
      <trkpt lat="44.14613" lon="7.23902">
        <time>1970-01-01T00:00:00+00:00</time>
        <ele>2163.0</ele>
      </trkpt>
      <trkpt lat="44.14613" lon="7.23902">
        <time>1970-01-01T00:00:00+00:00</time>
        <ele>2163.0</ele>
      </trkpt>
      <trkpt lat="44.14621161540452" lon="7.239243368475515">
        <time>1970-01-01T00:00:00+00:00</time>
        <ele>2167.0</ele>
      </trkpt>
      <trkpt lat="44.146293230809036" lon="7.23946673695103">
        <time>1970-01-01T00:00:00+00:00</time>
        <ele>2172.0</ele>
      </trkpt>
      <trkpt lat="44.14632" lon="7.23954">
        <time>1970-01-01T00:00:00+00:00</time>
        <ele>2173.0</ele>
      </trkpt>
      <trkpt lat="44.14632" lon="7.23954">
        <time>1970-01-01T00:00:00+00:00</time>
        <ele>2173.0</ele>
      </trkpt>
      <trkpt lat="44.14640985210255" lon="7.239757142581153">
        <time>1970-01-01T00:00:00+00:00</time>
        <ele>2175.0</ele>
      </trkpt>
      <trkpt lat="44.14649970420509" lon="7.239974285162306">
        <time>1970-01-01T00:00:00+00:00</time>
        <ele>2176.0</ele>
      </trkpt>
      <trkpt lat="44.14656" lon="7.24012">
        <time>1970-01-01T00:00:00+00:00</time>
        <ele>2180.0</ele>
      </trkpt>
      <trkpt lat="44.14656" lon="7.24012">
        <time>1970-01-01T00:00:00+00:00</time>
        <ele>2180.0</ele>
      </trkpt>
      <trkpt lat="44.14647001091079" lon="7.240337032509271">
        <time>1970-01-01T00:00:00+00:00</time>
        <ele>2187.0</ele>
      </trkpt>
      <trkpt lat="44.14639" lon="7.24053">
        <time>1970-01-01T00:00:00+00:00</time>
        <ele>2194.0</ele>
      </trkpt>
      <trkpt lat="44.14639" lon="7.24053">
        <time>1970-01-01T00:00:00+00:00</time>
        <ele>2194.0</ele>
      </trkpt>
      <trkpt lat="44.14634547592487" lon="7.2407728585916225">
        <time>1970-01-01T00:00:00+00:00</time>
        <ele>2203.0</ele>
      </trkpt>
      <trkpt lat="44.14630095184974" lon="7.241015717183246">
        <time>1970-01-01T00:00:00+00:00</time>
        <ele>2212.0</ele>
      </trkpt>
      <trkpt lat="44.14628" lon="7.24113">
        <time>1970-01-01T00:00:00+00:00</time>
        <ele>2216.0</ele>
      </trkpt>
      <trkpt lat="44.14628" lon="7.24113">
        <time>1970-01-01T00:00:00+00:00</time>
        <ele>2216.0</ele>
      </trkpt>
      <trkpt lat="44.146346536665675" lon="7.241362878329898">
        <time>1970-01-01T00:00:00+00:00</time>
        <ele>2221.0</ele>
      </trkpt>
      <trkpt lat="44.14641307333137" lon="7.241595756659796">
        <time>1970-01-01T00:00:00+00:00</time>
        <ele>2225.0</ele>
      </trkpt>
      <trkpt lat="44.14642" lon="7.24162">
        <time>1970-01-01T00:00:00+00:00</time>
        <ele>2226.0</ele>
      </trkpt>
      <trkpt lat="44.14642" lon="7.24162">
        <time>1970-01-01T00:00:00+00:00</time>
        <ele>2226.0</ele>
      </trkpt>
      <trkpt lat="44.146506558602496" lon="7.241839725683269">
        <time>1970-01-01T00:00:00+00:00</time>
        <ele>2230.0</ele>
      </trkpt>
      <trkpt lat="44.14655" lon="7.24195">
        <time>1970-01-01T00:00:00+00:00</time>
        <ele>2231.0</ele>
      </trkpt>
      <trkpt lat="44.14655" lon="7.24195">
        <time>1970-01-01T00:00:00+00:00</time>
        <ele>2231.0</ele>
      </trkpt>
      <trkpt lat="44.14660389183565" lon="7.242189145020715">
        <time>1970-01-01T00:00:00+00:00</time>
        <ele>2234.0</ele>
      </trkpt>
      <trkpt lat="44.14665778367131" lon="7.242428290041429">
        <time>1970-01-01T00:00:00+00:00</time>
        <ele>2236.0</ele>
      </trkpt>
      <trkpt lat="44.14671" lon="7.24266">
        <time>1970-01-01T00:00:00+00:00</time>
        <ele>2237.0</ele>
      </trkpt>
      <trkpt lat="44.14671" lon="7.24266">
        <time>1970-01-01T00:00:00+00:00</time>
        <ele>2237.0</ele>
      </trkpt>
      <trkpt lat="44.1467680961631" lon="7.242897225999336">
        <time>1970-01-01T00:00:00+00:00</time>
        <ele>2238.0</ele>
      </trkpt>
      <trkpt lat="44.1468261923262" lon="7.243134451998671">
        <time>1970-01-01T00:00:00+00:00</time>
        <ele>2239.0</ele>
      </trkpt>
      <trkpt lat="44.14683" lon="7.24315">
        <time>1970-01-01T00:00:00+00:00</time>
        <ele>2239.0</ele>
      </trkpt>
      <trkpt lat="44.14683" lon="7.24315">
        <time>1970-01-01T00:00:00+00:00</time>
        <ele>2239.0</ele>
      </trkpt>
      <trkpt lat="44.14696907898925" lon="7.243308947416287">
        <time>1970-01-01T00:00:00+00:00</time>
        <ele>2241.0</ele>
      </trkpt>
      <trkpt lat="44.147108157978494" lon="7.243467894832573">
        <time>1970-01-01T00:00:00+00:00</time>
        <ele>2247.0</ele>
      </trkpt>
      <trkpt lat="44.14718" lon="7.24355">
        <time>1970-01-01T00:00:00+00:00</time>
        <ele>2251.0</ele>
      </trkpt>
      <trkpt lat="44.14718" lon="7.24355">
        <time>1970-01-01T00:00:00+00:00</time>
        <ele>2251.0</ele>
      </trkpt>
      <trkpt lat="44.14724937952187" lon="7.243781265072885">
        <time>1970-01-01T00:00:00+00:00</time>
        <ele>2261.0</ele>
      </trkpt>
      <trkpt lat="44.14731875904373" lon="7.244012530145769">
        <time>1970-01-01T00:00:00+00:00</time>
        <ele>2273.0</ele>
      </trkpt>
      <trkpt lat="44.14733" lon="7.24405">
        <time>1970-01-01T00:00:00+00:00</time>
        <ele>2276.0</ele>
      </trkpt>
      <trkpt lat="44.14733" lon="7.24405">
        <time>1970-01-01T00:00:00+00:00</time>
        <ele>2276.0</ele>
      </trkpt>
      <trkpt lat="44.14718898608376" lon="7.244205601562743">
        <time>1970-01-01T00:00:00+00:00</time>
        <ele>2277.0</ele>
      </trkpt>
      <trkpt lat="44.14704797216753" lon="7.244361203125486">
        <time>1970-01-01T00:00:00+00:00</time>
        <ele>2279.0</ele>
      </trkpt>
      <trkpt lat="44.14704" lon="7.24437">
        <time>1970-01-01T00:00:00+00:00</time>
        <ele>2280.0</ele>
      </trkpt>
      <trkpt lat="44.14704" lon="7.24437">
        <time>1970-01-01T00:00:00+00:00</time>
        <ele>2280.0</ele>
      </trkpt>
      <trkpt lat="44.14704582631035" lon="7.24462053134488">
        <time>1970-01-01T00:00:00+00:00</time>
        <ele>2286.0</ele>
      </trkpt>
      <trkpt lat="44.14705" lon="7.2448">
        <time>1970-01-01T00:00:00+00:00</time>
        <ele>2292.0</ele>
      </trkpt>
      <trkpt lat="44.14705" lon="7.2448">
        <time>1970-01-01T00:00:00+00:00</time>
        <ele>2292.0</ele>
      </trkpt>
      <trkpt lat="44.14719312938905" lon="7.244951803897483">
        <time>1970-01-01T00:00:00+00:00</time>
        <ele>2296.0</ele>
      </trkpt>
      <trkpt lat="44.14733625877811" lon="7.245103607794966">
        <time>1970-01-01T00:00:00+00:00</time>
        <ele>2300.0</ele>
      </trkpt>
      <trkpt lat="44.14738" lon="7.24515">
        <time>1970-01-01T00:00:00+00:00</time>
        <ele>2302.0</ele>
      </trkpt>
      <trkpt lat="44.14738" lon="7.24515">
        <time>1970-01-01T00:00:00+00:00</time>
        <ele>2302.0</ele>
      </trkpt>
      <trkpt lat="44.147492474894236" lon="7.245345608511714">
        <time>1970-01-01T00:00:00+00:00</time>
        <ele>2307.0</ele>
      </trkpt>
      <trkpt lat="44.14760494978847" lon="7.24554121702343">
        <time>1970-01-01T00:00:00+00:00</time>
        <ele>2312.0</ele>
      </trkpt>
      <trkpt lat="44.14761" lon="7.24555">
        <time>1970-01-01T00:00:00+00:00</time>
        <ele>2312.0</ele>
      </trkpt>
      <trkpt lat="44.14761" lon="7.24555">
        <time>1970-01-01T00:00:00+00:00</time>
        <ele>2312.0</ele>
      </trkpt>
      <trkpt lat="44.14778608412528" lon="7.245498878802339">
        <time>1970-01-01T00:00:00+00:00</time>
        <ele>2315.0</ele>
      </trkpt>
      <trkpt lat="44.14792" lon="7.24546">
        <time>1970-01-01T00:00:00+00:00</time>
        <ele>2319.0</ele>
      </trkpt>
      <trkpt lat="44.14792" lon="7.24546">
        <time>1970-01-01T00:00:00+00:00</time>
        <ele>2319.0</ele>
      </trkpt>
      <trkpt lat="44.148007578137396" lon="7.2456789453434896">
        <time>1970-01-01T00:00:00+00:00</time>
        <ele>2322.0</ele>
      </trkpt>
      <trkpt lat="44.14809515627479" lon="7.2458978906869795">
        <time>1970-01-01T00:00:00+00:00</time>
        <ele>2328.0</ele>
      </trkpt>
      <trkpt lat="44.14812" lon="7.24596">
        <time>1970-01-01T00:00:00+00:00</time>
        <ele>2329.0</ele>
      </trkpt>
      <trkpt lat="44.14812" lon="7.24596">
        <time>1970-01-01T00:00:00+00:00</time>
        <ele>2329.0</ele>
      </trkpt>
      <trkpt lat="44.148187857551335" lon="7.246192144254571">
        <time>1970-01-01T00:00:00+00:00</time>
        <ele>2334.0</ele>
      </trkpt>
      <trkpt lat="44.14825571510268" lon="7.246424288509141">
        <time>1970-01-01T00:00:00+00:00</time>
        <ele>2338.0</ele>
      </trkpt>
      <trkpt lat="44.14831" lon="7.24661">
        <time>1970-01-01T00:00:00+00:00</time>
        <ele>2340.0</ele>
      </trkpt>
      <trkpt lat="44.14831" lon="7.24661">
        <time>1970-01-01T00:00:00+00:00</time>
        <ele>2340.0</ele>
      </trkpt>
      <trkpt lat="44.14846639301589" lon="7.246733811137579">
        <time>1970-01-01T00:00:00+00:00</time>
        <ele>2344.0</ele>
      </trkpt>
      <trkpt lat="44.14855" lon="7.2468">
        <time>1970-01-01T00:00:00+00:00</time>
        <ele>2345.0</ele>
      </trkpt>
      <trkpt lat="44.14855" lon="7.2468">
        <time>1970-01-01T00:00:00+00:00</time>
        <ele>2345.0</ele>
      </trkpt>
      <trkpt lat="44.14866868612505" lon="7.246988349720191">
        <time>1970-01-01T00:00:00+00:00</time>
        <ele>2346.0</ele>
      </trkpt>
      <trkpt lat="44.1487873722501" lon="7.247176699440382">
        <time>1970-01-01T00:00:00+00:00</time>
        <ele>2345.0</ele>
      </trkpt>
      <trkpt lat="44.148906058375154" lon="7.247365049160572">
        <time>1970-01-01T00:00:00+00:00</time>
        <ele>2344.0</ele>
      </trkpt>
      <trkpt lat="44.14901" lon="7.24753">
        <time>1970-01-01T00:00:00+00:00</time>
        <ele>2344.0</ele>
      </trkpt>
      <trkpt lat="44.14901" lon="7.24753">
        <time>1970-01-01T00:00:00+00:00</time>
        <ele>2344.0</ele>
      </trkpt>
      <trkpt lat="44.14908852877957" lon="7.247755518546477">
        <time>1970-01-01T00:00:00+00:00</time>
        <ele>2345.0</ele>
      </trkpt>
      <trkpt lat="44.149167057559154" lon="7.247981037092954">
        <time>1970-01-01T00:00:00+00:00</time>
        <ele>2347.0</ele>
      </trkpt>
      <trkpt lat="44.14924558633873" lon="7.248206555639429">
        <time>1970-01-01T00:00:00+00:00</time>
        <ele>2349.0</ele>
      </trkpt>
      <trkpt lat="44.149324115118304" lon="7.248432074185906">
        <time>1970-01-01T00:00:00+00:00</time>
        <ele>2352.0</ele>
      </trkpt>
      <trkpt lat="44.1494" lon="7.24865">
        <time>1970-01-01T00:00:00+00:00</time>
        <ele>2353.0</ele>
      </trkpt>
      <trkpt lat="44.1494" lon="7.24865">
        <time>1970-01-01T00:00:00+00:00</time>
        <ele>2353.0</ele>
      </trkpt>
      <trkpt lat="44.14949312161938" lon="7.248864461911296">
        <time>1970-01-01T00:00:00+00:00</time>
        <ele>2354.0</ele>
      </trkpt>
      <trkpt lat="44.14958624323876" lon="7.249078923822592">
        <time>1970-01-01T00:00:00+00:00</time>
        <ele>2355.0</ele>
      </trkpt>
      <trkpt lat="44.14967936485814" lon="7.249293385733888">
        <time>1970-01-01T00:00:00+00:00</time>
        <ele>2357.0</ele>
      </trkpt>
      <trkpt lat="44.14973" lon="7.24941">
        <time>1970-01-01T00:00:00+00:00</time>
        <ele>2357.0</ele>
      </trkpt>
      <trkpt lat="44.14973" lon="7.24941">
        <time>1970-01-01T00:00:00+00:00</time>
        <ele>2357.0</ele>
      </trkpt>
      <trkpt lat="44.14986126604117" lon="7.24958137510931">
        <time>1970-01-01T00:00:00+00:00</time>
        <ele>2358.0</ele>
      </trkpt>
      <trkpt lat="44.149992532082344" lon="7.249752750218619">
        <time>1970-01-01T00:00:00+00:00</time>
        <ele>2360.0</ele>
      </trkpt>
      <trkpt lat="44.15009" lon="7.24988">
        <time>1970-01-01T00:00:00+00:00</time>
        <ele>2365.0</ele>
      </trkpt>
      <trkpt lat="44.15009" lon="7.24988">
        <time>1970-01-01T00:00:00+00:00</time>
        <ele>2365.0</ele>
      </trkpt>
      <trkpt lat="44.15018284273958" lon="7.250094698835296">
        <time>1970-01-01T00:00:00+00:00</time>
        <ele>2372.0</ele>
      </trkpt>
      <trkpt lat="44.15025" lon="7.25025">
        <time>1970-01-01T00:00:00+00:00</time>
        <ele>2376.0</ele>
      </trkpt>
      <trkpt lat="44.15025" lon="7.25025">
        <time>1970-01-01T00:00:00+00:00</time>
        <ele>2376.0</ele>
      </trkpt>
      <trkpt lat="44.15036911251822" lon="7.250437831278743">
        <time>1970-01-01T00:00:00+00:00</time>
        <ele>2378.0</ele>
      </trkpt>
      <trkpt lat="44.150488225036455" lon="7.250625662557487">
        <time>1970-01-01T00:00:00+00:00</time>
        <ele>2380.0</ele>
      </trkpt>
      <trkpt lat="44.15051" lon="7.25066">
        <time>1970-01-01T00:00:00+00:00</time>
        <ele>2380.0</ele>
      </trkpt>
      <trkpt lat="44.15051" lon="7.25066">
        <time>1970-01-01T00:00:00+00:00</time>
        <ele>2380.0</ele>
      </trkpt>
      <trkpt lat="44.150630876139914" lon="7.250845631214876">
        <time>1970-01-01T00:00:00+00:00</time>
        <ele>2382.0</ele>
      </trkpt>
      <trkpt lat="44.15075175227984" lon="7.251031262429752">
        <time>1970-01-01T00:00:00+00:00</time>
        <ele>2385.0</ele>
      </trkpt>
      <trkpt lat="44.150872628419755" lon="7.251216893644628">
        <time>1970-01-01T00:00:00+00:00</time>
        <ele>2388.0</ele>
      </trkpt>
      <trkpt lat="44.15099350455967" lon="7.251402524859504">
        <time>1970-01-01T00:00:00+00:00</time>
        <ele>2392.0</ele>
      </trkpt>
      <trkpt lat="44.15107" lon="7.25152">
        <time>1970-01-01T00:00:00+00:00</time>
        <ele>2394.0</ele>
      </trkpt>
      <trkpt lat="44.15107" lon="7.25152">
        <time>1970-01-01T00:00:00+00:00</time>
        <ele>2394.0</ele>
      </trkpt>
      <trkpt lat="44.15123929934714" lon="7.251604649673572">
        <time>1970-01-01T00:00:00+00:00</time>
        <ele>2396.0</ele>
      </trkpt>
      <trkpt lat="44.15140859869429" lon="7.251689299347145">
        <time>1970-01-01T00:00:00+00:00</time>
        <ele>2399.0</ele>
      </trkpt>
      <trkpt lat="44.15157789804144" lon="7.251773949020719">
        <time>1970-01-01T00:00:00+00:00</time>
        <ele>2403.0</ele>
      </trkpt>
      <trkpt lat="44.15159" lon="7.25178">
        <time>1970-01-01T00:00:00+00:00</time>
        <ele>2404.0</ele>
      </trkpt>
      <trkpt lat="44.15159" lon="7.25178">
        <time>1970-01-01T00:00:00+00:00</time>
        <ele>2404.0</ele>
      </trkpt>
      <trkpt lat="44.15176578789287" lon="7.251726931956871">
        <time>1970-01-01T00:00:00+00:00</time>
        <ele>2406.0</ele>
      </trkpt>
      <trkpt lat="44.15194157578573" lon="7.251673863913741">
        <time>1970-01-01T00:00:00+00:00</time>
        <ele>2408.0</ele>
      </trkpt>
      <trkpt lat="44.15211736367859" lon="7.251620795870612">
        <time>1970-01-01T00:00:00+00:00</time>
        <ele>2411.0</ele>
      </trkpt>
      <trkpt lat="44.15212" lon="7.25162">
        <time>1970-01-01T00:00:00+00:00</time>
        <ele>2411.0</ele>
      </trkpt>
      <trkpt lat="44.15212" lon="7.25162">
        <time>1970-01-01T00:00:00+00:00</time>
        <ele>2411.0</ele>
      </trkpt>
      <trkpt lat="44.15222283550871" lon="7.251825671017418">
        <time>1970-01-01T00:00:00+00:00</time>
        <ele>2420.0</ele>
      </trkpt>
      <trkpt lat="44.152325671017415" lon="7.252031342034837">
        <time>1970-01-01T00:00:00+00:00</time>
        <ele>2427.0</ele>
      </trkpt>
      <trkpt lat="44.15242850652613" lon="7.2522370130522535">
        <time>1970-01-01T00:00:00+00:00</time>
        <ele>2435.0</ele>
      </trkpt>
      <trkpt lat="44.15249" lon="7.25236">
        <time>1970-01-01T00:00:00+00:00</time>
        <ele>2438.0</ele>
      </trkpt>
      <trkpt lat="44.15249" lon="7.25236">
        <time>1970-01-01T00:00:00+00:00</time>
        <ele>2438.0</ele>
      </trkpt>
      <trkpt lat="44.15249" lon="7.252610686014587">
        <time>1970-01-01T00:00:00+00:00</time>
        <ele>2447.0</ele>
      </trkpt>
      <trkpt lat="44.15249" lon="7.25282">
        <time>1970-01-01T00:00:00+00:00</time>
        <ele>2451.0</ele>
      </trkpt>
      <trkpt lat="44.15249" lon="7.25282">
        <time>1970-01-01T00:00:00+00:00</time>
        <ele>2451.0</ele>
      </trkpt>
      <trkpt lat="44.152659299811624" lon="7.252904649905811">
        <time>1970-01-01T00:00:00+00:00</time>
        <ele>2455.0</ele>
      </trkpt>
      <trkpt lat="44.15282859962325" lon="7.252989299811621">
        <time>1970-01-01T00:00:00+00:00</time>
        <ele>2460.0</ele>
      </trkpt>
      <trkpt lat="44.152997899434865" lon="7.2530739497174315">
        <time>1970-01-01T00:00:00+00:00</time>
        <ele>2464.0</ele>
      </trkpt>
      <trkpt lat="44.15301" lon="7.25308">
        <time>1970-01-01T00:00:00+00:00</time>
        <ele>2465.0</ele>
      </trkpt>
      <trkpt lat="44.15301" lon="7.25308">
        <time>1970-01-01T00:00:00+00:00</time>
        <ele>2465.0</ele>
      </trkpt>
      <trkpt lat="44.15318983928856" lon="7.253075817690963">
        <time>1970-01-01T00:00:00+00:00</time>
        <ele>2469.0</ele>
      </trkpt>
      <trkpt lat="44.15336967857711" lon="7.253071635381928">
        <time>1970-01-01T00:00:00+00:00</time>
        <ele>2474.0</ele>
      </trkpt>
      <trkpt lat="44.15344" lon="7.25307">
        <time>1970-01-01T00:00:00+00:00</time>
        <ele>2477.0</ele>
      </trkpt>
      <trkpt lat="44.15344" lon="7.25307">
        <time>1970-01-01T00:00:00+00:00</time>
        <ele>2477.0</ele>
      </trkpt>
      <trkpt lat="44.15358149768225" lon="7.253224763089955">
        <time>1970-01-01T00:00:00+00:00</time>
        <ele>2480.0</ele>
      </trkpt>
      <trkpt lat="44.15372299536449" lon="7.253379526179909">
        <time>1970-01-01T00:00:00+00:00</time>
        <ele>2483.0</ele>
      </trkpt>
      <trkpt lat="44.15376" lon="7.25342">
        <time>1970-01-01T00:00:00+00:00</time>
        <ele>2484.0</ele>
      </trkpt>
      <trkpt lat="44.15376" lon="7.25342">
        <time>1970-01-01T00:00:00+00:00</time>
        <ele>2484.0</ele>
      </trkpt>
      <trkpt lat="44.153935932868485" lon="7.253472128257329">
        <time>1970-01-01T00:00:00+00:00</time>
        <ele>2491.0</ele>
      </trkpt>
      <trkpt lat="44.15403" lon="7.2535">
        <time>1970-01-01T00:00:00+00:00</time>
        <ele>2495.0</ele>
      </trkpt>
      <trkpt lat="44.15403" lon="7.2535">
        <time>1970-01-01T00:00:00+00:00</time>
        <ele>2495.0</ele>
      </trkpt>
      <trkpt lat="44.15407574514533" lon="7.25374244927024">
        <time>1970-01-01T00:00:00+00:00</time>
        <ele>2496.0</ele>
      </trkpt>
      <trkpt lat="44.15412149029066" lon="7.25398489854048">
        <time>1970-01-01T00:00:00+00:00</time>
        <ele>2502.0</ele>
      </trkpt>
      <trkpt lat="44.15413" lon="7.25403">
        <time>1970-01-01T00:00:00+00:00</time>
        <ele>2503.0</ele>
      </trkpt>
      <trkpt lat="44.15413" lon="7.25403">
        <time>1970-01-01T00:00:00+00:00</time>
        <ele>2503.0</ele>
      </trkpt>
      <trkpt lat="44.154176152350054" lon="7.254272299837763">
        <time>1970-01-01T00:00:00+00:00</time>
        <ele>2509.0</ele>
      </trkpt>
      <trkpt lat="44.154222304700106" lon="7.254514599675526">
        <time>1970-01-01T00:00:00+00:00</time>
        <ele>2514.0</ele>
      </trkpt>
      <trkpt lat="44.15426845705016" lon="7.254756899513289">
        <time>1970-01-01T00:00:00+00:00</time>
        <ele>2521.0</ele>
      </trkpt>
      <trkpt lat="44.15429" lon="7.25487">
        <time>1970-01-01T00:00:00+00:00</time>
        <ele>2525.0</ele>
      </trkpt>
      <trkpt lat="44.15429" lon="7.25487">
        <time>1970-01-01T00:00:00+00:00</time>
        <ele>2525.0</ele>
      </trkpt>
      <trkpt lat="44.15437758537156" lon="7.255088963428906">
        <time>1970-01-01T00:00:00+00:00</time>
        <ele>2533.0</ele>
      </trkpt>
      <trkpt lat="44.15446517074312" lon="7.255307926857811">
        <time>1970-01-01T00:00:00+00:00</time>
        <ele>2541.0</ele>
      </trkpt>
      <trkpt lat="44.15453" lon="7.25547">
        <time>1970-01-01T00:00:00+00:00</time>
        <ele>2546.0</ele>
      </trkpt>
      <trkpt lat="44.15453" lon="7.25547">
        <time>1970-01-01T00:00:00+00:00</time>
        <ele>2546.0</ele>
      </trkpt>
      <trkpt lat="44.15466996130051" lon="7.2556274564630785">
        <time>1970-01-01T00:00:00+00:00</time>
        <ele>2558.0</ele>
      </trkpt>
      <trkpt lat="44.15477" lon="7.25574">
        <time>1970-01-01T00:00:00+00:00</time>
        <ele>2567.0</ele>
      </trkpt>
      <trkpt lat="44.15477" lon="7.25574">
        <time>1970-01-01T00:00:00+00:00</time>
        <ele>2567.0</ele>
      </trkpt>
      <trkpt lat="44.15487651441761" lon="7.255537989897634">
        <time>1970-01-01T00:00:00+00:00</time>
        <ele>2572.0</ele>
      </trkpt>
      <trkpt lat="44.15498302883522" lon="7.25533597979527">
        <time>1970-01-01T00:00:00+00:00</time>
        <ele>2577.0</ele>
      </trkpt>
      <trkpt lat="44.15506" lon="7.25519">
        <time>1970-01-01T00:00:00+00:00</time>
        <ele>2582.0</ele>
      </trkpt>
      <trkpt lat="44.15506" lon="7.25519">
        <time>1970-01-01T00:00:00+00:00</time>
        <ele>2582.0</ele>
      </trkpt>
      <trkpt lat="44.155164430372764" lon="7.255394113910411">
        <time>1970-01-01T00:00:00+00:00</time>
        <ele>2590.0</ele>
      </trkpt>
      <trkpt lat="44.15526886074554" lon="7.255598227820823">
        <time>1970-01-01T00:00:00+00:00</time>
        <ele>2598.0</ele>
      </trkpt>
      <trkpt lat="44.15528" lon="7.25562">
        <time>1970-01-01T00:00:00+00:00</time>
        <ele>2599.0</ele>
      </trkpt>
      <trkpt lat="44.15528" lon="7.25562">
        <time>1970-01-01T00:00:00+00:00</time>
        <ele>2599.0</ele>
      </trkpt>
      <trkpt lat="44.155456909419094" lon="7.255665255897908">
        <time>1970-01-01T00:00:00+00:00</time>
        <ele>2608.0</ele>
      </trkpt>
      <trkpt lat="44.15563381883818" lon="7.255710511795814">
        <time>1970-01-01T00:00:00+00:00</time>
        <ele>2610.0</ele>
      </trkpt>
      <trkpt lat="44.15571" lon="7.25573">
        <time>1970-01-01T00:00:00+00:00</time>
        <ele>2609.0</ele>
      </trkpt>
      <trkpt lat="44.15571" lon="7.25573">
        <time>1970-01-01T00:00:00+00:00</time>
        <ele>2609.0</ele>
      </trkpt>
      <trkpt lat="44.15588735501269" lon="7.255771730591221">
        <time>1970-01-01T00:00:00+00:00</time>
        <ele>2605.0</ele>
      </trkpt>
      <trkpt lat="44.15605" lon="7.25581">
        <time>1970-01-01T00:00:00+00:00</time>
        <ele>2598.0</ele>
      </trkpt>
      <trkpt lat="44.15605" lon="7.25581">
        <time>1970-01-01T00:00:00+00:00</time>
        <ele>2598.0</ele>
      </trkpt>
      <trkpt lat="44.15622929554471" lon="7.25579007827281">
        <time>1970-01-01T00:00:00+00:00</time>
        <ele>2589.0</ele>
      </trkpt>
      <trkpt lat="44.15632" lon="7.25578">
        <time>1970-01-01T00:00:00+00:00</time>
        <ele>2583.0</ele>
      </trkpt>
      <trkpt lat="44.15632" lon="7.25578">
        <time>1970-01-01T00:00:00+00:00</time>
        <ele>2583.0</ele>
      </trkpt>
      <trkpt lat="44.15641033053667" lon="7.255996793288029">
        <time>1970-01-01T00:00:00+00:00</time>
        <ele>2578.0</ele>
      </trkpt>
      <trkpt lat="44.15647" lon="7.25614">
        <time>1970-01-01T00:00:00+00:00</time>
        <ele>2574.0</ele>
      </trkpt>
      <trkpt lat="44.15647" lon="7.25614">
        <time>1970-01-01T00:00:00+00:00</time>
        <ele>2574.0</ele>
      </trkpt>
      <trkpt lat="44.15664172483311" lon="7.256214564730167">
        <time>1970-01-01T00:00:00+00:00</time>
        <ele>2562.0</ele>
      </trkpt>
      <trkpt lat="44.15681344966622" lon="7.256289129460333">
        <time>1970-01-01T00:00:00+00:00</time>
        <ele>2549.0</ele>
      </trkpt>
      <trkpt lat="44.156985174499326" lon="7.256363694190497">
        <time>1970-01-01T00:00:00+00:00</time>
        <ele>2532.0</ele>
      </trkpt>
      <trkpt lat="44.157156899332435" lon="7.256438258920664">
        <time>1970-01-01T00:00:00+00:00</time>
        <ele>2513.0</ele>
      </trkpt>
      <trkpt lat="44.15723" lon="7.25647">
        <time>1970-01-01T00:00:00+00:00</time>
        <ele>2506.0</ele>
      </trkpt>
      <trkpt lat="44.15723" lon="7.25647">
        <time>1970-01-01T00:00:00+00:00</time>
        <ele>2506.0</ele>
      </trkpt>
      <trkpt lat="44.15735539560826" lon="7.256649733705177">
        <time>1970-01-01T00:00:00+00:00</time>
        <ele>2491.0</ele>
      </trkpt>
      <trkpt lat="44.15748079121653" lon="7.256829467410354">
        <time>1970-01-01T00:00:00+00:00</time>
        <ele>2476.0</ele>
      </trkpt>
      <trkpt lat="44.15753" lon="7.2569">
        <time>1970-01-01T00:00:00+00:00</time>
        <ele>2471.0</ele>
      </trkpt>
      <trkpt lat="44.15753" lon="7.2569">
        <time>1970-01-01T00:00:00+00:00</time>
        <ele>2471.0</ele>
      </trkpt>
      <trkpt lat="44.15761331976463" lon="7.257122186039011">
        <time>1970-01-01T00:00:00+00:00</time>
        <ele>2461.0</ele>
      </trkpt>
      <trkpt lat="44.157696639529256" lon="7.257344372078023">
        <time>1970-01-01T00:00:00+00:00</time>
        <ele>2452.0</ele>
      </trkpt>
      <trkpt lat="44.15777" lon="7.25754">
        <time>1970-01-01T00:00:00+00:00</time>
        <ele>2442.0</ele>
      </trkpt>
      <trkpt lat="44.15777" lon="7.25754">
        <time>1970-01-01T00:00:00+00:00</time>
        <ele>2442.0</ele>
      </trkpt>
      <trkpt lat="44.157892437384696" lon="7.257723656077044">
        <time>1970-01-01T00:00:00+00:00</time>
        <ele>2424.0</ele>
      </trkpt>
      <trkpt lat="44.15801487476939" lon="7.257907312154089">
        <time>1970-01-01T00:00:00+00:00</time>
        <ele>2405.0</ele>
      </trkpt>
      <trkpt lat="44.15813731215408" lon="7.258090968231133">
        <time>1970-01-01T00:00:00+00:00</time>
        <ele>2385.0</ele>
      </trkpt>
      <trkpt lat="44.158259749538786" lon="7.258274624308177">
        <time>1970-01-01T00:00:00+00:00</time>
        <ele>2367.0</ele>
      </trkpt>
      <trkpt lat="44.15838218692348" lon="7.258458280385222">
        <time>1970-01-01T00:00:00+00:00</time>
        <ele>2354.0</ele>
      </trkpt>
      <trkpt lat="44.15850462430817" lon="7.258641936462266">
        <time>1970-01-01T00:00:00+00:00</time>
        <ele>2342.0</ele>
      </trkpt>
      <trkpt lat="44.158627061692876" lon="7.25882559253931">
        <time>1970-01-01T00:00:00+00:00</time>
        <ele>2332.0</ele>
      </trkpt>
      <trkpt lat="44.15865" lon="7.25886">
        <time>1970-01-01T00:00:00+00:00</time>
        <ele>2331.0</ele>
      </trkpt>
      <trkpt lat="44.15865" lon="7.25886">
        <time>1970-01-01T00:00:00+00:00</time>
        <ele>2331.0</ele>
      </trkpt>
      <trkpt lat="44.1586025802887" lon="7.259101840527642">
        <time>1970-01-01T00:00:00+00:00</time>
        <ele>2323.0</ele>
      </trkpt>
      <trkpt lat="44.15855516057739" lon="7.259343681055284">
        <time>1970-01-01T00:00:00+00:00</time>
        <ele>2316.0</ele>
      </trkpt>
      <trkpt lat="44.15850774086609" lon="7.259585521582926">
        <time>1970-01-01T00:00:00+00:00</time>
        <ele>2309.0</ele>
      </trkpt>
      <trkpt lat="44.15846032115479" lon="7.259827362110567">
        <time>1970-01-01T00:00:00+00:00</time>
        <ele>2301.0</ele>
      </trkpt>
      <trkpt lat="44.15841290144349" lon="7.260069202638209">
        <time>1970-01-01T00:00:00+00:00</time>
        <ele>2296.0</ele>
      </trkpt>
      <trkpt lat="44.15836548173219" lon="7.260311043165852">
        <time>1970-01-01T00:00:00+00:00</time>
        <ele>2292.0</ele>
      </trkpt>
      <trkpt lat="44.15831806202088" lon="7.260552883693494">
        <time>1970-01-01T00:00:00+00:00</time>
        <ele>2287.0</ele>
      </trkpt>
      <trkpt lat="44.15827064230959" lon="7.260794724221135">
        <time>1970-01-01T00:00:00+00:00</time>
        <ele>2281.0</ele>
      </trkpt>
      <trkpt lat="44.15822322259828" lon="7.261036564748777">
        <time>1970-01-01T00:00:00+00:00</time>
        <ele>2274.0</ele>
      </trkpt>
      <trkpt lat="44.15817580288697" lon="7.261278405276419">
        <time>1970-01-01T00:00:00+00:00</time>
        <ele>2267.0</ele>
      </trkpt>
      <trkpt lat="44.15812838317568" lon="7.2615202458040615">
        <time>1970-01-01T00:00:00+00:00</time>
        <ele>2261.0</ele>
      </trkpt>
      <trkpt lat="44.15808096346437" lon="7.261762086331704">
        <time>1970-01-01T00:00:00+00:00</time>
        <ele>2256.0</ele>
      </trkpt>
      <trkpt lat="44.15803354375307" lon="7.262003926859346">
        <time>1970-01-01T00:00:00+00:00</time>
        <ele>2251.0</ele>
      </trkpt>
      <trkpt lat="44.15798612404177" lon="7.262245767386987">
        <time>1970-01-01T00:00:00+00:00</time>
        <ele>2247.0</ele>
      </trkpt>
      <trkpt lat="44.15793870433047" lon="7.262487607914629">
        <time>1970-01-01T00:00:00+00:00</time>
        <ele>2242.0</ele>
      </trkpt>
      <trkpt lat="44.15789128461917" lon="7.262729448442271">
        <time>1970-01-01T00:00:00+00:00</time>
        <ele>2235.0</ele>
      </trkpt>
      <trkpt lat="44.15785" lon="7.26294">
        <time>1970-01-01T00:00:00+00:00</time>
        <ele>2230.0</ele>
      </trkpt>
      <trkpt lat="44.15785" lon="7.26294">
        <time>1970-01-01T00:00:00+00:00</time>
        <ele>2230.0</ele>
      </trkpt>
      <trkpt lat="44.15783176777103" lon="7.2631894168923505">
        <time>1970-01-01T00:00:00+00:00</time>
        <ele>2227.0</ele>
      </trkpt>
      <trkpt lat="44.157813535542054" lon="7.263438833784702">
        <time>1970-01-01T00:00:00+00:00</time>
        <ele>2221.0</ele>
      </trkpt>
      <trkpt lat="44.15779530331309" lon="7.263688250677053">
        <time>1970-01-01T00:00:00+00:00</time>
        <ele>2214.0</ele>
      </trkpt>
      <trkpt lat="44.15777707108411" lon="7.263937667569403">
        <time>1970-01-01T00:00:00+00:00</time>
        <ele>2208.0</ele>
      </trkpt>
      <trkpt lat="44.15775883885513" lon="7.264187084461753">
        <time>1970-01-01T00:00:00+00:00</time>
        <ele>2199.0</ele>
      </trkpt>
      <trkpt lat="44.15774060662616" lon="7.264436501354104">
        <time>1970-01-01T00:00:00+00:00</time>
        <ele>2189.0</ele>
      </trkpt>
      <trkpt lat="44.157722374397196" lon="7.264685918246455">
        <time>1970-01-01T00:00:00+00:00</time>
        <ele>2179.0</ele>
      </trkpt>
      <trkpt lat="44.15770414216822" lon="7.264935335138805">
        <time>1970-01-01T00:00:00+00:00</time>
        <ele>2170.0</ele>
      </trkpt>
      <trkpt lat="44.15768590993925" lon="7.265184752031156">
        <time>1970-01-01T00:00:00+00:00</time>
        <ele>2160.0</ele>
      </trkpt>
      <trkpt lat="44.15766767771027" lon="7.265434168923506">
        <time>1970-01-01T00:00:00+00:00</time>
        <ele>2152.0</ele>
      </trkpt>
      <trkpt lat="44.1576494454813" lon="7.265683585815857">
        <time>1970-01-01T00:00:00+00:00</time>
        <ele>2145.0</ele>
      </trkpt>
      <trkpt lat="44.15763121325232" lon="7.265933002708207">
        <time>1970-01-01T00:00:00+00:00</time>
        <ele>2133.0</ele>
      </trkpt>
      <trkpt lat="44.157612981023355" lon="7.2661824196005576">
        <time>1970-01-01T00:00:00+00:00</time>
        <ele>2122.0</ele>
      </trkpt>
      <trkpt lat="44.1576" lon="7.26636">
        <time>1970-01-01T00:00:00+00:00</time>
        <ele>2117.0</ele>
      </trkpt>
      <trkpt lat="44.1576" lon="7.26636">
        <time>1970-01-01T00:00:00+00:00</time>
        <ele>2117.0</ele>
      </trkpt>
      <trkpt lat="44.15748856342519" lon="7.266556792249137">
        <time>1970-01-01T00:00:00+00:00</time>
        <ele>2112.0</ele>
      </trkpt>
      <trkpt lat="44.15737712685038" lon="7.266753584498274">
        <time>1970-01-01T00:00:00+00:00</time>
        <ele>2109.0</ele>
      </trkpt>
      <trkpt lat="44.157265690275565" lon="7.2669503767474115">
        <time>1970-01-01T00:00:00+00:00</time>
        <ele>2105.0</ele>
      </trkpt>
      <trkpt lat="44.15715425370075" lon="7.267147168996549">
        <time>1970-01-01T00:00:00+00:00</time>
        <ele>2098.0</ele>
      </trkpt>
      <trkpt lat="44.15713" lon="7.26719">
        <time>1970-01-01T00:00:00+00:00</time>
        <ele>2097.0</ele>
      </trkpt>
      <trkpt lat="44.15713" lon="7.26719">
        <time>1970-01-01T00:00:00+00:00</time>
        <ele>2097.0</ele>
      </trkpt>
      <trkpt lat="44.15709421922832" lon="7.2674356946321845">
        <time>1970-01-01T00:00:00+00:00</time>
        <ele>2084.0</ele>
      </trkpt>
      <trkpt lat="44.157058438456644" lon="7.267681389264368">
        <time>1970-01-01T00:00:00+00:00</time>
        <ele>2070.0</ele>
      </trkpt>
      <trkpt lat="44.15702265768497" lon="7.267927083896552">
        <time>1970-01-01T00:00:00+00:00</time>
        <ele>2060.0</ele>
      </trkpt>
      <trkpt lat="44.15698687691329" lon="7.268172778528736">
        <time>1970-01-01T00:00:00+00:00</time>
        <ele>2052.0</ele>
      </trkpt>
      <trkpt lat="44.15698" lon="7.26822">
        <time>1970-01-01T00:00:00+00:00</time>
        <ele>2051.0</ele>
      </trkpt>
      <trkpt lat="44.15698" lon="7.26822">
        <time>1970-01-01T00:00:00+00:00</time>
        <ele>2051.0</ele>
      </trkpt>
      <trkpt lat="44.15692158094831" lon="7.2684571126215864">
        <time>1970-01-01T00:00:00+00:00</time>
        <ele>2046.0</ele>
      </trkpt>
      <trkpt lat="44.15686316189661" lon="7.268694225243172">
        <time>1970-01-01T00:00:00+00:00</time>
        <ele>2040.0</ele>
      </trkpt>
      <trkpt lat="44.15681" lon="7.26891">
        <time>1970-01-01T00:00:00+00:00</time>
        <ele>2033.0</ele>
      </trkpt>
      <trkpt lat="44.15681" lon="7.26891">
        <time>1970-01-01T00:00:00+00:00</time>
        <ele>2033.0</ele>
      </trkpt>
      <trkpt lat="44.156631327923165" lon="7.26888118192309">
        <time>1970-01-01T00:00:00+00:00</time>
        <ele>2038.0</ele>
      </trkpt>
      <trkpt lat="44.1565" lon="7.26886">
        <time>1970-01-01T00:00:00+00:00</time>
        <ele>2042.0</ele>
      </trkpt>
      <trkpt lat="44.1565" lon="7.26886">
        <time>1970-01-01T00:00:00+00:00</time>
        <ele>2042.0</ele>
      </trkpt>
      <trkpt lat="44.156521955446465" lon="7.268611171606743">
        <time>1970-01-01T00:00:00+00:00</time>
        <ele>2050.0</ele>
      </trkpt>
      <trkpt lat="44.15654391089293" lon="7.268362343213486">
        <time>1970-01-01T00:00:00+00:00</time>
        <ele>2056.0</ele>
      </trkpt>
      <trkpt lat="44.15656" lon="7.26818">
        <time>1970-01-01T00:00:00+00:00</time>
        <ele>2060.0</ele>
      </trkpt>
      <trkpt lat="44.15656" lon="7.26818">
        <time>1970-01-01T00:00:00+00:00</time>
        <ele>2060.0</ele>
      </trkpt>
      <trkpt lat="44.15661735546328" lon="7.267942384509238">
        <time>1970-01-01T00:00:00+00:00</time>
        <ele>2066.0</ele>
      </trkpt>
      <trkpt lat="44.15667471092657" lon="7.267704769018477">
        <time>1970-01-01T00:00:00+00:00</time>
        <ele>2075.0</ele>
      </trkpt>
      <trkpt lat="44.1567" lon="7.2676">
        <time>1970-01-01T00:00:00+00:00</time>
        <ele>2081.0</ele>
      </trkpt>
      <trkpt lat="44.1567" lon="7.2676">
        <time>1970-01-01T00:00:00+00:00</time>
        <ele>2081.0</ele>
      </trkpt>
      <trkpt lat="44.15680284081645" lon="7.267394318367099">
        <time>1970-01-01T00:00:00+00:00</time>
        <ele>2092.0</ele>
      </trkpt>
      <trkpt lat="44.15690568163289" lon="7.2671886367342">
        <time>1970-01-01T00:00:00+00:00</time>
        <ele>2102.0</ele>
      </trkpt>
      <trkpt lat="44.15696" lon="7.26708">
        <time>1970-01-01T00:00:00+00:00</time>
        <ele>2105.0</ele>
      </trkpt>
      <trkpt lat="44.15696" lon="7.26708">
        <time>1970-01-01T00:00:00+00:00</time>
        <ele>2105.0</ele>
      </trkpt>
      <trkpt lat="44.15700955214766" lon="7.266838996372718">
        <time>1970-01-01T00:00:00+00:00</time>
        <ele>2115.0</ele>
      </trkpt>
      <trkpt lat="44.15705910429533" lon="7.266597992745435">
        <time>1970-01-01T00:00:00+00:00</time>
        <ele>2124.0</ele>
      </trkpt>
      <trkpt lat="44.15710865644299" lon="7.266356989118153">
        <time>1970-01-01T00:00:00+00:00</time>
        <ele>2131.0</ele>
      </trkpt>
      <trkpt lat="44.15715820859066" lon="7.26611598549087">
        <time>1970-01-01T00:00:00+00:00</time>
        <ele>2138.0</ele>
      </trkpt>
      <trkpt lat="44.15718" lon="7.26601">
        <time>1970-01-01T00:00:00+00:00</time>
        <ele>2144.0</ele>
      </trkpt>
      <trkpt lat="44.15718" lon="7.26601">
        <time>1970-01-01T00:00:00+00:00</time>
        <ele>2144.0</ele>
      </trkpt>
      <trkpt lat="44.15722317937194" lon="7.265766625358156">
        <time>1970-01-01T00:00:00+00:00</time>
        <ele>2155.0</ele>
      </trkpt>
      <trkpt lat="44.15726635874388" lon="7.265523250716313">
        <time>1970-01-01T00:00:00+00:00</time>
        <ele>2162.0</ele>
      </trkpt>
      <trkpt lat="44.15729" lon="7.26539">
        <time>1970-01-01T00:00:00+00:00</time>
        <ele>2164.0</ele>
      </trkpt>
      <trkpt lat="44.15729" lon="7.26539">
        <time>1970-01-01T00:00:00+00:00</time>
        <ele>2164.0</ele>
      </trkpt>
      <trkpt lat="44.157396218542246" lon="7.265187678967158">
        <time>1970-01-01T00:00:00+00:00</time>
        <ele>2166.0</ele>
      </trkpt>
      <trkpt lat="44.1575" lon="7.26499">
        <time>1970-01-01T00:00:00+00:00</time>
        <ele>2170.0</ele>
      </trkpt>
      <trkpt lat="44.1575" lon="7.26499">
        <time>1970-01-01T00:00:00+00:00</time>
        <ele>2170.0</ele>
      </trkpt>
      <trkpt lat="44.15759517132969" lon="7.264777264086584">
        <time>1970-01-01T00:00:00+00:00</time>
        <ele>2177.0</ele>
      </trkpt>
      <trkpt lat="44.15767" lon="7.26461">
        <time>1970-01-01T00:00:00+00:00</time>
        <ele>2182.0</ele>
      </trkpt>
      <trkpt lat="44.15767" lon="7.26461">
        <time>1970-01-01T00:00:00+00:00</time>
        <ele>2182.0</ele>
      </trkpt>
      <trkpt lat="44.15761168114359" lon="7.2643728366505895">
        <time>1970-01-01T00:00:00+00:00</time>
        <ele>2193.0</ele>
      </trkpt>
      <trkpt lat="44.157553362287175" lon="7.264135673301179">
        <time>1970-01-01T00:00:00+00:00</time>
        <ele>2204.0</ele>
      </trkpt>
      <trkpt lat="44.15752" lon="7.264">
        <time>1970-01-01T00:00:00+00:00</time>
        <ele>2209.0</ele>
      </trkpt>
      <trkpt lat="44.15752" lon="7.264">
        <time>1970-01-01T00:00:00+00:00</time>
        <ele>2209.0</ele>
      </trkpt>
      <trkpt lat="44.15767639896961" lon="7.2638761841490584">
        <time>1970-01-01T00:00:00+00:00</time>
        <ele>2210.0</ele>
      </trkpt>
      <trkpt lat="44.15776" lon="7.26381">
        <time>1970-01-01T00:00:00+00:00</time>
        <ele>2211.0</ele>
      </trkpt>
      <trkpt lat="44.15776" lon="7.26381">
        <time>1970-01-01T00:00:00+00:00</time>
        <ele>2211.0</ele>
      </trkpt>
      <trkpt lat="44.15777589178556" lon="7.26356027194123">
        <time>1970-01-01T00:00:00+00:00</time>
        <ele>2218.0</ele>
      </trkpt>
      <trkpt lat="44.15779178357111" lon="7.263310543882461">
        <time>1970-01-01T00:00:00+00:00</time>
        <ele>2225.0</ele>
      </trkpt>
      <trkpt lat="44.15780767535667" lon="7.263060815823691">
        <time>1970-01-01T00:00:00+00:00</time>
        <ele>2229.0</ele>
      </trkpt>
      <trkpt lat="44.15782356714223" lon="7.262811087764921">
        <time>1970-01-01T00:00:00+00:00</time>
        <ele>2234.0</ele>
      </trkpt>
      <trkpt lat="44.15783" lon="7.26271">
        <time>1970-01-01T00:00:00+00:00</time>
        <ele>2237.0</ele>
      </trkpt>
      <trkpt lat="44.15783" lon="7.26271">
        <time>1970-01-01T00:00:00+00:00</time>
        <ele>2237.0</ele>
      </trkpt>
      <trkpt lat="44.15790354129963" lon="7.262481204845571">
        <time>1970-01-01T00:00:00+00:00</time>
        <ele>2243.0</ele>
      </trkpt>
      <trkpt lat="44.157977082599274" lon="7.262252409691142">
        <time>1970-01-01T00:00:00+00:00</time>
        <ele>2247.0</ele>
      </trkpt>
      <trkpt lat="44.15801" lon="7.26215">
        <time>1970-01-01T00:00:00+00:00</time>
        <ele>2248.0</ele>
      </trkpt>
      <trkpt lat="44.15801" lon="7.26215">
        <time>1970-01-01T00:00:00+00:00</time>
        <ele>2248.0</ele>
      </trkpt>
      <trkpt lat="44.1580194476758" lon="7.261899636591263">
        <time>1970-01-01T00:00:00+00:00</time>
        <ele>2255.0</ele>
      </trkpt>
      <trkpt lat="44.1580288953516" lon="7.261649273182525">
        <time>1970-01-01T00:00:00+00:00</time>
        <ele>2262.0</ele>
      </trkpt>
      <trkpt lat="44.15803" lon="7.26162">
        <time>1970-01-01T00:00:00+00:00</time>
        <ele>2262.0</ele>
      </trkpt>
      <trkpt lat="44.15803" lon="7.26162">
        <time>1970-01-01T00:00:00+00:00</time>
        <ele>2262.0</ele>
      </trkpt>
      <trkpt lat="44.15807344403562" lon="7.261376713400477">
        <time>1970-01-01T00:00:00+00:00</time>
        <ele>2268.0</ele>
      </trkpt>
      <trkpt lat="44.158116888071255" lon="7.261133426800954">
        <time>1970-01-01T00:00:00+00:00</time>
        <ele>2274.0</ele>
      </trkpt>
      <trkpt lat="44.15813" lon="7.26106">
        <time>1970-01-01T00:00:00+00:00</time>
        <ele>2276.0</ele>
      </trkpt>
      <trkpt lat="44.15813" lon="7.26106">
        <time>1970-01-01T00:00:00+00:00</time>
        <ele>2276.0</ele>
      </trkpt>
      <trkpt lat="44.15818507694052" lon="7.26082133325775">
        <time>1970-01-01T00:00:00+00:00</time>
        <ele>2283.0</ele>
      </trkpt>
      <trkpt lat="44.15822" lon="7.26067">
        <time>1970-01-01T00:00:00+00:00</time>
        <ele>2287.0</ele>
      </trkpt>
      <trkpt lat="44.15822" lon="7.26067">
        <time>1970-01-01T00:00:00+00:00</time>
        <ele>2287.0</ele>
      </trkpt>
      <trkpt lat="44.15834843123812" lon="7.26049447730791">
        <time>1970-01-01T00:00:00+00:00</time>
        <ele>2287.0</ele>
      </trkpt>
      <trkpt lat="44.158476862476235" lon="7.260318954615819">
        <time>1970-01-01T00:00:00+00:00</time>
        <ele>2287.0</ele>
      </trkpt>
      <trkpt lat="44.15852" lon="7.26026">
        <time>1970-01-01T00:00:00+00:00</time>
        <ele>2288.0</ele>
      </trkpt>
      <trkpt lat="44.15852" lon="7.26026">
        <time>1970-01-01T00:00:00+00:00</time>
        <ele>2288.0</ele>
      </trkpt>
      <trkpt lat="44.15863097974936" lon="7.260062702667802">
        <time>1970-01-01T00:00:00+00:00</time>
        <ele>2291.0</ele>
      </trkpt>
      <trkpt lat="44.1587" lon="7.25994">
        <time>1970-01-01T00:00:00+00:00</time>
        <ele>2293.0</ele>
      </trkpt>
      <trkpt lat="44.1587" lon="7.25994">
        <time>1970-01-01T00:00:00+00:00</time>
        <ele>2293.0</ele>
      </trkpt>
      <trkpt lat="44.15869089487599" lon="7.259689609089657">
        <time>1970-01-01T00:00:00+00:00</time>
        <ele>2301.0</ele>
      </trkpt>
      <trkpt lat="44.158681789751974" lon="7.259439218179312">
        <time>1970-01-01T00:00:00+00:00</time>
        <ele>2310.0</ele>
      </trkpt>
      <trkpt lat="44.15868" lon="7.25939">
        <time>1970-01-01T00:00:00+00:00</time>
        <ele>2312.0</ele>
      </trkpt>
      <trkpt lat="44.15868" lon="7.25939">
        <time>1970-01-01T00:00:00+00:00</time>
        <ele>2312.0</ele>
      </trkpt>
      <trkpt lat="44.158790845894735" lon="7.259192555749996">
        <time>1970-01-01T00:00:00+00:00</time>
        <ele>2318.0</ele>
      </trkpt>
      <trkpt lat="44.15890169178948" lon="7.25899511149999">
        <time>1970-01-01T00:00:00+00:00</time>
        <ele>2325.0</ele>
      </trkpt>
      <trkpt lat="44.159" lon="7.25882">
        <time>1970-01-01T00:00:00+00:00</time>
        <ele>2331.0</ele>
      </trkpt>
      <trkpt lat="44.159" lon="7.25882">
        <time>1970-01-01T00:00:00+00:00</time>
        <ele>2331.0</ele>
      </trkpt>
      <trkpt lat="44.15897475607028" lon="7.258571768024396">
        <time>1970-01-01T00:00:00+00:00</time>
        <ele>2337.0</ele>
      </trkpt>
      <trkpt lat="44.15894951214056" lon="7.258323536048792">
        <time>1970-01-01T00:00:00+00:00</time>
        <ele>2342.0</ele>
      </trkpt>
      <trkpt lat="44.15894" lon="7.25823">
        <time>1970-01-01T00:00:00+00:00</time>
        <ele>2346.0</ele>
      </trkpt>
      <trkpt lat="44.15894" lon="7.25823">
        <time>1970-01-01T00:00:00+00:00</time>
        <ele>2346.0</ele>
      </trkpt>
      <trkpt lat="44.15886113535659" lon="7.258004672447402">
        <time>1970-01-01T00:00:00+00:00</time>
        <ele>2355.0</ele>
      </trkpt>
      <trkpt lat="44.158782270713175" lon="7.257779344894805">
        <time>1970-01-01T00:00:00+00:00</time>
        <ele>2367.0</ele>
      </trkpt>
      <trkpt lat="44.15873" lon="7.25763">
        <time>1970-01-01T00:00:00+00:00</time>
        <ele>2373.0</ele>
      </trkpt>
      <trkpt lat="44.15873" lon="7.25763">
        <time>1970-01-01T00:00:00+00:00</time>
        <ele>2373.0</ele>
      </trkpt>
      <trkpt lat="44.15875545529318" lon="7.25738181089147">
        <time>1970-01-01T00:00:00+00:00</time>
        <ele>2380.0</ele>
      </trkpt>
      <trkpt lat="44.15877" lon="7.25724">
        <time>1970-01-01T00:00:00+00:00</time>
        <ele>2384.0</ele>
      </trkpt>
      <trkpt lat="44.15877" lon="7.25724">
        <time>1970-01-01T00:00:00+00:00</time>
        <ele>2384.0</ele>
      </trkpt>
      <trkpt lat="44.15863331769401" lon="7.257402967364837">
        <time>1970-01-01T00:00:00+00:00</time>
        <ele>2383.0</ele>
      </trkpt>
      <trkpt lat="44.15851" lon="7.25755">
        <time>1970-01-01T00:00:00+00:00</time>
        <ele>2385.0</ele>
      </trkpt>
      <trkpt lat="44.15851" lon="7.25755">
        <time>1970-01-01T00:00:00+00:00</time>
        <ele>2385.0</ele>
      </trkpt>
      <trkpt lat="44.15837741447747" lon="7.257380585165659">
        <time>1970-01-01T00:00:00+00:00</time>
        <ele>2398.0</ele>
      </trkpt>
      <trkpt lat="44.15824482895494" lon="7.257211170331319">
        <time>1970-01-01T00:00:00+00:00</time>
        <ele>2410.0</ele>
      </trkpt>
      <trkpt lat="44.15815" lon="7.25709">
        <time>1970-01-01T00:00:00+00:00</time>
        <ele>2418.0</ele>
      </trkpt>
      <trkpt lat="44.15815" lon="7.25709">
        <time>1970-01-01T00:00:00+00:00</time>
        <ele>2418.0</ele>
      </trkpt>
      <trkpt lat="44.15797616754381" lon="7.25702561760882">
        <time>1970-01-01T00:00:00+00:00</time>
        <ele>2433.0</ele>
      </trkpt>
      <trkpt lat="44.15788" lon="7.25699">
        <time>1970-01-01T00:00:00+00:00</time>
        <ele>2441.0</ele>
      </trkpt>
      <trkpt lat="44.15788" lon="7.25699">
        <time>1970-01-01T00:00:00+00:00</time>
        <ele>2441.0</ele>
      </trkpt>
      <trkpt lat="44.15770436404509" lon="7.256935958167718">
        <time>1970-01-01T00:00:00+00:00</time>
        <ele>2458.0</ele>
      </trkpt>
      <trkpt lat="44.15762" lon="7.25691">
        <time>1970-01-01T00:00:00+00:00</time>
        <ele>2465.0</ele>
      </trkpt>
      <trkpt lat="44.15762" lon="7.25691">
        <time>1970-01-01T00:00:00+00:00</time>
        <ele>2465.0</ele>
      </trkpt>
      <trkpt lat="44.15763814033102" lon="7.256660570448517">
        <time>1970-01-01T00:00:00+00:00</time>
        <ele>2471.0</ele>
      </trkpt>
      <trkpt lat="44.15765628066203" lon="7.256411140897034">
        <time>1970-01-01T00:00:00+00:00</time>
        <ele>2482.0</ele>
      </trkpt>
      <trkpt lat="44.15766" lon="7.25636">
        <time>1970-01-01T00:00:00+00:00</time>
        <ele>2484.0</ele>
      </trkpt>
      <trkpt lat="44.15766" lon="7.25636">
        <time>1970-01-01T00:00:00+00:00</time>
        <ele>2484.0</ele>
      </trkpt>
      <trkpt lat="44.15769594872758" lon="7.256114350361528">
        <time>1970-01-01T00:00:00+00:00</time>
        <ele>2493.0</ele>
      </trkpt>
      <trkpt lat="44.15772" lon="7.25595">
        <time>1970-01-01T00:00:00+00:00</time>
        <ele>2496.0</ele>
      </trkpt>
      <trkpt lat="44.15772" lon="7.25595">
        <time>1970-01-01T00:00:00+00:00</time>
        <ele>2496.0</ele>
      </trkpt>
      <trkpt lat="44.15756750616814" lon="7.255817056659405">
        <time>1970-01-01T00:00:00+00:00</time>
        <ele>2503.0</ele>
      </trkpt>
      <trkpt lat="44.15741501233629" lon="7.255684113318809">
        <time>1970-01-01T00:00:00+00:00</time>
        <ele>2512.0</ele>
      </trkpt>
      <trkpt lat="44.15733" lon="7.25561">
        <time>1970-01-01T00:00:00+00:00</time>
        <ele>2518.0</ele>
      </trkpt>
      <trkpt lat="44.15733" lon="7.25561">
        <time>1970-01-01T00:00:00+00:00</time>
        <ele>2518.0</ele>
      </trkpt>
      <trkpt lat="44.157447408919836" lon="7.2554200738061505">
        <time>1970-01-01T00:00:00+00:00</time>
        <ele>2517.0</ele>
      </trkpt>
      <trkpt lat="44.15756481783967" lon="7.255230147612302">
        <time>1970-01-01T00:00:00+00:00</time>
        <ele>2516.0</ele>
      </trkpt>
      <trkpt lat="44.15767" lon="7.25506">
        <time>1970-01-01T00:00:00+00:00</time>
        <ele>2518.0</ele>
      </trkpt>
      <trkpt lat="44.15767" lon="7.25506">
        <time>1970-01-01T00:00:00+00:00</time>
        <ele>2518.0</ele>
      </trkpt>
      <trkpt lat="44.15754239380618" lon="7.25488331450086">
        <time>1970-01-01T00:00:00+00:00</time>
        <ele>2521.0</ele>
      </trkpt>
      <trkpt lat="44.15741478761235" lon="7.25470662900172">
        <time>1970-01-01T00:00:00+00:00</time>
        <ele>2522.0</ele>
      </trkpt>
      <trkpt lat="44.15741" lon="7.2547">
        <time>1970-01-01T00:00:00+00:00</time>
        <ele>2522.0</ele>
      </trkpt>
      <trkpt lat="44.15741" lon="7.2547">
        <time>1970-01-01T00:00:00+00:00</time>
        <ele>2522.0</ele>
      </trkpt>
      <trkpt lat="44.15729882628694" lon="7.254897080673149">
        <time>1970-01-01T00:00:00+00:00</time>
        <ele>2526.0</ele>
      </trkpt>
      <trkpt lat="44.15719" lon="7.25509">
        <time>1970-01-01T00:00:00+00:00</time>
        <ele>2530.0</ele>
      </trkpt>
      <trkpt lat="44.15719" lon="7.25509">
        <time>1970-01-01T00:00:00+00:00</time>
        <ele>2530.0</ele>
      </trkpt>
      <trkpt lat="44.157356823901765" lon="7.254996278706874">
        <time>1970-01-01T00:00:00+00:00</time>
        <ele>2524.0</ele>
      </trkpt>
      <trkpt lat="44.15752364780353" lon="7.254902557413747">
        <time>1970-01-01T00:00:00+00:00</time>
        <ele>2521.0</ele>
      </trkpt>
      <trkpt lat="44.157690471705294" lon="7.25480883612062">
        <time>1970-01-01T00:00:00+00:00</time>
        <ele>2520.0</ele>
      </trkpt>
      <trkpt lat="44.15785729560706" lon="7.254715114827493">
        <time>1970-01-01T00:00:00+00:00</time>
        <ele>2520.0</ele>
      </trkpt>
      <trkpt lat="44.15802411950883" lon="7.254621393534367">
        <time>1970-01-01T00:00:00+00:00</time>
        <ele>2520.0</ele>
      </trkpt>
      <trkpt lat="44.15808" lon="7.25459">
        <time>1970-01-01T00:00:00+00:00</time>
        <ele>2521.0</ele>
      </trkpt>
      <trkpt lat="44.15808" lon="7.25459">
        <time>1970-01-01T00:00:00+00:00</time>
        <ele>2521.0</ele>
      </trkpt>
      <trkpt lat="44.158249898528695" lon="7.254507705400162">
        <time>1970-01-01T00:00:00+00:00</time>
        <ele>2523.0</ele>
      </trkpt>
      <trkpt lat="44.15841979705739" lon="7.254425410800325">
        <time>1970-01-01T00:00:00+00:00</time>
        <ele>2524.0</ele>
      </trkpt>
      <trkpt lat="44.158589695586095" lon="7.254343116200486">
        <time>1970-01-01T00:00:00+00:00</time>
        <ele>2525.0</ele>
      </trkpt>
      <trkpt lat="44.15872" lon="7.25428">
        <time>1970-01-01T00:00:00+00:00</time>
        <ele>2525.0</ele>
      </trkpt>
      <trkpt lat="44.15872" lon="7.25428">
        <time>1970-01-01T00:00:00+00:00</time>
        <ele>2525.0</ele>
      </trkpt>
      <trkpt lat="44.15888658752769" lon="7.2541854598207856">
        <time>1970-01-01T00:00:00+00:00</time>
        <ele>2524.0</ele>
      </trkpt>
      <trkpt lat="44.15905317505537" lon="7.254090919641571">
        <time>1970-01-01T00:00:00+00:00</time>
        <ele>2523.0</ele>
      </trkpt>
      <trkpt lat="44.15921976258306" lon="7.253996379462356">
        <time>1970-01-01T00:00:00+00:00</time>
        <ele>2522.0</ele>
      </trkpt>
      <trkpt lat="44.15938635011074" lon="7.253901839283142">
        <time>1970-01-01T00:00:00+00:00</time>
        <ele>2519.0</ele>
      </trkpt>
      <trkpt lat="44.15955293763844" lon="7.2538072991039275">
        <time>1970-01-01T00:00:00+00:00</time>
        <ele>2515.0</ele>
      </trkpt>
      <trkpt lat="44.159719525166125" lon="7.2537127589247135">
        <time>1970-01-01T00:00:00+00:00</time>
        <ele>2511.0</ele>
      </trkpt>
      <trkpt lat="44.159886112693805" lon="7.2536182187454985">
        <time>1970-01-01T00:00:00+00:00</time>
        <ele>2508.0</ele>
      </trkpt>
      <trkpt lat="44.16005270022149" lon="7.253523678566284">
        <time>1970-01-01T00:00:00+00:00</time>
        <ele>2505.0</ele>
      </trkpt>
      <trkpt lat="44.160219287749186" lon="7.2534291383870695">
        <time>1970-01-01T00:00:00+00:00</time>
        <ele>2502.0</ele>
      </trkpt>
      <trkpt lat="44.160385875276866" lon="7.253334598207855">
        <time>1970-01-01T00:00:00+00:00</time>
        <ele>2499.0</ele>
      </trkpt>
      <trkpt lat="44.16055246280455" lon="7.2532400580286405">
        <time>1970-01-01T00:00:00+00:00</time>
        <ele>2494.0</ele>
      </trkpt>
      <trkpt lat="44.16071905033225" lon="7.253145517849426">
        <time>1970-01-01T00:00:00+00:00</time>
        <ele>2487.0</ele>
      </trkpt>
      <trkpt lat="44.16088563785992" lon="7.2530509776702115">
        <time>1970-01-01T00:00:00+00:00</time>
        <ele>2480.0</ele>
      </trkpt>
      <trkpt lat="44.161052225387614" lon="7.252956437490997">
        <time>1970-01-01T00:00:00+00:00</time>
        <ele>2473.0</ele>
      </trkpt>
      <trkpt lat="44.161218812915294" lon="7.252861897311783">
        <time>1970-01-01T00:00:00+00:00</time>
        <ele>2469.0</ele>
      </trkpt>
      <trkpt lat="44.16138540044298" lon="7.252767357132569">
        <time>1970-01-01T00:00:00+00:00</time>
        <ele>2463.0</ele>
      </trkpt>
      <trkpt lat="44.16155198797067" lon="7.252672816953354">
        <time>1970-01-01T00:00:00+00:00</time>
        <ele>2456.0</ele>
      </trkpt>
      <trkpt lat="44.161718575498355" lon="7.252578276774139">
        <time>1970-01-01T00:00:00+00:00</time>
        <ele>2450.0</ele>
      </trkpt>
      <trkpt lat="44.16188516302604" lon="7.252483736594925">
        <time>1970-01-01T00:00:00+00:00</time>
        <ele>2443.0</ele>
      </trkpt>
      <trkpt lat="44.16205175055373" lon="7.252389196415711">
        <time>1970-01-01T00:00:00+00:00</time>
        <ele>2436.0</ele>
      </trkpt>
      <trkpt lat="44.162218338081416" lon="7.252294656236497">
        <time>1970-01-01T00:00:00+00:00</time>
        <ele>2430.0</ele>
      </trkpt>
      <trkpt lat="44.1623849256091" lon="7.252200116057282">
        <time>1970-01-01T00:00:00+00:00</time>
        <ele>2425.0</ele>
      </trkpt>
      <trkpt lat="44.16255151313679" lon="7.252105575878068">
        <time>1970-01-01T00:00:00+00:00</time>
        <ele>2421.0</ele>
      </trkpt>
      <trkpt lat="44.16271810066448" lon="7.252011035698853">
        <time>1970-01-01T00:00:00+00:00</time>
        <ele>2419.0</ele>
      </trkpt>
      <trkpt lat="44.16288468819216" lon="7.251916495519639">
        <time>1970-01-01T00:00:00+00:00</time>
        <ele>2416.0</ele>
      </trkpt>
      <trkpt lat="44.163051275719845" lon="7.251821955340424">
        <time>1970-01-01T00:00:00+00:00</time>
        <ele>2413.0</ele>
      </trkpt>
      <trkpt lat="44.16321786324754" lon="7.25172741516121">
        <time>1970-01-01T00:00:00+00:00</time>
        <ele>2410.0</ele>
      </trkpt>
      <trkpt lat="44.163384450775226" lon="7.251632874981996">
        <time>1970-01-01T00:00:00+00:00</time>
        <ele>2407.0</ele>
      </trkpt>
      <trkpt lat="44.16346" lon="7.25159">
        <time>1970-01-01T00:00:00+00:00</time>
        <ele>2406.0</ele>
      </trkpt>
      <trkpt lat="44.16346" lon="7.25159">
        <time>1970-01-01T00:00:00+00:00</time>
        <ele>2406.0</ele>
      </trkpt>
      <trkpt lat="44.16363199564706" lon="7.251516648915226">
        <time>1970-01-01T00:00:00+00:00</time>
        <ele>2405.0</ele>
      </trkpt>
      <trkpt lat="44.16380399129412" lon="7.251443297830452">
        <time>1970-01-01T00:00:00+00:00</time>
        <ele>2406.0</ele>
      </trkpt>
      <trkpt lat="44.16397598694117" lon="7.251369946745678">
        <time>1970-01-01T00:00:00+00:00</time>
        <ele>2406.0</ele>
      </trkpt>
      <trkpt lat="44.164147982588226" lon="7.251296595660904">
        <time>1970-01-01T00:00:00+00:00</time>
        <ele>2406.0</ele>
      </trkpt>
      <trkpt lat="44.164319978235284" lon="7.2512232445761295">
        <time>1970-01-01T00:00:00+00:00</time>
        <ele>2406.0</ele>
      </trkpt>
      <trkpt lat="44.164491973882335" lon="7.2511498934913545">
        <time>1970-01-01T00:00:00+00:00</time>
        <ele>2405.0</ele>
      </trkpt>
      <trkpt lat="44.1646639695294" lon="7.25107654240658">
        <time>1970-01-01T00:00:00+00:00</time>
        <ele>2402.0</ele>
      </trkpt>
      <trkpt lat="44.16482" lon="7.25101">
        <time>1970-01-01T00:00:00+00:00</time>
        <ele>2398.0</ele>
      </trkpt>
      <trkpt lat="44.16482" lon="7.25101">
        <time>1970-01-01T00:00:00+00:00</time>
        <ele>2398.0</ele>
      </trkpt>
      <trkpt lat="44.164956552497515" lon="7.2508468031127205">
        <time>1970-01-01T00:00:00+00:00</time>
        <ele>2395.0</ele>
      </trkpt>
      <trkpt lat="44.16509310499504" lon="7.250683606225443">
        <time>1970-01-01T00:00:00+00:00</time>
        <ele>2393.0</ele>
      </trkpt>
      <trkpt lat="44.16522965749256" lon="7.250520409338163">
        <time>1970-01-01T00:00:00+00:00</time>
        <ele>2389.0</ele>
      </trkpt>
      <trkpt lat="44.165366209990076" lon="7.250357212450885">
        <time>1970-01-01T00:00:00+00:00</time>
        <ele>2387.0</ele>
      </trkpt>
      <trkpt lat="44.1655027624876" lon="7.250194015563606">
        <time>1970-01-01T00:00:00+00:00</time>
        <ele>2385.0</ele>
      </trkpt>
      <trkpt lat="44.165639314985114" lon="7.250030818676327">
        <time>1970-01-01T00:00:00+00:00</time>
        <ele>2386.0</ele>
      </trkpt>
      <trkpt lat="44.16564" lon="7.25003">
        <time>1970-01-01T00:00:00+00:00</time>
        <ele>2386.0</ele>
      </trkpt>
      <trkpt lat="44.16564" lon="7.25003">
        <time>1970-01-01T00:00:00+00:00</time>
        <ele>2386.0</ele>
      </trkpt>
      <trkpt lat="44.1655080637736" lon="7.249859582374228">
        <time>1970-01-01T00:00:00+00:00</time>
        <ele>2393.0</ele>
      </trkpt>
      <trkpt lat="44.1654" lon="7.24972">
        <time>1970-01-01T00:00:00+00:00</time>
        <ele>2398.0</ele>
      </trkpt>
      <trkpt lat="44.1654" lon="7.24972">
        <time>1970-01-01T00:00:00+00:00</time>
        <ele>2398.0</ele>
      </trkpt>
      <trkpt lat="44.165253849424545" lon="7.249573849424541">
        <time>1970-01-01T00:00:00+00:00</time>
        <ele>2405.0</ele>
      </trkpt>
      <trkpt lat="44.165107698849084" lon="7.2494276988490824">
        <time>1970-01-01T00:00:00+00:00</time>
        <ele>2411.0</ele>
      </trkpt>
      <trkpt lat="44.164961548273624" lon="7.249281548273624">
        <time>1970-01-01T00:00:00+00:00</time>
        <ele>2416.0</ele>
      </trkpt>
      <trkpt lat="44.16491" lon="7.24923">
        <time>1970-01-01T00:00:00+00:00</time>
        <ele>2418.0</ele>
      </trkpt>
      <trkpt lat="44.16491" lon="7.24923">
        <time>1970-01-01T00:00:00+00:00</time>
        <ele>2418.0</ele>
      </trkpt>
      <trkpt lat="44.16477951634302" lon="7.249057424840764">
        <time>1970-01-01T00:00:00+00:00</time>
        <ele>2422.0</ele>
      </trkpt>
      <trkpt lat="44.164649032686036" lon="7.248884849681531">
        <time>1970-01-01T00:00:00+00:00</time>
        <ele>2425.0</ele>
      </trkpt>
      <trkpt lat="44.1646" lon="7.24882">
        <time>1970-01-01T00:00:00+00:00</time>
        <ele>2429.0</ele>
      </trkpt>
      <trkpt lat="44.1646" lon="7.24882">
        <time>1970-01-01T00:00:00+00:00</time>
        <ele>2429.0</ele>
      </trkpt>
      <trkpt lat="44.16446475586575" lon="7.248654701613692">
        <time>1970-01-01T00:00:00+00:00</time>
        <ele>2438.0</ele>
      </trkpt>
      <trkpt lat="44.164329511731495" lon="7.248489403227385">
        <time>1970-01-01T00:00:00+00:00</time>
        <ele>2448.0</ele>
      </trkpt>
      <trkpt lat="44.16424" lon="7.24838">
        <time>1970-01-01T00:00:00+00:00</time>
        <ele>2454.0</ele>
      </trkpt>
      <trkpt lat="44.16424" lon="7.24838">
        <time>1970-01-01T00:00:00+00:00</time>
        <ele>2454.0</ele>
      </trkpt>
      <trkpt lat="44.16408944095481" lon="7.24824282398105">
        <time>1970-01-01T00:00:00+00:00</time>
        <ele>2459.0</ele>
      </trkpt>
      <trkpt lat="44.163938881909615" lon="7.248105647962098">
        <time>1970-01-01T00:00:00+00:00</time>
        <ele>2463.0</ele>
      </trkpt>
      <trkpt lat="44.16379" lon="7.24797">
        <time>1970-01-01T00:00:00+00:00</time>
        <ele>2468.0</ele>
      </trkpt>
      <trkpt lat="44.16379" lon="7.24797">
        <time>1970-01-01T00:00:00+00:00</time>
        <ele>2468.0</ele>
      </trkpt>
      <trkpt lat="44.16379808003043" lon="7.24771951905648">
        <time>1970-01-01T00:00:00+00:00</time>
        <ele>2478.0</ele>
      </trkpt>
      <trkpt lat="44.16380616006087" lon="7.2474690381129605">
        <time>1970-01-01T00:00:00+00:00</time>
        <ele>2488.0</ele>
      </trkpt>
      <trkpt lat="44.16381" lon="7.24735">
        <time>1970-01-01T00:00:00+00:00</time>
        <ele>2493.0</ele>
      </trkpt>
      <trkpt lat="44.16381" lon="7.24735">
        <time>1970-01-01T00:00:00+00:00</time>
        <ele>2493.0</ele>
      </trkpt>
      <trkpt lat="44.16381" lon="7.247099265886916">
        <time>1970-01-01T00:00:00+00:00</time>
        <ele>2503.0</ele>
      </trkpt>
      <trkpt lat="44.16381" lon="7.24696">
        <time>1970-01-01T00:00:00+00:00</time>
        <ele>2509.0</ele>
      </trkpt>
      <trkpt lat="44.16381" lon="7.24696">
        <time>1970-01-01T00:00:00+00:00</time>
        <ele>2509.0</ele>
      </trkpt>
      <trkpt lat="44.163815966574745" lon="7.24670940386059">
        <time>1970-01-01T00:00:00+00:00</time>
        <ele>2519.0</ele>
      </trkpt>
      <trkpt lat="44.16382" lon="7.24654">
        <time>1970-01-01T00:00:00+00:00</time>
        <ele>2531.0</ele>
      </trkpt>
      <trkpt lat="44.16382" lon="7.24654">
        <time>1970-01-01T00:00:00+00:00</time>
        <ele>2531.0</ele>
      </trkpt>
      <trkpt lat="44.16395154186258" lon="7.246368995578649">
        <time>1970-01-01T00:00:00+00:00</time>
        <ele>2539.0</ele>
      </trkpt>
      <trkpt lat="44.16402" lon="7.24628">
        <time>1970-01-01T00:00:00+00:00</time>
        <ele>2544.0</ele>
      </trkpt>
      <trkpt lat="44.16402" lon="7.24628">
        <time>1970-01-01T00:00:00+00:00</time>
        <ele>2544.0</ele>
      </trkpt>
      <trkpt lat="44.164080311278695" lon="7.246043780825124">
        <time>1970-01-01T00:00:00+00:00</time>
        <ele>2552.0</ele>
      </trkpt>
      <trkpt lat="44.16414" lon="7.24581">
        <time>1970-01-01T00:00:00+00:00</time>
        <ele>2564.0</ele>
      </trkpt>
      <trkpt lat="44.16414" lon="7.24581">
        <time>1970-01-01T00:00:00+00:00</time>
        <ele>2564.0</ele>
      </trkpt>
      <trkpt lat="44.164162613281455" lon="7.245561253904031">
        <time>1970-01-01T00:00:00+00:00</time>
        <ele>2582.0</ele>
      </trkpt>
      <trkpt lat="44.1641852265629" lon="7.24531250780806">
        <time>1970-01-01T00:00:00+00:00</time>
        <ele>2600.0</ele>
      </trkpt>
      <trkpt lat="44.16419" lon="7.24526">
        <time>1970-01-01T00:00:00+00:00</time>
        <ele>2602.0</ele>
      </trkpt>
      <trkpt lat="44.16419" lon="7.24526">
        <time>1970-01-01T00:00:00+00:00</time>
        <ele>2602.0</ele>
      </trkpt>
      <trkpt lat="44.16427849516904" lon="7.245041711916367">
        <time>1970-01-01T00:00:00+00:00</time>
        <ele>2612.0</ele>
      </trkpt>
      <trkpt lat="44.16434" lon="7.24489">
        <time>1970-01-01T00:00:00+00:00</time>
        <ele>2616.0</ele>
      </trkpt>
      <trkpt lat="44.16434" lon="7.24489">
        <time>1970-01-01T00:00:00+00:00</time>
        <ele>2616.0</ele>
      </trkpt>
      <trkpt lat="44.16451905911219" lon="7.244866300999857">
        <time>1970-01-01T00:00:00+00:00</time>
        <ele>2618.0</ele>
      </trkpt>
      <trkpt lat="44.16469811822437" lon="7.244842601999715">
        <time>1970-01-01T00:00:00+00:00</time>
        <ele>2623.0</ele>
      </trkpt>
      <trkpt lat="44.16487717733655" lon="7.244818902999573">
        <time>1970-01-01T00:00:00+00:00</time>
        <ele>2626.0</ele>
      </trkpt>
      <trkpt lat="44.16502" lon="7.2448">
        <time>1970-01-01T00:00:00+00:00</time>
        <ele>2628.0</ele>
      </trkpt>
      <trkpt lat="44.16502" lon="7.2448">
        <time>1970-01-01T00:00:00+00:00</time>
        <ele>2628.0</ele>
      </trkpt>
      <trkpt lat="44.165189882737195" lon="7.244717632612268">
        <time>1970-01-01T00:00:00+00:00</time>
        <ele>2632.0</ele>
      </trkpt>
      <trkpt lat="44.16535" lon="7.24464">
        <time>1970-01-01T00:00:00+00:00</time>
        <ele>2636.0</ele>
      </trkpt>
      <trkpt lat="44.16535" lon="7.24464">
        <time>1970-01-01T00:00:00+00:00</time>
        <ele>2636.0</ele>
      </trkpt>
      <trkpt lat="44.165478438845525" lon="7.244464466911117">
        <time>1970-01-01T00:00:00+00:00</time>
        <ele>2640.0</ele>
      </trkpt>
      <trkpt lat="44.16560687769105" lon="7.244288933822235">
        <time>1970-01-01T00:00:00+00:00</time>
        <ele>2643.0</ele>
      </trkpt>
      <trkpt lat="44.16565" lon="7.24423">
        <time>1970-01-01T00:00:00+00:00</time>
        <ele>2644.0</ele>
      </trkpt>
      <trkpt lat="44.16565" lon="7.24423">
        <time>1970-01-01T00:00:00+00:00</time>
        <ele>2644.0</ele>
      </trkpt>
      <trkpt lat="44.165829384417016" lon="7.244211695467651">
        <time>1970-01-01T00:00:00+00:00</time>
        <ele>2653.0</ele>
      </trkpt>
      <trkpt lat="44.16600876883403" lon="7.244193390935303">
        <time>1970-01-01T00:00:00+00:00</time>
        <ele>2659.0</ele>
      </trkpt>
      <trkpt lat="44.16614" lon="7.24418">
        <time>1970-01-01T00:00:00+00:00</time>
        <ele>2662.0</ele>
      </trkpt>
      <trkpt lat="44.16614" lon="7.24418">
        <time>1970-01-01T00:00:00+00:00</time>
        <ele>2662.0</ele>
      </trkpt>
      <trkpt lat="44.16631610780316" lon="7.244129021425401">
        <time>1970-01-01T00:00:00+00:00</time>
        <ele>2667.0</ele>
      </trkpt>
      <trkpt lat="44.16649221560632" lon="7.244078042850802">
        <time>1970-01-01T00:00:00+00:00</time>
        <ele>2672.0</ele>
      </trkpt>
      <trkpt lat="44.16652" lon="7.24407">
        <time>1970-01-01T00:00:00+00:00</time>
        <ele>2672.0</ele>
      </trkpt>
      <trkpt lat="44.16652" lon="7.24407">
        <time>1970-01-01T00:00:00+00:00</time>
        <ele>2672.0</ele>
      </trkpt>
      <trkpt lat="44.16669950513629" lon="7.2440858386884965">
        <time>1970-01-01T00:00:00+00:00</time>
        <ele>2675.0</ele>
      </trkpt>
      <trkpt lat="44.16686" lon="7.2441">
        <time>1970-01-01T00:00:00+00:00</time>
        <ele>2676.0</ele>
      </trkpt>
      <trkpt lat="44.16686" lon="7.2441">
        <time>1970-01-01T00:00:00+00:00</time>
        <ele>2676.0</ele>
      </trkpt>
      <trkpt lat="44.16702442404698" lon="7.2439983560436865">
        <time>1970-01-01T00:00:00+00:00</time>
        <ele>2677.0</ele>
      </trkpt>
      <trkpt lat="44.16718884809396" lon="7.2438967120873725">
        <time>1970-01-01T00:00:00+00:00</time>
        <ele>2680.0</ele>
      </trkpt>
      <trkpt lat="44.167353272140936" lon="7.243795068131058">
        <time>1970-01-01T00:00:00+00:00</time>
        <ele>2680.0</ele>
      </trkpt>
      <trkpt lat="44.16741" lon="7.24376">
        <time>1970-01-01T00:00:00+00:00</time>
        <ele>2681.0</ele>
      </trkpt>
      <trkpt lat="44.16741" lon="7.24376">
        <time>1970-01-01T00:00:00+00:00</time>
        <ele>2681.0</ele>
      </trkpt>
      <trkpt lat="44.16756801437607" lon="7.243640214908453">
        <time>1970-01-01T00:00:00+00:00</time>
        <ele>2685.0</ele>
      </trkpt>
      <trkpt lat="44.16772602875216" lon="7.243520429816908">
        <time>1970-01-01T00:00:00+00:00</time>
        <ele>2687.0</ele>
      </trkpt>
      <trkpt lat="44.16788404312825" lon="7.2434006447253605">
        <time>1970-01-01T00:00:00+00:00</time>
        <ele>2689.0</ele>
      </trkpt>
      <trkpt lat="44.16803" lon="7.24329">
        <time>1970-01-01T00:00:00+00:00</time>
        <ele>2689.0</ele>
      </trkpt>
      <trkpt lat="44.16803" lon="7.24329">
        <time>1970-01-01T00:00:00+00:00</time>
        <ele>2689.0</ele>
      </trkpt>
      <trkpt lat="44.16817997014425" lon="7.243151566020693">
        <time>1970-01-01T00:00:00+00:00</time>
        <ele>2689.0</ele>
      </trkpt>
      <trkpt lat="44.1683299402885" lon="7.243013132041386">
        <time>1970-01-01T00:00:00+00:00</time>
        <ele>2690.0</ele>
      </trkpt>
      <trkpt lat="44.16847991043275" lon="7.24287469806208">
        <time>1970-01-01T00:00:00+00:00</time>
        <ele>2691.0</ele>
      </trkpt>
      <trkpt lat="44.16855" lon="7.24281">
        <time>1970-01-01T00:00:00+00:00</time>
        <ele>2693.0</ele>
      </trkpt>
      <trkpt lat="44.16855" lon="7.24281">
        <time>1970-01-01T00:00:00+00:00</time>
        <ele>2693.0</ele>
      </trkpt>
      <trkpt lat="44.16872982862914" lon="7.242814995239699">
        <time>1970-01-01T00:00:00+00:00</time>
        <ele>2696.0</ele>
      </trkpt>
      <trkpt lat="44.16890965725827" lon="7.242819990479397">
        <time>1970-01-01T00:00:00+00:00</time>
        <ele>2701.0</ele>
      </trkpt>
      <trkpt lat="44.16891" lon="7.24282">
        <time>1970-01-01T00:00:00+00:00</time>
        <ele>2701.0</ele>
      </trkpt>
      <trkpt lat="44.16891" lon="7.24282">
        <time>1970-01-01T00:00:00+00:00</time>
        <ele>2701.0</ele>
      </trkpt>
      <trkpt lat="44.16904678118062" lon="7.242657165261164">
        <time>1970-01-01T00:00:00+00:00</time>
        <ele>2708.0</ele>
      </trkpt>
      <trkpt lat="44.16912" lon="7.24257">
        <time>1970-01-01T00:00:00+00:00</time>
        <ele>2712.0</ele>
      </trkpt>
      <trkpt lat="44.16912" lon="7.24257">
        <time>1970-01-01T00:00:00+00:00</time>
        <ele>2712.0</ele>
      </trkpt>
      <trkpt lat="44.169247786504926" lon="7.242746467078231">
        <time>1970-01-01T00:00:00+00:00</time>
        <ele>2717.0</ele>
      </trkpt>
      <trkpt lat="44.16933" lon="7.24286">
        <time>1970-01-01T00:00:00+00:00</time>
        <ele>2720.0</ele>
      </trkpt>
      <trkpt lat="44.16933" lon="7.24286">
        <time>1970-01-01T00:00:00+00:00</time>
        <ele>2720.0</ele>
      </trkpt>
      <trkpt lat="44.16949867635477" lon="7.242947058763752">
        <time>1970-01-01T00:00:00+00:00</time>
        <ele>2728.0</ele>
      </trkpt>
      <trkpt lat="44.16964" lon="7.24302">
        <time>1970-01-01T00:00:00+00:00</time>
        <ele>2735.0</ele>
      </trkpt>
      <trkpt lat="44.16964" lon="7.24302">
        <time>1970-01-01T00:00:00+00:00</time>
        <ele>2735.0</ele>
      </trkpt>
      <trkpt lat="44.16971731161525" lon="7.242793587412491">
        <time>1970-01-01T00:00:00+00:00</time>
        <ele>2739.0</ele>
      </trkpt>
      <trkpt lat="44.16978" lon="7.24261">
        <time>1970-01-01T00:00:00+00:00</time>
        <ele>2740.0</ele>
      </trkpt>
      <trkpt lat="44.16978" lon="7.24261">
        <time>1970-01-01T00:00:00+00:00</time>
        <ele>2740.0</ele>
      </trkpt>
      <trkpt lat="44.16995224112189" lon="7.242682230147889">
        <time>1970-01-01T00:00:00+00:00</time>
        <ele>2749.0</ele>
      </trkpt>
      <trkpt lat="44.17009" lon="7.24274">
        <time>1970-01-01T00:00:00+00:00</time>
        <ele>2755.0</ele>
      </trkpt>
      <trkpt lat="44.17009" lon="7.24274">
        <time>1970-01-01T00:00:00+00:00</time>
        <ele>2755.0</ele>
      </trkpt>
      <trkpt lat="44.17023373532513" lon="7.242890746804406">
        <time>1970-01-01T00:00:00+00:00</time>
        <ele>2761.0</ele>
      </trkpt>
      <trkpt lat="44.17037747065026" lon="7.243041493608812">
        <time>1970-01-01T00:00:00+00:00</time>
        <ele>2768.0</ele>
      </trkpt>
      <trkpt lat="44.1705" lon="7.24317">
        <time>1970-01-01T00:00:00+00:00</time>
        <ele>2774.0</ele>
      </trkpt>
      <trkpt lat="44.1705" lon="7.24317">
        <time>1970-01-01T00:00:00+00:00</time>
        <ele>2774.0</ele>
      </trkpt>
      <trkpt lat="44.170657606288955" lon="7.243290831488199">
        <time>1970-01-01T00:00:00+00:00</time>
        <ele>2779.0</ele>
      </trkpt>
      <trkpt lat="44.1708" lon="7.2434">
        <time>1970-01-01T00:00:00+00:00</time>
        <ele>2783.0</ele>
      </trkpt>
      <trkpt lat="44.1708" lon="7.2434">
        <time>1970-01-01T00:00:00+00:00</time>
        <ele>2783.0</ele>
      </trkpt>
      <trkpt lat="44.170979786233275" lon="7.24339261152466">
        <time>1970-01-01T00:00:00+00:00</time>
        <ele>2785.0</ele>
      </trkpt>
      <trkpt lat="44.17115957246654" lon="7.243385223049321">
        <time>1970-01-01T00:00:00+00:00</time>
        <ele>2786.0</ele>
      </trkpt>
      <trkpt lat="44.17133935869982" lon="7.24337783457398">
        <time>1970-01-01T00:00:00+00:00</time>
        <ele>2787.0</ele>
      </trkpt>
      <trkpt lat="44.171519144933086" lon="7.24337044609864">
        <time>1970-01-01T00:00:00+00:00</time>
        <ele>2790.0</ele>
      </trkpt>
      <trkpt lat="44.17153" lon="7.24337">
        <time>1970-01-01T00:00:00+00:00</time>
        <ele>2790.0</ele>
      </trkpt>
      <trkpt lat="44.17153" lon="7.24337">
        <time>1970-01-01T00:00:00+00:00</time>
        <ele>2790.0</ele>
      </trkpt>
      <trkpt lat="44.17162423360408" lon="7.243583596169248">
        <time>1970-01-01T00:00:00+00:00</time>
        <ele>2791.0</ele>
      </trkpt>
      <trkpt lat="44.17168" lon="7.24371">
        <time>1970-01-01T00:00:00+00:00</time>
        <ele>2786.0</ele>
      </trkpt>
      <trkpt lat="44.17168" lon="7.24371">
        <time>1970-01-01T00:00:00+00:00</time>
        <ele>2786.0</ele>
      </trkpt>
      <trkpt lat="44.171595389589235" lon="7.243488711233376">
        <time>1970-01-01T00:00:00+00:00</time>
        <ele>2793.0</ele>
      </trkpt>
      <trkpt lat="44.17155" lon="7.24337">
        <time>1970-01-01T00:00:00+00:00</time>
        <ele>2790.0</ele>
      </trkpt>
      <trkpt lat="44.17155" lon="7.24337">
        <time>1970-01-01T00:00:00+00:00</time>
        <ele>2790.0</ele>
      </trkpt>
      <trkpt lat="44.17137410541986" lon="7.243317605869743">
        <time>1970-01-01T00:00:00+00:00</time>
        <ele>2787.0</ele>
      </trkpt>
      <trkpt lat="44.17119821083971" lon="7.2432652117394865">
        <time>1970-01-01T00:00:00+00:00</time>
        <ele>2786.0</ele>
      </trkpt>
      <trkpt lat="44.17108" lon="7.24323">
        <time>1970-01-01T00:00:00+00:00</time>
        <ele>2785.0</ele>
      </trkpt>
      <trkpt lat="44.17108" lon="7.24323">
        <time>1970-01-01T00:00:00+00:00</time>
        <ele>2785.0</ele>
      </trkpt>
      <trkpt lat="44.17090125472534" lon="7.243257928949166">
        <time>1970-01-01T00:00:00+00:00</time>
        <ele>2784.0</ele>
      </trkpt>
      <trkpt lat="44.17072250945067" lon="7.243285857898334">
        <time>1970-01-01T00:00:00+00:00</time>
        <ele>2781.0</ele>
      </trkpt>
      <trkpt lat="44.170543764175996" lon="7.243313786847501">
        <time>1970-01-01T00:00:00+00:00</time>
        <ele>2776.0</ele>
      </trkpt>
      <trkpt lat="44.17044" lon="7.24333">
        <time>1970-01-01T00:00:00+00:00</time>
        <ele>2772.0</ele>
      </trkpt>
      <trkpt lat="44.17044" lon="7.24333">
        <time>1970-01-01T00:00:00+00:00</time>
        <ele>2772.0</ele>
      </trkpt>
      <trkpt lat="44.170278820121496" lon="7.243218709131508">
        <time>1970-01-01T00:00:00+00:00</time>
        <ele>2764.0</ele>
      </trkpt>
      <trkpt lat="44.170117640242985" lon="7.243107418263014">
        <time>1970-01-01T00:00:00+00:00</time>
        <ele>2756.0</ele>
      </trkpt>
      <trkpt lat="44.169956460364475" lon="7.24299612739452">
        <time>1970-01-01T00:00:00+00:00</time>
        <ele>2751.0</ele>
      </trkpt>
      <trkpt lat="44.16979528048597" lon="7.242884836526027">
        <time>1970-01-01T00:00:00+00:00</time>
        <ele>2743.0</ele>
      </trkpt>
      <trkpt lat="44.16963410060746" lon="7.242773545657533">
        <time>1970-01-01T00:00:00+00:00</time>
        <ele>2734.0</ele>
      </trkpt>
      <trkpt lat="44.1696" lon="7.24275">
        <time>1970-01-01T00:00:00+00:00</time>
        <ele>2733.0</ele>
      </trkpt>
      <trkpt lat="44.1696" lon="7.24275">
        <time>1970-01-01T00:00:00+00:00</time>
        <ele>2733.0</ele>
      </trkpt>
      <trkpt lat="44.16942705147661" lon="7.242818864001716">
        <time>1970-01-01T00:00:00+00:00</time>
        <ele>2725.0</ele>
      </trkpt>
      <trkpt lat="44.16925410295321" lon="7.242887728003433">
        <time>1970-01-01T00:00:00+00:00</time>
        <ele>2717.0</ele>
      </trkpt>
      <trkpt lat="44.16908115442982" lon="7.24295659200515">
        <time>1970-01-01T00:00:00+00:00</time>
        <ele>2709.0</ele>
      </trkpt>
      <trkpt lat="44.168908205906426" lon="7.243025456006866">
        <time>1970-01-01T00:00:00+00:00</time>
        <ele>2701.0</ele>
      </trkpt>
      <trkpt lat="44.16873525738302" lon="7.243094320008582">
        <time>1970-01-01T00:00:00+00:00</time>
        <ele>2697.0</ele>
      </trkpt>
      <trkpt lat="44.168562308859634" lon="7.2431631840102995">
        <time>1970-01-01T00:00:00+00:00</time>
        <ele>2693.0</ele>
      </trkpt>
      <trkpt lat="44.16838936033624" lon="7.2432320480120165">
        <time>1970-01-01T00:00:00+00:00</time>
        <ele>2690.0</ele>
      </trkpt>
      <trkpt lat="44.16821641181284" lon="7.243300912013732">
        <time>1970-01-01T00:00:00+00:00</time>
        <ele>2689.0</ele>
      </trkpt>
      <trkpt lat="44.16804346328945" lon="7.243369776015449">
        <time>1970-01-01T00:00:00+00:00</time>
        <ele>2689.0</ele>
      </trkpt>
      <trkpt lat="44.16787051476605" lon="7.243438640017166">
        <time>1970-01-01T00:00:00+00:00</time>
        <ele>2688.0</ele>
      </trkpt>
      <trkpt lat="44.16769756624265" lon="7.243507504018882">
        <time>1970-01-01T00:00:00+00:00</time>
        <ele>2687.0</ele>
      </trkpt>
      <trkpt lat="44.167524617719266" lon="7.243576368020598">
        <time>1970-01-01T00:00:00+00:00</time>
        <ele>2686.0</ele>
      </trkpt>
      <trkpt lat="44.16735166919587" lon="7.243645232022315">
        <time>1970-01-01T00:00:00+00:00</time>
        <ele>2684.0</ele>
      </trkpt>
      <trkpt lat="44.167178720672474" lon="7.243714096024032">
        <time>1970-01-01T00:00:00+00:00</time>
        <ele>2683.0</ele>
      </trkpt>
      <trkpt lat="44.16700577214908" lon="7.243782960025749">
        <time>1970-01-01T00:00:00+00:00</time>
        <ele>2681.0</ele>
      </trkpt>
      <trkpt lat="44.16683282362568" lon="7.243851824027464">
        <time>1970-01-01T00:00:00+00:00</time>
        <ele>2679.0</ele>
      </trkpt>
      <trkpt lat="44.16665987510228" lon="7.243920688029181">
        <time>1970-01-01T00:00:00+00:00</time>
        <ele>2676.0</ele>
      </trkpt>
      <trkpt lat="44.1664869265789" lon="7.243989552030898">
        <time>1970-01-01T00:00:00+00:00</time>
        <ele>2672.0</ele>
      </trkpt>
      <trkpt lat="44.1663139780555" lon="7.2440584160326145">
        <time>1970-01-01T00:00:00+00:00</time>
        <ele>2668.0</ele>
      </trkpt>
      <trkpt lat="44.16631" lon="7.24406">
        <time>1970-01-01T00:00:00+00:00</time>
        <ele>2668.0</ele>
      </trkpt>
      <trkpt lat="44.16631" lon="7.24406">
        <time>1970-01-01T00:00:00+00:00</time>
        <ele>2668.0</ele>
      </trkpt>
      <trkpt lat="44.16614349130322" lon="7.244154817452338">
        <time>1970-01-01T00:00:00+00:00</time>
        <ele>2662.0</ele>
      </trkpt>
      <trkpt lat="44.16597698260643" lon="7.2442496349046746">
        <time>1970-01-01T00:00:00+00:00</time>
        <ele>2658.0</ele>
      </trkpt>
      <trkpt lat="44.16581047390964" lon="7.244344452357011">
        <time>1970-01-01T00:00:00+00:00</time>
        <ele>2653.0</ele>
      </trkpt>
      <trkpt lat="44.16564396521285" lon="7.244439269809349">
        <time>1970-01-01T00:00:00+00:00</time>
        <ele>2646.0</ele>
      </trkpt>
      <trkpt lat="44.16559" lon="7.24447">
        <time>1970-01-01T00:00:00+00:00</time>
        <ele>2644.0</ele>
      </trkpt>
      <trkpt lat="44.16559" lon="7.24447">
        <time>1970-01-01T00:00:00+00:00</time>
        <ele>2644.0</ele>
      </trkpt>
      <trkpt lat="44.165410558967" lon="7.244452808044741">
        <time>1970-01-01T00:00:00+00:00</time>
        <ele>2637.0</ele>
      </trkpt>
      <trkpt lat="44.165231117933985" lon="7.244435616089483">
        <time>1970-01-01T00:00:00+00:00</time>
        <ele>2630.0</ele>
      </trkpt>
      <trkpt lat="44.16505167690097" lon="7.244418424134225">
        <time>1970-01-01T00:00:00+00:00</time>
        <ele>2624.0</ele>
      </trkpt>
      <trkpt lat="44.164872235867975" lon="7.244401232178967">
        <time>1970-01-01T00:00:00+00:00</time>
        <ele>2621.0</ele>
      </trkpt>
      <trkpt lat="44.16469279483496" lon="7.244384040223709">
        <time>1970-01-01T00:00:00+00:00</time>
        <ele>2618.0</ele>
      </trkpt>
      <trkpt lat="44.16451335380196" lon="7.2443668482684505">
        <time>1970-01-01T00:00:00+00:00</time>
        <ele>2615.0</ele>
      </trkpt>
      <trkpt lat="44.16433391276895" lon="7.244349656313192">
        <time>1970-01-01T00:00:00+00:00</time>
        <ele>2615.0</ele>
      </trkpt>
      <trkpt lat="44.16415447173594" lon="7.244332464357934">
        <time>1970-01-01T00:00:00+00:00</time>
        <ele>2613.0</ele>
      </trkpt>
      <trkpt lat="44.163975030702936" lon="7.244315272402677">
        <time>1970-01-01T00:00:00+00:00</time>
        <ele>2609.0</ele>
      </trkpt>
      <trkpt lat="44.16392" lon="7.24431">
        <time>1970-01-01T00:00:00+00:00</time>
        <ele>2608.0</ele>
      </trkpt>
      <trkpt lat="44.16392" lon="7.24431">
        <time>1970-01-01T00:00:00+00:00</time>
        <ele>2608.0</ele>
      </trkpt>
      <trkpt lat="44.1637401677197" lon="7.244314732428429">
        <time>1970-01-01T00:00:00+00:00</time>
        <ele>2603.0</ele>
      </trkpt>
      <trkpt lat="44.163560335439406" lon="7.244319464856858">
        <time>1970-01-01T00:00:00+00:00</time>
        <ele>2599.0</ele>
      </trkpt>
      <trkpt lat="44.16338050315911" lon="7.244324197285286">
        <time>1970-01-01T00:00:00+00:00</time>
        <ele>2593.0</ele>
      </trkpt>
      <trkpt lat="44.16320067087881" lon="7.244328929713715">
        <time>1970-01-01T00:00:00+00:00</time>
        <ele>2587.0</ele>
      </trkpt>
      <trkpt lat="44.16302083859852" lon="7.244333662142144">
        <time>1970-01-01T00:00:00+00:00</time>
        <ele>2581.0</ele>
      </trkpt>
      <trkpt lat="44.16284100631822" lon="7.244338394570573">
        <time>1970-01-01T00:00:00+00:00</time>
        <ele>2575.0</ele>
      </trkpt>
      <trkpt lat="44.16266117403793" lon="7.244343126999002">
        <time>1970-01-01T00:00:00+00:00</time>
        <ele>2569.0</ele>
      </trkpt>
      <trkpt lat="44.162481341757626" lon="7.244347859427431">
        <time>1970-01-01T00:00:00+00:00</time>
        <ele>2565.0</ele>
      </trkpt>
      <trkpt lat="44.1624" lon="7.24435">
        <time>1970-01-01T00:00:00+00:00</time>
        <ele>2563.0</ele>
      </trkpt>
      <trkpt lat="44.1624" lon="7.24435">
        <time>1970-01-01T00:00:00+00:00</time>
        <ele>2563.0</ele>
      </trkpt>
      <trkpt lat="44.16222104916037" lon="7.244375236656871">
        <time>1970-01-01T00:00:00+00:00</time>
        <ele>2558.0</ele>
      </trkpt>
      <trkpt lat="44.16204209832075" lon="7.244400473313741">
        <time>1970-01-01T00:00:00+00:00</time>
        <ele>2552.0</ele>
      </trkpt>
      <trkpt lat="44.161863147481114" lon="7.244425709970611">
        <time>1970-01-01T00:00:00+00:00</time>
        <ele>2548.0</ele>
      </trkpt>
      <trkpt lat="44.161684196641495" lon="7.244450946627482">
        <time>1970-01-01T00:00:00+00:00</time>
        <ele>2542.0</ele>
      </trkpt>
      <trkpt lat="44.16150524580186" lon="7.244476183284352">
        <time>1970-01-01T00:00:00+00:00</time>
        <ele>2536.0</ele>
      </trkpt>
      <trkpt lat="44.16132629496224" lon="7.244501419941223">
        <time>1970-01-01T00:00:00+00:00</time>
        <ele>2530.0</ele>
      </trkpt>
      <trkpt lat="44.16114734412261" lon="7.244526656598094">
        <time>1970-01-01T00:00:00+00:00</time>
        <ele>2523.0</ele>
      </trkpt>
      <trkpt lat="44.160968393282985" lon="7.244551893254965">
        <time>1970-01-01T00:00:00+00:00</time>
        <ele>2518.0</ele>
      </trkpt>
      <trkpt lat="44.16078944244336" lon="7.244577129911834">
        <time>1970-01-01T00:00:00+00:00</time>
        <ele>2515.0</ele>
      </trkpt>
      <trkpt lat="44.160610491603734" lon="7.244602366568705">
        <time>1970-01-01T00:00:00+00:00</time>
        <ele>2512.0</ele>
      </trkpt>
      <trkpt lat="44.1604315407641" lon="7.244627603225576">
        <time>1970-01-01T00:00:00+00:00</time>
        <ele>2508.0</ele>
      </trkpt>
      <trkpt lat="44.160252589924475" lon="7.244652839882446">
        <time>1970-01-01T00:00:00+00:00</time>
        <ele>2506.0</ele>
      </trkpt>
      <trkpt lat="44.16007363908485" lon="7.244678076539316">
        <time>1970-01-01T00:00:00+00:00</time>
        <ele>2505.0</ele>
      </trkpt>
      <trkpt lat="44.159894688245224" lon="7.244703313196187">
        <time>1970-01-01T00:00:00+00:00</time>
        <ele>2505.0</ele>
      </trkpt>
      <trkpt lat="44.15971573740559" lon="7.244728549853058">
        <time>1970-01-01T00:00:00+00:00</time>
        <ele>2505.0</ele>
      </trkpt>
      <trkpt lat="44.159536786565965" lon="7.2447537865099285">
        <time>1970-01-01T00:00:00+00:00</time>
        <ele>2503.0</ele>
      </trkpt>
      <trkpt lat="44.15935783572634" lon="7.244779023166799">
        <time>1970-01-01T00:00:00+00:00</time>
        <ele>2500.0</ele>
      </trkpt>
      <trkpt lat="44.15928" lon="7.24479">
        <time>1970-01-01T00:00:00+00:00</time>
        <ele>2498.0</ele>
      </trkpt>
      <trkpt lat="44.15928" lon="7.24479">
        <time>1970-01-01T00:00:00+00:00</time>
        <ele>2498.0</ele>
      </trkpt>
      <trkpt lat="44.1591005861475" lon="7.244772267235509">
        <time>1970-01-01T00:00:00+00:00</time>
        <ele>2497.0</ele>
      </trkpt>
      <trkpt lat="44.15892117229501" lon="7.244754534471018">
        <time>1970-01-01T00:00:00+00:00</time>
        <ele>2498.0</ele>
      </trkpt>
      <trkpt lat="44.15874175844251" lon="7.2447368017065275">
        <time>1970-01-01T00:00:00+00:00</time>
        <ele>2499.0</ele>
      </trkpt>
      <trkpt lat="44.15856234459001" lon="7.244719068942036">
        <time>1970-01-01T00:00:00+00:00</time>
        <ele>2495.0</ele>
      </trkpt>
      <trkpt lat="44.15838293073752" lon="7.244701336177545">
        <time>1970-01-01T00:00:00+00:00</time>
        <ele>2490.0</ele>
      </trkpt>
      <trkpt lat="44.15820351688501" lon="7.244683603413054">
        <time>1970-01-01T00:00:00+00:00</time>
        <ele>2482.0</ele>
      </trkpt>
      <trkpt lat="44.15802410303252" lon="7.244665870648563">
        <time>1970-01-01T00:00:00+00:00</time>
        <ele>2475.0</ele>
      </trkpt>
      <trkpt lat="44.157844689180024" lon="7.244648137884072">
        <time>1970-01-01T00:00:00+00:00</time>
        <ele>2467.0</ele>
      </trkpt>
      <trkpt lat="44.15766527532752" lon="7.244630405119581">
        <time>1970-01-01T00:00:00+00:00</time>
        <ele>2459.0</ele>
      </trkpt>
      <trkpt lat="44.15756" lon="7.24462">
        <time>1970-01-01T00:00:00+00:00</time>
        <ele>2453.0</ele>
      </trkpt>
      <trkpt lat="44.15756" lon="7.24462">
        <time>1970-01-01T00:00:00+00:00</time>
        <ele>2453.0</ele>
      </trkpt>
      <trkpt lat="44.157392760409685" lon="7.244527729881209">
        <time>1970-01-01T00:00:00+00:00</time>
        <ele>2443.0</ele>
      </trkpt>
      <trkpt lat="44.15722552081938" lon="7.244435459762419">
        <time>1970-01-01T00:00:00+00:00</time>
        <ele>2434.0</ele>
      </trkpt>
      <trkpt lat="44.15705828122907" lon="7.24434318964363">
        <time>1970-01-01T00:00:00+00:00</time>
        <ele>2427.0</ele>
      </trkpt>
      <trkpt lat="44.15698" lon="7.2443">
        <time>1970-01-01T00:00:00+00:00</time>
        <ele>2425.0</ele>
      </trkpt>
      <trkpt lat="44.15698" lon="7.2443">
        <time>1970-01-01T00:00:00+00:00</time>
        <ele>2425.0</ele>
      </trkpt>
      <trkpt lat="44.15680782003099" lon="7.244372496829054">
        <time>1970-01-01T00:00:00+00:00</time>
        <ele>2421.0</ele>
      </trkpt>
      <trkpt lat="44.15663564006199" lon="7.244444993658108">
        <time>1970-01-01T00:00:00+00:00</time>
        <ele>2418.0</ele>
      </trkpt>
      <trkpt lat="44.1566" lon="7.24446">
        <time>1970-01-01T00:00:00+00:00</time>
        <ele>2417.0</ele>
      </trkpt>
      <trkpt lat="44.1566" lon="7.24446">
        <time>1970-01-01T00:00:00+00:00</time>
        <ele>2417.0</ele>
      </trkpt>
      <trkpt lat="44.156420135678815" lon="7.24446">
        <time>1970-01-01T00:00:00+00:00</time>
        <ele>2410.0</ele>
      </trkpt>
      <trkpt lat="44.156240271357625" lon="7.24446">
        <time>1970-01-01T00:00:00+00:00</time>
        <ele>2401.0</ele>
      </trkpt>
      <trkpt lat="44.15614" lon="7.24446">
        <time>1970-01-01T00:00:00+00:00</time>
        <ele>2396.0</ele>
      </trkpt>
      <trkpt lat="44.15614" lon="7.24446">
        <time>1970-01-01T00:00:00+00:00</time>
        <ele>2396.0</ele>
      </trkpt>
      <trkpt lat="44.15597214452795" lon="7.244369931210117">
        <time>1970-01-01T00:00:00+00:00</time>
        <ele>2388.0</ele>
      </trkpt>
      <trkpt lat="44.155804289055894" lon="7.2442798624202345">
        <time>1970-01-01T00:00:00+00:00</time>
        <ele>2379.0</ele>
      </trkpt>
      <trkpt lat="44.15563643358384" lon="7.244189793630351">
        <time>1970-01-01T00:00:00+00:00</time>
        <ele>2367.0</ele>
      </trkpt>
      <trkpt lat="44.15546857811179" lon="7.244099724840469">
        <time>1970-01-01T00:00:00+00:00</time>
        <ele>2356.0</ele>
      </trkpt>
      <trkpt lat="44.15532" lon="7.24402">
        <time>1970-01-01T00:00:00+00:00</time>
        <ele>2350.0</ele>
      </trkpt>
      <trkpt lat="44.15532" lon="7.24402">
        <time>1970-01-01T00:00:00+00:00</time>
        <ele>2350.0</ele>
      </trkpt>
      <trkpt lat="44.15514016110387" lon="7.244015785025873">
        <time>1970-01-01T00:00:00+00:00</time>
        <ele>2345.0</ele>
      </trkpt>
      <trkpt lat="44.15496032220775" lon="7.244011570051743">
        <time>1970-01-01T00:00:00+00:00</time>
        <ele>2342.0</ele>
      </trkpt>
      <trkpt lat="44.154780483311626" lon="7.244007355077616">
        <time>1970-01-01T00:00:00+00:00</time>
        <ele>2339.0</ele>
      </trkpt>
      <trkpt lat="44.154600644415495" lon="7.244003140103488">
        <time>1970-01-01T00:00:00+00:00</time>
        <ele>2337.0</ele>
      </trkpt>
      <trkpt lat="44.154420805519365" lon="7.243998925129359">
        <time>1970-01-01T00:00:00+00:00</time>
        <ele>2335.0</ele>
      </trkpt>
      <trkpt lat="44.15424096662325" lon="7.243994710155232">
        <time>1970-01-01T00:00:00+00:00</time>
        <ele>2333.0</ele>
      </trkpt>
      <trkpt lat="44.15406112772712" lon="7.243990495181103">
        <time>1970-01-01T00:00:00+00:00</time>
        <ele>2330.0</ele>
      </trkpt>
      <trkpt lat="44.15388128883099" lon="7.243986280206976">
        <time>1970-01-01T00:00:00+00:00</time>
        <ele>2328.0</ele>
      </trkpt>
      <trkpt lat="44.15370144993487" lon="7.243982065232849">
        <time>1970-01-01T00:00:00+00:00</time>
        <ele>2326.0</ele>
      </trkpt>
      <trkpt lat="44.15352161103874" lon="7.2439778502587195">
        <time>1970-01-01T00:00:00+00:00</time>
        <ele>2321.0</ele>
      </trkpt>
      <trkpt lat="44.15334177214261" lon="7.2439736352845925">
        <time>1970-01-01T00:00:00+00:00</time>
        <ele>2315.0</ele>
      </trkpt>
      <trkpt lat="44.153161933246494" lon="7.243969420310464">
        <time>1970-01-01T00:00:00+00:00</time>
        <ele>2311.0</ele>
      </trkpt>
      <trkpt lat="44.152982094350364" lon="7.243965205336337">
        <time>1970-01-01T00:00:00+00:00</time>
        <ele>2307.0</ele>
      </trkpt>
      <trkpt lat="44.15280225545423" lon="7.243960990362209">
        <time>1970-01-01T00:00:00+00:00</time>
        <ele>2303.0</ele>
      </trkpt>
      <trkpt lat="44.15262241655811" lon="7.24395677538808">
        <time>1970-01-01T00:00:00+00:00</time>
        <ele>2301.0</ele>
      </trkpt>
      <trkpt lat="44.15244257766198" lon="7.243952560413953">
        <time>1970-01-01T00:00:00+00:00</time>
        <ele>2299.0</ele>
      </trkpt>
      <trkpt lat="44.152262738765856" lon="7.243948345439825">
        <time>1970-01-01T00:00:00+00:00</time>
        <ele>2297.0</ele>
      </trkpt>
      <trkpt lat="44.15208289986973" lon="7.243944130465696">
        <time>1970-01-01T00:00:00+00:00</time>
        <ele>2294.0</ele>
      </trkpt>
      <trkpt lat="44.15190306097361" lon="7.243939915491569">
        <time>1970-01-01T00:00:00+00:00</time>
        <ele>2291.0</ele>
      </trkpt>
      <trkpt lat="44.15172322207748" lon="7.24393570051744">
        <time>1970-01-01T00:00:00+00:00</time>
        <ele>2286.0</ele>
      </trkpt>
      <trkpt lat="44.151543383181355" lon="7.243931485543312">
        <time>1970-01-01T00:00:00+00:00</time>
        <ele>2280.0</ele>
      </trkpt>
      <trkpt lat="44.15148" lon="7.24393">
        <time>1970-01-01T00:00:00+00:00</time>
        <ele>2278.0</ele>
      </trkpt>
      <trkpt lat="44.15148" lon="7.24393">
        <time>1970-01-01T00:00:00+00:00</time>
        <ele>2278.0</ele>
      </trkpt>
      <trkpt lat="44.151359793249064" lon="7.24411647457518">
        <time>1970-01-01T00:00:00+00:00</time>
        <ele>2274.0</ele>
      </trkpt>
      <trkpt lat="44.151239586498114" lon="7.2443029491503586">
        <time>1970-01-01T00:00:00+00:00</time>
        <ele>2272.0</ele>
      </trkpt>
      <trkpt lat="44.15111937974717" lon="7.244489423725538">
        <time>1970-01-01T00:00:00+00:00</time>
        <ele>2271.0</ele>
      </trkpt>
      <trkpt lat="44.15099917299624" lon="7.244675898300718">
        <time>1970-01-01T00:00:00+00:00</time>
        <ele>2270.0</ele>
      </trkpt>
      <trkpt lat="44.15087896624529" lon="7.244862372875898">
        <time>1970-01-01T00:00:00+00:00</time>
        <ele>2269.0</ele>
      </trkpt>
      <trkpt lat="44.150758759494344" lon="7.245048847451077">
        <time>1970-01-01T00:00:00+00:00</time>
        <ele>2270.0</ele>
      </trkpt>
      <trkpt lat="44.1507" lon="7.24514">
        <time>1970-01-01T00:00:00+00:00</time>
        <ele>2270.0</ele>
      </trkpt>
      <trkpt lat="44.1507" lon="7.24514">
        <time>1970-01-01T00:00:00+00:00</time>
        <ele>2270.0</ele>
      </trkpt>
      <trkpt lat="44.150542479144605" lon="7.245018995342899">
        <time>1970-01-01T00:00:00+00:00</time>
        <ele>2268.0</ele>
      </trkpt>
      <trkpt lat="44.15038495828921" lon="7.2448979906858">
        <time>1970-01-01T00:00:00+00:00</time>
        <ele>2265.0</ele>
      </trkpt>
      <trkpt lat="44.150227437433806" lon="7.244776986028699">
        <time>1970-01-01T00:00:00+00:00</time>
        <ele>2263.0</ele>
      </trkpt>
      <trkpt lat="44.15006991657842" lon="7.244655981371599">
        <time>1970-01-01T00:00:00+00:00</time>
        <ele>2261.0</ele>
      </trkpt>
      <trkpt lat="44.149912395723014" lon="7.2445349767144975">
        <time>1970-01-01T00:00:00+00:00</time>
        <ele>2259.0</ele>
      </trkpt>
      <trkpt lat="44.14975487486761" lon="7.244413972057398">
        <time>1970-01-01T00:00:00+00:00</time>
        <ele>2258.0</ele>
      </trkpt>
      <trkpt lat="44.14959735401222" lon="7.244292967400297">
        <time>1970-01-01T00:00:00+00:00</time>
        <ele>2256.0</ele>
      </trkpt>
      <trkpt lat="44.14943983315682" lon="7.244171962743197">
        <time>1970-01-01T00:00:00+00:00</time>
        <ele>2255.0</ele>
      </trkpt>
      <trkpt lat="44.14928231230142" lon="7.244050958086096">
        <time>1970-01-01T00:00:00+00:00</time>
        <ele>2253.0</ele>
      </trkpt>
      <trkpt lat="44.14912479144603" lon="7.243929953428996">
        <time>1970-01-01T00:00:00+00:00</time>
        <ele>2251.0</ele>
      </trkpt>
      <trkpt lat="44.14896727059063" lon="7.243808948771896">
        <time>1970-01-01T00:00:00+00:00</time>
        <ele>2248.0</ele>
      </trkpt>
      <trkpt lat="44.148809749735236" lon="7.243687944114795">
        <time>1970-01-01T00:00:00+00:00</time>
        <ele>2247.0</ele>
      </trkpt>
      <trkpt lat="44.14865222887984" lon="7.243566939457695">
        <time>1970-01-01T00:00:00+00:00</time>
        <ele>2248.0</ele>
      </trkpt>
      <trkpt lat="44.1485" lon="7.24345">
        <time>1970-01-01T00:00:00+00:00</time>
        <ele>2244.0</ele>
      </trkpt>
      <trkpt lat="44.1485" lon="7.24345">
        <time>1970-01-01T00:00:00+00:00</time>
        <ele>2244.0</ele>
      </trkpt>
      <trkpt lat="44.14837087234201" lon="7.24327550316487">
        <time>1970-01-01T00:00:00+00:00</time>
        <ele>2235.0</ele>
      </trkpt>
      <trkpt lat="44.14824174468401" lon="7.243101006329741">
        <time>1970-01-01T00:00:00+00:00</time>
        <ele>2228.0</ele>
      </trkpt>
      <trkpt lat="44.14811261702601" lon="7.242926509494611">
        <time>1970-01-01T00:00:00+00:00</time>
        <ele>2224.0</ele>
      </trkpt>
      <trkpt lat="44.147983489368016" lon="7.242752012659482">
        <time>1970-01-01T00:00:00+00:00</time>
        <ele>2222.0</ele>
      </trkpt>
      <trkpt lat="44.14785436171002" lon="7.242577515824352">
        <time>1970-01-01T00:00:00+00:00</time>
        <ele>2221.0</ele>
      </trkpt>
      <trkpt lat="44.14776" lon="7.24245">
        <time>1970-01-01T00:00:00+00:00</time>
        <ele>2221.0</ele>
      </trkpt>
      <trkpt lat="44.14776" lon="7.24245">
        <time>1970-01-01T00:00:00+00:00</time>
        <ele>2221.0</ele>
      </trkpt>
      <trkpt lat="44.147630036010426" lon="7.242276714680569">
        <time>1970-01-01T00:00:00+00:00</time>
        <ele>2221.0</ele>
      </trkpt>
      <trkpt lat="44.14755" lon="7.24217">
        <time>1970-01-01T00:00:00+00:00</time>
        <ele>2221.0</ele>
      </trkpt>
      <trkpt lat="44.14755" lon="7.24217">
        <time>1970-01-01T00:00:00+00:00</time>
        <ele>2221.0</ele>
      </trkpt>
      <trkpt lat="44.14756191023597" lon="7.241919885044703">
        <time>1970-01-01T00:00:00+00:00</time>
        <ele>2218.0</ele>
      </trkpt>
      <trkpt lat="44.14757382047193" lon="7.241669770089405">
        <time>1970-01-01T00:00:00+00:00</time>
        <ele>2215.0</ele>
      </trkpt>
      <trkpt lat="44.1475857307079" lon="7.241419655134107">
        <time>1970-01-01T00:00:00+00:00</time>
        <ele>2210.0</ele>
      </trkpt>
      <trkpt lat="44.14759" lon="7.24133">
        <time>1970-01-01T00:00:00+00:00</time>
        <ele>2207.0</ele>
      </trkpt>
      <trkpt lat="44.14759" lon="7.24133">
        <time>1970-01-01T00:00:00+00:00</time>
        <ele>2207.0</ele>
      </trkpt>
      <trkpt lat="44.147610749323505" lon="7.241081008117955">
        <time>1970-01-01T00:00:00+00:00</time>
        <ele>2198.0</ele>
      </trkpt>
      <trkpt lat="44.14763149864701" lon="7.24083201623591">
        <time>1970-01-01T00:00:00+00:00</time>
        <ele>2187.0</ele>
      </trkpt>
      <trkpt lat="44.14765224797051" lon="7.240583024353866">
        <time>1970-01-01T00:00:00+00:00</time>
        <ele>2180.0</ele>
      </trkpt>
      <trkpt lat="44.147672997294016" lon="7.2403340324718215">
        <time>1970-01-01T00:00:00+00:00</time>
        <ele>2173.0</ele>
      </trkpt>
      <trkpt lat="44.14769" lon="7.24013">
        <time>1970-01-01T00:00:00+00:00</time>
        <ele>2168.0</ele>
      </trkpt>
      <trkpt lat="44.14769" lon="7.24013">
        <time>1970-01-01T00:00:00+00:00</time>
        <ele>2168.0</ele>
      </trkpt>
      <trkpt lat="44.14770087855629" lon="7.239879793205182">
        <time>1970-01-01T00:00:00+00:00</time>
        <ele>2162.0</ele>
      </trkpt>
      <trkpt lat="44.147711757112596" lon="7.2396295864103655">
        <time>1970-01-01T00:00:00+00:00</time>
        <ele>2157.0</ele>
      </trkpt>
      <trkpt lat="44.14772" lon="7.23944">
        <time>1970-01-01T00:00:00+00:00</time>
        <ele>2153.0</ele>
      </trkpt>
      <trkpt lat="44.14772" lon="7.23944">
        <time>1970-01-01T00:00:00+00:00</time>
        <ele>2153.0</ele>
      </trkpt>
      <trkpt lat="44.147565293645044" lon="7.239312143508301">
        <time>1970-01-01T00:00:00+00:00</time>
        <ele>2151.0</ele>
      </trkpt>
      <trkpt lat="44.14741058729009" lon="7.239184287016601">
        <time>1970-01-01T00:00:00+00:00</time>
        <ele>2152.0</ele>
      </trkpt>
      <trkpt lat="44.147255880935134" lon="7.239056430524902">
        <time>1970-01-01T00:00:00+00:00</time>
        <ele>2156.0</ele>
      </trkpt>
      <trkpt lat="44.14710117458017" lon="7.238928574033202">
        <time>1970-01-01T00:00:00+00:00</time>
        <ele>2158.0</ele>
      </trkpt>
      <trkpt lat="44.146946468225224" lon="7.238800717541504">
        <time>1970-01-01T00:00:00+00:00</time>
        <ele>2158.0</ele>
      </trkpt>
      <trkpt lat="44.14679176187026" lon="7.238672861049804">
        <time>1970-01-01T00:00:00+00:00</time>
        <ele>2157.0</ele>
      </trkpt>
      <trkpt lat="44.1466370555153" lon="7.2385450045581035">
        <time>1970-01-01T00:00:00+00:00</time>
        <ele>2154.0</ele>
      </trkpt>
      <trkpt lat="44.14648234916035" lon="7.2384171480664055">
        <time>1970-01-01T00:00:00+00:00</time>
        <ele>2151.0</ele>
      </trkpt>
      <trkpt lat="44.146327642805396" lon="7.238289291574706">
        <time>1970-01-01T00:00:00+00:00</time>
        <ele>2149.0</ele>
      </trkpt>
      <trkpt lat="44.14617293645044" lon="7.238161435083007">
        <time>1970-01-01T00:00:00+00:00</time>
        <ele>2145.0</ele>
      </trkpt>
      <trkpt lat="44.14601823009548" lon="7.238033578591306">
        <time>1970-01-01T00:00:00+00:00</time>
        <ele>2143.0</ele>
      </trkpt>
      <trkpt lat="44.14586352374052" lon="7.237905722099607">
        <time>1970-01-01T00:00:00+00:00</time>
        <ele>2140.0</ele>
      </trkpt>
      <trkpt lat="44.14570881738557" lon="7.237777865607908">
        <time>1970-01-01T00:00:00+00:00</time>
        <ele>2139.0</ele>
      </trkpt>
      <trkpt lat="44.145554111030606" lon="7.237650009116209">
        <time>1970-01-01T00:00:00+00:00</time>
        <ele>2137.0</ele>
      </trkpt>
      <trkpt lat="44.14539940467566" lon="7.23752215262451">
        <time>1970-01-01T00:00:00+00:00</time>
        <ele>2132.0</ele>
      </trkpt>
      <trkpt lat="44.1453" lon="7.23744">
        <time>1970-01-01T00:00:00+00:00</time>
        <ele>2128.0</ele>
      </trkpt>
      <trkpt lat="44.1453" lon="7.23744">
        <time>1970-01-01T00:00:00+00:00</time>
        <ele>2128.0</ele>
      </trkpt>
      <trkpt lat="44.14521291765776" lon="7.237220681508434">
        <time>1970-01-01T00:00:00+00:00</time>
        <ele>2122.0</ele>
      </trkpt>
      <trkpt lat="44.14512583531552" lon="7.237001363016868">
        <time>1970-01-01T00:00:00+00:00</time>
        <ele>2115.0</ele>
      </trkpt>
      <trkpt lat="44.145038752973285" lon="7.236782044525302">
        <time>1970-01-01T00:00:00+00:00</time>
        <ele>2110.0</ele>
      </trkpt>
      <trkpt lat="44.14503" lon="7.23676">
        <time>1970-01-01T00:00:00+00:00</time>
        <ele>2109.0</ele>
      </trkpt>
      <trkpt lat="44.14503" lon="7.23676">
        <time>1970-01-01T00:00:00+00:00</time>
        <ele>2109.0</ele>
      </trkpt>
      <trkpt lat="44.14486002941084" lon="7.236841985813594">
        <time>1970-01-01T00:00:00+00:00</time>
        <ele>2104.0</ele>
      </trkpt>
      <trkpt lat="44.14469005882168" lon="7.236923971627188">
        <time>1970-01-01T00:00:00+00:00</time>
        <ele>2100.0</ele>
      </trkpt>
      <trkpt lat="44.144520088232525" lon="7.237005957440781">
        <time>1970-01-01T00:00:00+00:00</time>
        <ele>2098.0</ele>
      </trkpt>
      <trkpt lat="44.14435011764337" lon="7.237087943254375">
        <time>1970-01-01T00:00:00+00:00</time>
        <ele>2098.0</ele>
      </trkpt>
      <trkpt lat="44.14418014705421" lon="7.237169929067969">
        <time>1970-01-01T00:00:00+00:00</time>
        <ele>2100.0</ele>
      </trkpt>
      <trkpt lat="44.14418" lon="7.23717">
        <time>1970-01-01T00:00:00+00:00</time>
        <ele>2100.0</ele>
      </trkpt>
      <trkpt lat="44.14418" lon="7.23717">
        <time>1970-01-01T00:00:00+00:00</time>
        <ele>2100.0</ele>
      </trkpt>
      <trkpt lat="44.144048964972896" lon="7.236998298930008">
        <time>1970-01-01T00:00:00+00:00</time>
        <ele>2097.0</ele>
      </trkpt>
      <trkpt lat="44.1439179299458" lon="7.236826597860016">
        <time>1970-01-01T00:00:00+00:00</time>
        <ele>2093.0</ele>
      </trkpt>
      <trkpt lat="44.14389" lon="7.23679">
        <time>1970-01-01T00:00:00+00:00</time>
        <ele>2092.0</ele>
      </trkpt>
      <trkpt lat="44.14389" lon="7.23679">
        <time>1970-01-01T00:00:00+00:00</time>
        <ele>2092.0</ele>
      </trkpt>
      <trkpt lat="44.1437761224503" lon="7.236595986396804">
        <time>1970-01-01T00:00:00+00:00</time>
        <ele>2089.0</ele>
      </trkpt>
      <trkpt lat="44.14366224490059" lon="7.236401972793608">
        <time>1970-01-01T00:00:00+00:00</time>
        <ele>2085.0</ele>
      </trkpt>
      <trkpt lat="44.14362" lon="7.23633">
        <time>1970-01-01T00:00:00+00:00</time>
        <ele>2083.0</ele>
      </trkpt>
      <trkpt lat="44.14362" lon="7.23633">
        <time>1970-01-01T00:00:00+00:00</time>
        <ele>2083.0</ele>
      </trkpt>
      <trkpt lat="44.14346835912887" lon="7.236195208114553">
        <time>1970-01-01T00:00:00+00:00</time>
        <ele>2080.0</ele>
      </trkpt>
      <trkpt lat="44.14331671825774" lon="7.2360604162291065">
        <time>1970-01-01T00:00:00+00:00</time>
        <ele>2076.0</ele>
      </trkpt>
      <trkpt lat="44.14316507738661" lon="7.235925624343659">
        <time>1970-01-01T00:00:00+00:00</time>
        <ele>2072.0</ele>
      </trkpt>
      <trkpt lat="44.14301343651549" lon="7.235790832458213">
        <time>1970-01-01T00:00:00+00:00</time>
        <ele>2068.0</ele>
      </trkpt>
      <trkpt lat="44.14286179564436" lon="7.235656040572765">
        <time>1970-01-01T00:00:00+00:00</time>
        <ele>2064.0</ele>
      </trkpt>
      <trkpt lat="44.14271015477323" lon="7.235521248687318">
        <time>1970-01-01T00:00:00+00:00</time>
        <ele>2059.0</ele>
      </trkpt>
      <trkpt lat="44.1425585139021" lon="7.235386456801873">
        <time>1970-01-01T00:00:00+00:00</time>
        <ele>2055.0</ele>
      </trkpt>
      <trkpt lat="44.14240687303098" lon="7.235251664916426">
        <time>1970-01-01T00:00:00+00:00</time>
        <ele>2050.0</ele>
      </trkpt>
      <trkpt lat="44.142255232159854" lon="7.235116873030979">
        <time>1970-01-01T00:00:00+00:00</time>
        <ele>2046.0</ele>
      </trkpt>
      <trkpt lat="44.14210359128872" lon="7.234982081145532">
        <time>1970-01-01T00:00:00+00:00</time>
        <ele>2042.0</ele>
      </trkpt>
      <trkpt lat="44.14195195041759" lon="7.234847289260085">
        <time>1970-01-01T00:00:00+00:00</time>
        <ele>2038.0</ele>
      </trkpt>
      <trkpt lat="44.14191" lon="7.23481">
        <time>1970-01-01T00:00:00+00:00</time>
        <ele>2037.0</ele>
      </trkpt>
      <trkpt lat="44.14191" lon="7.23481">
        <time>1970-01-01T00:00:00+00:00</time>
        <ele>2037.0</ele>
      </trkpt>
      <trkpt lat="44.141761446372534" lon="7.234668692890949">
        <time>1970-01-01T00:00:00+00:00</time>
        <ele>2032.0</ele>
      </trkpt>
      <trkpt lat="44.14161289274507" lon="7.234527385781897">
        <time>1970-01-01T00:00:00+00:00</time>
        <ele>2027.0</ele>
      </trkpt>
      <trkpt lat="44.141464339117604" lon="7.234386078672844">
        <time>1970-01-01T00:00:00+00:00</time>
        <ele>2021.0</ele>
      </trkpt>
      <trkpt lat="44.141315785490136" lon="7.234244771563793">
        <time>1970-01-01T00:00:00+00:00</time>
        <ele>2018.0</ele>
      </trkpt>
      <trkpt lat="44.141167231862674" lon="7.23410346445474">
        <time>1970-01-01T00:00:00+00:00</time>
        <ele>2016.0</ele>
      </trkpt>
      <trkpt lat="44.14109" lon="7.23403">
        <time>1970-01-01T00:00:00+00:00</time>
        <ele>2015.0</ele>
      </trkpt>
      <trkpt lat="44.14109" lon="7.23403">
        <time>1970-01-01T00:00:00+00:00</time>
        <ele>2015.0</ele>
      </trkpt>
      <trkpt lat="44.14093064692881" lon="7.23414623400487">
        <time>1970-01-01T00:00:00+00:00</time>
        <ele>2023.0</ele>
      </trkpt>
      <trkpt lat="44.14077129385761" lon="7.234262468009739">
        <time>1970-01-01T00:00:00+00:00</time>
        <ele>2032.0</ele>
      </trkpt>
      <trkpt lat="44.14061194078643" lon="7.234378702014608">
        <time>1970-01-01T00:00:00+00:00</time>
        <ele>2043.0</ele>
      </trkpt>
      <trkpt lat="44.14045258771523" lon="7.234494936019479">
        <time>1970-01-01T00:00:00+00:00</time>
        <ele>2052.0</ele>
      </trkpt>
      <trkpt lat="44.14029323464404" lon="7.234611170024348">
        <time>1970-01-01T00:00:00+00:00</time>
        <ele>2058.0</ele>
      </trkpt>
      <trkpt lat="44.14024" lon="7.23465">
        <time>1970-01-01T00:00:00+00:00</time>
        <ele>2059.0</ele>
      </trkpt>
      <trkpt lat="44.14024" lon="7.23465">
        <time>1970-01-01T00:00:00+00:00</time>
        <ele>2059.0</ele>
      </trkpt>
      <trkpt lat="44.14006027534233" lon="7.23464012501881">
        <time>1970-01-01T00:00:00+00:00</time>
        <ele>2055.0</ele>
      </trkpt>
      <trkpt lat="44.139880550684666" lon="7.234630250037619">
        <time>1970-01-01T00:00:00+00:00</time>
        <ele>2045.0</ele>
      </trkpt>
      <trkpt lat="44.13970082602699" lon="7.234620375056428">
        <time>1970-01-01T00:00:00+00:00</time>
        <ele>2033.0</ele>
      </trkpt>
      <trkpt lat="44.13952110136932" lon="7.234610500075237">
        <time>1970-01-01T00:00:00+00:00</time>
        <ele>2024.0</ele>
      </trkpt>
      <trkpt lat="44.13934137671165" lon="7.234600625094047">
        <time>1970-01-01T00:00:00+00:00</time>
        <ele>2017.0</ele>
      </trkpt>
      <trkpt lat="44.13933" lon="7.2346">
        <time>1970-01-01T00:00:00+00:00</time>
        <ele>2017.0</ele>
      </trkpt>
      <trkpt lat="44.13933" lon="7.2346">
        <time>1970-01-01T00:00:00+00:00</time>
        <ele>2017.0</ele>
      </trkpt>
      <trkpt lat="44.13929" lon="7.23465">
        <time>1970-01-01T00:00:00+00:00</time>
        <ele>2018.0</ele>
      </trkpt>
      <trkpt lat="44.13929" lon="7.23465">
        <time>1970-01-01T00:00:00+00:00</time>
        <ele>2018.0</ele>
      </trkpt>
      <trkpt lat="44.13926" lon="7.2347">
        <time>1970-01-01T00:00:00+00:00</time>
        <ele>2020.0</ele>
      </trkpt>
      <trkpt lat="44.13926" lon="7.2347">
        <time>1970-01-01T00:00:00+00:00</time>
        <ele>2020.0</ele>
      </trkpt>
      <trkpt lat="44.13922" lon="7.23475">
        <time>1970-01-01T00:00:00+00:00</time>
        <ele>2021.0</ele>
      </trkpt>
      <trkpt lat="44.13922" lon="7.23475">
        <time>1970-01-01T00:00:00+00:00</time>
        <ele>2021.0</ele>
      </trkpt>
      <trkpt lat="44.13918" lon="7.2348">
        <time>1970-01-01T00:00:00+00:00</time>
        <ele>2022.0</ele>
      </trkpt>
      <trkpt lat="44.13918" lon="7.2348">
        <time>1970-01-01T00:00:00+00:00</time>
        <ele>2022.0</ele>
      </trkpt>
      <trkpt lat="44.13914" lon="7.23485">
        <time>1970-01-01T00:00:00+00:00</time>
        <ele>2023.0</ele>
      </trkpt>
      <trkpt lat="44.13914" lon="7.23485">
        <time>1970-01-01T00:00:00+00:00</time>
        <ele>2023.0</ele>
      </trkpt>
      <trkpt lat="44.1391" lon="7.2349">
        <time>1970-01-01T00:00:00+00:00</time>
        <ele>2024.0</ele>
      </trkpt>
      <trkpt lat="44.1391" lon="7.2349">
        <time>1970-01-01T00:00:00+00:00</time>
        <ele>2024.0</ele>
      </trkpt>
      <trkpt lat="44.13906" lon="7.23495">
        <time>1970-01-01T00:00:00+00:00</time>
        <ele>2025.0</ele>
      </trkpt>
      <trkpt lat="44.13906" lon="7.23495">
        <time>1970-01-01T00:00:00+00:00</time>
        <ele>2025.0</ele>
      </trkpt>
      <trkpt lat="44.13902" lon="7.235">
        <time>1970-01-01T00:00:00+00:00</time>
        <ele>2026.0</ele>
      </trkpt>
      <trkpt lat="44.13902" lon="7.235">
        <time>1970-01-01T00:00:00+00:00</time>
        <ele>2026.0</ele>
      </trkpt>
      <trkpt lat="44.13899" lon="7.23505">
        <time>1970-01-01T00:00:00+00:00</time>
        <ele>2027.0</ele>
      </trkpt>
      <trkpt lat="44.13899" lon="7.23505">
        <time>1970-01-01T00:00:00+00:00</time>
        <ele>2027.0</ele>
      </trkpt>
      <trkpt lat="44.13895" lon="7.2351">
        <time>1970-01-01T00:00:00+00:00</time>
        <ele>2028.0</ele>
      </trkpt>
      <trkpt lat="44.13895" lon="7.2351">
        <time>1970-01-01T00:00:00+00:00</time>
        <ele>2028.0</ele>
      </trkpt>
      <trkpt lat="44.13891" lon="7.23515">
        <time>1970-01-01T00:00:00+00:00</time>
        <ele>2028.0</ele>
      </trkpt>
      <trkpt lat="44.13891" lon="7.23515">
        <time>1970-01-01T00:00:00+00:00</time>
        <ele>2028.0</ele>
      </trkpt>
      <trkpt lat="44.13887" lon="7.2352">
        <time>1970-01-01T00:00:00+00:00</time>
        <ele>2029.0</ele>
      </trkpt>
      <trkpt lat="44.13887" lon="7.2352">
        <time>1970-01-01T00:00:00+00:00</time>
        <ele>2029.0</ele>
      </trkpt>
      <trkpt lat="44.13881" lon="7.23531">
        <time>1970-01-01T00:00:00+00:00</time>
        <ele>2032.0</ele>
      </trkpt>
      <trkpt lat="44.13881" lon="7.23531">
        <time>1970-01-01T00:00:00+00:00</time>
        <ele>2032.0</ele>
      </trkpt>
      <trkpt lat="44.13876" lon="7.23542">
        <time>1970-01-01T00:00:00+00:00</time>
        <ele>2034.0</ele>
      </trkpt>
      <trkpt lat="44.13876" lon="7.23542">
        <time>1970-01-01T00:00:00+00:00</time>
        <ele>2034.0</ele>
      </trkpt>
      <trkpt lat="44.1387" lon="7.23554">
        <time>1970-01-01T00:00:00+00:00</time>
        <ele>2037.0</ele>
      </trkpt>
      <trkpt lat="44.1387" lon="7.23554">
        <time>1970-01-01T00:00:00+00:00</time>
        <ele>2037.0</ele>
      </trkpt>
      <trkpt lat="44.13864" lon="7.23565">
        <time>1970-01-01T00:00:00+00:00</time>
        <ele>2040.0</ele>
      </trkpt>
      <trkpt lat="44.13864" lon="7.23565">
        <time>1970-01-01T00:00:00+00:00</time>
        <ele>2040.0</ele>
      </trkpt>
      <trkpt lat="44.13858" lon="7.23576">
        <time>1970-01-01T00:00:00+00:00</time>
        <ele>2042.0</ele>
      </trkpt>
      <trkpt lat="44.13858" lon="7.23576">
        <time>1970-01-01T00:00:00+00:00</time>
        <ele>2042.0</ele>
      </trkpt>
      <trkpt lat="44.13853" lon="7.23587">
        <time>1970-01-01T00:00:00+00:00</time>
        <ele>2045.0</ele>
      </trkpt>
      <trkpt lat="44.13853" lon="7.23587">
        <time>1970-01-01T00:00:00+00:00</time>
        <ele>2045.0</ele>
      </trkpt>
      <trkpt lat="44.13847" lon="7.23598">
        <time>1970-01-01T00:00:00+00:00</time>
        <ele>2048.0</ele>
      </trkpt>
      <trkpt lat="44.13847" lon="7.23598">
        <time>1970-01-01T00:00:00+00:00</time>
        <ele>2048.0</ele>
      </trkpt>
      <trkpt lat="44.13829140865895" lon="7.2359502347764915">
        <time>1970-01-01T00:00:00+00:00</time>
        <ele>2042.0</ele>
      </trkpt>
      <trkpt lat="44.1381128173179" lon="7.235920469552982">
        <time>1970-01-01T00:00:00+00:00</time>
        <ele>2037.0</ele>
      </trkpt>
      <trkpt lat="44.13811" lon="7.23592">
        <time>1970-01-01T00:00:00+00:00</time>
        <ele>2037.0</ele>
      </trkpt>
      <trkpt lat="44.13811" lon="7.23592">
        <time>1970-01-01T00:00:00+00:00</time>
        <ele>2037.0</ele>
      </trkpt>
      <trkpt lat="44.138062182270275" lon="7.23567839462875">
        <time>1970-01-01T00:00:00+00:00</time>
        <ele>2029.0</ele>
      </trkpt>
      <trkpt lat="44.13801436454055" lon="7.235436789257501">
        <time>1970-01-01T00:00:00+00:00</time>
        <ele>2025.0</ele>
      </trkpt>
      <trkpt lat="44.13796654681082" lon="7.235195183886252">
        <time>1970-01-01T00:00:00+00:00</time>
        <ele>2024.0</ele>
      </trkpt>
      <trkpt lat="44.13792" lon="7.23496">
        <time>1970-01-01T00:00:00+00:00</time>
        <ele>2026.0</ele>
      </trkpt>
      <trkpt lat="44.13792" lon="7.23496">
        <time>1970-01-01T00:00:00+00:00</time>
        <ele>2026.0</ele>
      </trkpt>
      <trkpt lat="44.137818255458896" lon="7.235166668599121">
        <time>1970-01-01T00:00:00+00:00</time>
        <ele>2025.0</ele>
      </trkpt>
      <trkpt lat="44.137716510917784" lon="7.235373337198243">
        <time>1970-01-01T00:00:00+00:00</time>
        <ele>2025.0</ele>
      </trkpt>
      <trkpt lat="44.13761476637668" lon="7.235580005797364">
        <time>1970-01-01T00:00:00+00:00</time>
        <ele>2025.0</ele>
      </trkpt>
      <trkpt lat="44.13751302183558" lon="7.235786674396486">
        <time>1970-01-01T00:00:00+00:00</time>
        <ele>2027.0</ele>
      </trkpt>
      <trkpt lat="44.137411277294476" lon="7.235993342995607">
        <time>1970-01-01T00:00:00+00:00</time>
        <ele>2031.0</ele>
      </trkpt>
      <trkpt lat="44.13730953275336" lon="7.236200011594727">
        <time>1970-01-01T00:00:00+00:00</time>
        <ele>2034.0</ele>
      </trkpt>
      <trkpt lat="44.13720778821226" lon="7.23640668019385">
        <time>1970-01-01T00:00:00+00:00</time>
        <ele>2037.0</ele>
      </trkpt>
      <trkpt lat="44.13710604367115" lon="7.236613348792972">
        <time>1970-01-01T00:00:00+00:00</time>
        <ele>2038.0</ele>
      </trkpt>
      <trkpt lat="44.13700429913005" lon="7.236820017392093">
        <time>1970-01-01T00:00:00+00:00</time>
        <ele>2037.0</ele>
      </trkpt>
      <trkpt lat="44.13690255458894" lon="7.237026685991214">
        <time>1970-01-01T00:00:00+00:00</time>
        <ele>2034.0</ele>
      </trkpt>
      <trkpt lat="44.13680081004783" lon="7.237233354590336">
        <time>1970-01-01T00:00:00+00:00</time>
        <ele>2028.0</ele>
      </trkpt>
      <trkpt lat="44.13669906550673" lon="7.237440023189457">
        <time>1970-01-01T00:00:00+00:00</time>
        <ele>2020.0</ele>
      </trkpt>
      <trkpt lat="44.13659732096562" lon="7.237646691788578">
        <time>1970-01-01T00:00:00+00:00</time>
        <ele>2012.0</ele>
      </trkpt>
      <trkpt lat="44.13649557642452" lon="7.2378533603876996">
        <time>1970-01-01T00:00:00+00:00</time>
        <ele>2003.0</ele>
      </trkpt>
      <trkpt lat="44.13639383188341" lon="7.238060028986821">
        <time>1970-01-01T00:00:00+00:00</time>
        <ele>1994.0</ele>
      </trkpt>
      <trkpt lat="44.136292087342305" lon="7.238266697585942">
        <time>1970-01-01T00:00:00+00:00</time>
        <ele>1985.0</ele>
      </trkpt>
      <trkpt lat="44.1361903428012" lon="7.238473366185064">
        <time>1970-01-01T00:00:00+00:00</time>
        <ele>1978.0</ele>
      </trkpt>
      <trkpt lat="44.136088598260095" lon="7.238680034784186">
        <time>1970-01-01T00:00:00+00:00</time>
        <ele>1973.0</ele>
      </trkpt>
      <trkpt lat="44.136" lon="7.23886">
        <time>1970-01-01T00:00:00+00:00</time>
        <ele>1969.0</ele>
      </trkpt>
      <trkpt lat="44.136" lon="7.23886">
        <time>1970-01-01T00:00:00+00:00</time>
        <ele>1969.0</ele>
      </trkpt>
      <trkpt lat="44.13590605648179" lon="7.239073703575787">
        <time>1970-01-01T00:00:00+00:00</time>
        <ele>1965.0</ele>
      </trkpt>
      <trkpt lat="44.13581211296358" lon="7.239287407151574">
        <time>1970-01-01T00:00:00+00:00</time>
        <ele>1961.0</ele>
      </trkpt>
      <trkpt lat="44.13571816944536" lon="7.23950111072736">
        <time>1970-01-01T00:00:00+00:00</time>
        <ele>1957.0</ele>
      </trkpt>
      <trkpt lat="44.135624225927145" lon="7.239714814303146">
        <time>1970-01-01T00:00:00+00:00</time>
        <ele>1955.0</ele>
      </trkpt>
      <trkpt lat="44.13553028240892" lon="7.239928517878933">
        <time>1970-01-01T00:00:00+00:00</time>
        <ele>1956.0</ele>
      </trkpt>
      <trkpt lat="44.13543633889071" lon="7.24014222145472">
        <time>1970-01-01T00:00:00+00:00</time>
        <ele>1954.0</ele>
      </trkpt>
      <trkpt lat="44.1353423953725" lon="7.2403559250305065">
        <time>1970-01-01T00:00:00+00:00</time>
        <ele>1950.0</ele>
      </trkpt>
      <trkpt lat="44.13524845185428" lon="7.240569628606293">
        <time>1970-01-01T00:00:00+00:00</time>
        <ele>1945.0</ele>
      </trkpt>
      <trkpt lat="44.13515450833607" lon="7.24078333218208">
        <time>1970-01-01T00:00:00+00:00</time>
        <ele>1940.0</ele>
      </trkpt>
      <trkpt lat="44.135060564817856" lon="7.240997035757866">
        <time>1970-01-01T00:00:00+00:00</time>
        <ele>1935.0</ele>
      </trkpt>
      <trkpt lat="44.13496662129964" lon="7.241210739333653">
        <time>1970-01-01T00:00:00+00:00</time>
        <ele>1931.0</ele>
      </trkpt>
      <trkpt lat="44.134872677781416" lon="7.241424442909439">
        <time>1970-01-01T00:00:00+00:00</time>
        <ele>1928.0</ele>
      </trkpt>
      <trkpt lat="44.13477873426321" lon="7.241638146485226">
        <time>1970-01-01T00:00:00+00:00</time>
        <ele>1926.0</ele>
      </trkpt>
      <trkpt lat="44.13468479074499" lon="7.241851850061013">
        <time>1970-01-01T00:00:00+00:00</time>
        <ele>1925.0</ele>
      </trkpt>
      <trkpt lat="44.134590847226775" lon="7.242065553636801">
        <time>1970-01-01T00:00:00+00:00</time>
        <ele>1924.0</ele>
      </trkpt>
      <trkpt lat="44.13449690370856" lon="7.242279257212586">
        <time>1970-01-01T00:00:00+00:00</time>
        <ele>1925.0</ele>
      </trkpt>
      <trkpt lat="44.13440296019035" lon="7.242492960788372">
        <time>1970-01-01T00:00:00+00:00</time>
        <ele>1925.0</ele>
      </trkpt>
      <trkpt lat="44.134309016672134" lon="7.242706664364159">
        <time>1970-01-01T00:00:00+00:00</time>
        <ele>1924.0</ele>
      </trkpt>
      <trkpt lat="44.13421507315392" lon="7.242920367939945">
        <time>1970-01-01T00:00:00+00:00</time>
        <ele>1923.0</ele>
      </trkpt>
      <trkpt lat="44.1341211296357" lon="7.243134071515733">
        <time>1970-01-01T00:00:00+00:00</time>
        <ele>1922.0</ele>
      </trkpt>
      <trkpt lat="44.134027186117486" lon="7.24334777509152">
        <time>1970-01-01T00:00:00+00:00</time>
        <ele>1919.0</ele>
      </trkpt>
      <trkpt lat="44.13393324259927" lon="7.243561478667306">
        <time>1970-01-01T00:00:00+00:00</time>
        <ele>1917.0</ele>
      </trkpt>
      <trkpt lat="44.13383929908106" lon="7.243775182243093">
        <time>1970-01-01T00:00:00+00:00</time>
        <ele>1915.0</ele>
      </trkpt>
      <trkpt lat="44.13374535556284" lon="7.243988885818879">
        <time>1970-01-01T00:00:00+00:00</time>
        <ele>1913.0</ele>
      </trkpt>
      <trkpt lat="44.13365141204463" lon="7.244202589394666">
        <time>1970-01-01T00:00:00+00:00</time>
        <ele>1912.0</ele>
      </trkpt>
      <trkpt lat="44.13355746852641" lon="7.2444162929704525">
        <time>1970-01-01T00:00:00+00:00</time>
        <ele>1910.0</ele>
      </trkpt>
      <trkpt lat="44.133463525008196" lon="7.244629996546239">
        <time>1970-01-01T00:00:00+00:00</time>
        <ele>1908.0</ele>
      </trkpt>
      <trkpt lat="44.13336958148999" lon="7.2448437001220265">
        <time>1970-01-01T00:00:00+00:00</time>
        <ele>1905.0</ele>
      </trkpt>
      <trkpt lat="44.133275637971764" lon="7.245057403697812">
        <time>1970-01-01T00:00:00+00:00</time>
        <ele>1902.0</ele>
      </trkpt>
      <trkpt lat="44.133181694453555" lon="7.245271107273599">
        <time>1970-01-01T00:00:00+00:00</time>
        <ele>1899.0</ele>
      </trkpt>
      <trkpt lat="44.13308775093534" lon="7.245484810849385">
        <time>1970-01-01T00:00:00+00:00</time>
        <ele>1896.0</ele>
      </trkpt>
      <trkpt lat="44.13299380741712" lon="7.245698514425172">
        <time>1970-01-01T00:00:00+00:00</time>
        <ele>1893.0</ele>
      </trkpt>
      <trkpt lat="44.13289986389891" lon="7.245912218000959">
        <time>1970-01-01T00:00:00+00:00</time>
        <ele>1891.0</ele>
      </trkpt>
      <trkpt lat="44.13280592038069" lon="7.246125921576746">
        <time>1970-01-01T00:00:00+00:00</time>
        <ele>1889.0</ele>
      </trkpt>
      <trkpt lat="44.13271197686248" lon="7.246339625152531">
        <time>1970-01-01T00:00:00+00:00</time>
        <ele>1887.0</ele>
      </trkpt>
      <trkpt lat="44.13261803334426" lon="7.246553328728319">
        <time>1970-01-01T00:00:00+00:00</time>
        <ele>1886.0</ele>
      </trkpt>
      <trkpt lat="44.13252408982605" lon="7.246767032304105">
        <time>1970-01-01T00:00:00+00:00</time>
        <ele>1885.0</ele>
      </trkpt>
      <trkpt lat="44.13243014630783" lon="7.246980735879892">
        <time>1970-01-01T00:00:00+00:00</time>
        <ele>1884.0</ele>
      </trkpt>
      <trkpt lat="44.13233620278962" lon="7.247194439455678">
        <time>1970-01-01T00:00:00+00:00</time>
        <ele>1883.0</ele>
      </trkpt>
      <trkpt lat="44.13224225927141" lon="7.247408143031466">
        <time>1970-01-01T00:00:00+00:00</time>
        <ele>1882.0</ele>
      </trkpt>
      <trkpt lat="44.132148315753184" lon="7.247621846607252">
        <time>1970-01-01T00:00:00+00:00</time>
        <ele>1881.0</ele>
      </trkpt>
      <trkpt lat="44.132054372234975" lon="7.247835550183039">
        <time>1970-01-01T00:00:00+00:00</time>
        <ele>1881.0</ele>
      </trkpt>
      <trkpt lat="44.13196042871676" lon="7.2480492537588255">
        <time>1970-01-01T00:00:00+00:00</time>
        <ele>1880.0</ele>
      </trkpt>
      <trkpt lat="44.13186648519854" lon="7.248262957334612">
        <time>1970-01-01T00:00:00+00:00</time>
        <ele>1877.0</ele>
      </trkpt>
      <trkpt lat="44.13177254168033" lon="7.2484766609103986">
        <time>1970-01-01T00:00:00+00:00</time>
        <ele>1875.0</ele>
      </trkpt>
      <trkpt lat="44.13167859816211" lon="7.248690364486185">
        <time>1970-01-01T00:00:00+00:00</time>
        <ele>1872.0</ele>
      </trkpt>
      <trkpt lat="44.1315846546439" lon="7.248904068061972">
        <time>1970-01-01T00:00:00+00:00</time>
        <ele>1869.0</ele>
      </trkpt>
      <trkpt lat="44.13149071112568" lon="7.249117771637758">
        <time>1970-01-01T00:00:00+00:00</time>
        <ele>1867.0</ele>
      </trkpt>
      <trkpt lat="44.13139676760747" lon="7.249331475213545">
        <time>1970-01-01T00:00:00+00:00</time>
        <ele>1865.0</ele>
      </trkpt>
      <trkpt lat="44.13130282408925" lon="7.249545178789331">
        <time>1970-01-01T00:00:00+00:00</time>
        <ele>1863.0</ele>
      </trkpt>
      <trkpt lat="44.13120888057104" lon="7.249758882365118">
        <time>1970-01-01T00:00:00+00:00</time>
        <ele>1862.0</ele>
      </trkpt>
      <trkpt lat="44.13111493705283" lon="7.249972585940905">
        <time>1970-01-01T00:00:00+00:00</time>
        <ele>1861.0</ele>
      </trkpt>
      <trkpt lat="44.131020993534605" lon="7.250186289516692">
        <time>1970-01-01T00:00:00+00:00</time>
        <ele>1859.0</ele>
      </trkpt>
      <trkpt lat="44.130927050016396" lon="7.250399993092478">
        <time>1970-01-01T00:00:00+00:00</time>
        <ele>1858.0</ele>
      </trkpt>
      <trkpt lat="44.13083310649818" lon="7.250613696668265">
        <time>1970-01-01T00:00:00+00:00</time>
        <ele>1856.0</ele>
      </trkpt>
      <trkpt lat="44.130739162979964" lon="7.250827400244052">
        <time>1970-01-01T00:00:00+00:00</time>
        <ele>1852.0</ele>
      </trkpt>
      <trkpt lat="44.13064521946175" lon="7.251041103819838">
        <time>1970-01-01T00:00:00+00:00</time>
        <ele>1849.0</ele>
      </trkpt>
      <trkpt lat="44.13055127594353" lon="7.2512548073956244">
        <time>1970-01-01T00:00:00+00:00</time>
        <ele>1845.0</ele>
      </trkpt>
      <trkpt lat="44.130457332425316" lon="7.251468510971411">
        <time>1970-01-01T00:00:00+00:00</time>
        <ele>1841.0</ele>
      </trkpt>
      <trkpt lat="44.13036338890711" lon="7.251682214547198">
        <time>1970-01-01T00:00:00+00:00</time>
        <ele>1837.0</ele>
      </trkpt>
      <trkpt lat="44.13026944538889" lon="7.251895918122985">
        <time>1970-01-01T00:00:00+00:00</time>
        <ele>1833.0</ele>
      </trkpt>
      <trkpt lat="44.130175501870674" lon="7.2521096216987715">
        <time>1970-01-01T00:00:00+00:00</time>
        <ele>1829.0</ele>
      </trkpt>
      <trkpt lat="44.13008155835246" lon="7.252323325274558">
        <time>1970-01-01T00:00:00+00:00</time>
        <ele>1826.0</ele>
      </trkpt>
      <trkpt lat="44.12998761483424" lon="7.252537028850345">
        <time>1970-01-01T00:00:00+00:00</time>
        <ele>1823.0</ele>
      </trkpt>
      <trkpt lat="44.129893671316026" lon="7.252750732426131">
        <time>1970-01-01T00:00:00+00:00</time>
        <ele>1821.0</ele>
      </trkpt>
      <trkpt lat="44.12979972779782" lon="7.252964436001918">
        <time>1970-01-01T00:00:00+00:00</time>
        <ele>1820.0</ele>
      </trkpt>
      <trkpt lat="44.129705784279594" lon="7.253178139577705">
        <time>1970-01-01T00:00:00+00:00</time>
        <ele>1819.0</ele>
      </trkpt>
      <trkpt lat="44.129611840761385" lon="7.253391843153492">
        <time>1970-01-01T00:00:00+00:00</time>
        <ele>1819.0</ele>
      </trkpt>
      <trkpt lat="44.12951789724317" lon="7.253605546729277">
        <time>1970-01-01T00:00:00+00:00</time>
        <ele>1819.0</ele>
      </trkpt>
      <trkpt lat="44.12945" lon="7.25376">
        <time>1970-01-01T00:00:00+00:00</time>
        <ele>1818.0</ele>
      </trkpt>
    </trkseg>
  </trk>
</gpx>
